<?xml version="1.0" encoding="UTF-8" standalone="no" ?>
<gpx xmlns="http://www.topografix.com/GPX/1/1" xmlns:xsi="http://www.w3.org/2001/XMLSchema-instance" xsi:schemaLocation="http://www.topografix.com/GPX/1/1 http://www.topografix.com/GPX/1/1/gpx.xsd" version="1.1" creator="VisuGPX - https://www.visugpx.com">
  <metadata>
    <name>Super Lioran/Puy Griou</name>
    <desc><![CDATA[Départ gîte d\'étape Le Bufadou direction la patinoire, suivre le balisage PR vert, suivre le sentier qui monte dans le bois des Carbonnières, retrouver le télésiège du Buron des Gardes, monter à droite vers le buron des gardes. Le balisage est assez peu visible. Poursuivre vers Les Gardes, puis Les Chazes, passer sous la Dtle, passer la chapelle suivre un moment la rte, et tourner à droite. Possibilité de prendre direction Font de Cère à droite, ou monter vers le Griou. Poursuivre direction le Buron de Meije Cost, et redescendre vers le Lioran.]]></desc>
  </metadata>
  <trk>
    <name><![CDATA[Le Bufadou/Puy Griou11-JUIN-15 04:30:28 PM]]></name>
    <trkseg>
      <trkpt lat="45.08167" lon="2.75238">
        <ele>1316.18</ele>
        <time>2015-06-10T16:40:39Z</time>
      </trkpt>
      <trkpt lat="45.08166" lon="2.75238">
        <ele>1315.7</ele>
        <time>2015-06-10T16:40:41Z</time>
      </trkpt>
      <trkpt lat="45.08212" lon="2.75211">
        <ele>1310.41</ele>
        <time>2015-06-11T06:12:35Z</time>
      </trkpt>
      <trkpt lat="45.08204" lon="2.75202">
        <ele>1310.41</ele>
        <time>2015-06-11T06:12:51Z</time>
      </trkpt>
      <trkpt lat="45.08198" lon="2.75196">
        <ele>1316.66</ele>
        <time>2015-06-11T06:13:12Z</time>
      </trkpt>
      <trkpt lat="45.08199" lon="2.75179">
        <ele>1314.74</ele>
        <time>2015-06-11T06:13:25Z</time>
      </trkpt>
      <trkpt lat="45.082" lon="2.75156">
        <ele>1320.99</ele>
        <time>2015-06-11T06:13:36Z</time>
      </trkpt>
      <trkpt lat="45.08203" lon="2.7515">
        <ele>1321.47</ele>
        <time>2015-06-11T06:13:40Z</time>
      </trkpt>
      <trkpt lat="45.08198" lon="2.75113">
        <ele>1287.34</ele>
        <time>2015-06-11T06:13:53Z</time>
      </trkpt>
      <trkpt lat="45.08198" lon="2.75098">
        <ele>1276.29</ele>
        <time>2015-06-11T06:14:01Z</time>
      </trkpt>
      <trkpt lat="45.08201" lon="2.75091">
        <ele>1268.12</ele>
        <time>2015-06-11T06:14:09Z</time>
      </trkpt>
      <trkpt lat="45.08215" lon="2.75095">
        <ele>1260.91</ele>
        <time>2015-06-11T06:14:21Z</time>
      </trkpt>
      <trkpt lat="45.08217" lon="2.75097">
        <ele>1261.87</ele>
        <time>2015-06-11T06:14:23Z</time>
      </trkpt>
      <trkpt lat="45.08231" lon="2.75097">
        <ele>1258.98</ele>
        <time>2015-06-11T06:14:35Z</time>
      </trkpt>
      <trkpt lat="45.08241" lon="2.75089">
        <ele>1257.54</ele>
        <time>2015-06-11T06:14:47Z</time>
      </trkpt>
      <trkpt lat="45.08242" lon="2.75088">
        <ele>1258.02</ele>
        <time>2015-06-11T06:14:48Z</time>
      </trkpt>
      <trkpt lat="45.08252" lon="2.75075">
        <ele>1259.46</ele>
        <time>2015-06-11T06:15:00Z</time>
      </trkpt>
      <trkpt lat="45.08258" lon="2.75068">
        <ele>1258.5</ele>
        <time>2015-06-11T06:15:08Z</time>
      </trkpt>
      <trkpt lat="45.08257" lon="2.75064">
        <ele>1258.5</ele>
        <time>2015-06-11T06:15:11Z</time>
      </trkpt>
      <trkpt lat="45.08257" lon="2.75057">
        <ele>1258.02</ele>
        <time>2015-06-11T06:15:15Z</time>
      </trkpt>
      <trkpt lat="45.08257" lon="2.75052">
        <ele>1258.5</ele>
        <time>2015-06-11T06:15:19Z</time>
      </trkpt>
      <trkpt lat="45.08252" lon="2.7503">
        <ele>1259.94</ele>
        <time>2015-06-11T06:15:30Z</time>
      </trkpt>
      <trkpt lat="45.08241" lon="2.75018">
        <ele>1256.58</ele>
        <time>2015-06-11T06:15:43Z</time>
      </trkpt>
      <trkpt lat="45.08234" lon="2.75005">
        <ele>1250.33</ele>
        <time>2015-06-11T06:15:53Z</time>
      </trkpt>
      <trkpt lat="45.08235" lon="2.74985">
        <ele>1247.45</ele>
        <time>2015-06-11T06:16:04Z</time>
      </trkpt>
      <trkpt lat="45.08235" lon="2.74981">
        <ele>1247.45</ele>
        <time>2015-06-11T06:16:06Z</time>
      </trkpt>
      <trkpt lat="45.08235" lon="2.74977">
        <ele>1246.97</ele>
        <time>2015-06-11T06:16:09Z</time>
      </trkpt>
      <trkpt lat="45.08227" lon="2.74972">
        <ele>1247.45</ele>
        <time>2015-06-11T06:16:16Z</time>
      </trkpt>
      <trkpt lat="45.08216" lon="2.74968">
        <ele>1246.01</ele>
        <time>2015-06-11T06:16:26Z</time>
      </trkpt>
      <trkpt lat="45.08214" lon="2.74965">
        <ele>1245.04</ele>
        <time>2015-06-11T06:16:36Z</time>
      </trkpt>
      <trkpt lat="45.08213" lon="2.74962">
        <ele>1245.04</ele>
        <time>2015-06-11T06:16:38Z</time>
      </trkpt>
      <trkpt lat="45.08214" lon="2.74962">
        <ele>1245.53</ele>
        <time>2015-06-11T06:16:51Z</time>
      </trkpt>
      <trkpt lat="45.08207" lon="2.74954">
        <ele>1245.04</ele>
        <time>2015-06-11T06:17:10Z</time>
      </trkpt>
      <trkpt lat="45.08205" lon="2.74953">
        <ele>1245.04</ele>
        <time>2015-06-11T06:17:12Z</time>
      </trkpt>
      <trkpt lat="45.08187" lon="2.74946">
        <ele>1245.53</ele>
        <time>2015-06-11T06:17:25Z</time>
      </trkpt>
      <trkpt lat="45.08173" lon="2.74938">
        <ele>1245.04</ele>
        <time>2015-06-11T06:17:40Z</time>
      </trkpt>
      <trkpt lat="45.08158" lon="2.7493">
        <ele>1246.97</ele>
        <time>2015-06-11T06:17:53Z</time>
      </trkpt>
      <trkpt lat="45.08148" lon="2.74926">
        <ele>1250.33</ele>
        <time>2015-06-11T06:18:01Z</time>
      </trkpt>
      <trkpt lat="45.08134" lon="2.74917">
        <ele>1248.89</ele>
        <time>2015-06-11T06:18:15Z</time>
      </trkpt>
      <trkpt lat="45.08118" lon="2.74909">
        <ele>1249.85</ele>
        <time>2015-06-11T06:18:27Z</time>
      </trkpt>
      <trkpt lat="45.08107" lon="2.749">
        <ele>1251.29</ele>
        <time>2015-06-11T06:18:37Z</time>
      </trkpt>
      <trkpt lat="45.08105" lon="2.749">
        <ele>1251.77</ele>
        <time>2015-06-11T06:18:39Z</time>
      </trkpt>
      <trkpt lat="45.08097" lon="2.7489">
        <ele>1251.29</ele>
        <time>2015-06-11T06:18:47Z</time>
      </trkpt>
      <trkpt lat="45.08095" lon="2.74886">
        <ele>1250.33</ele>
        <time>2015-06-11T06:19:01Z</time>
      </trkpt>
      <trkpt lat="45.08093" lon="2.74884">
        <ele>1251.29</ele>
        <time>2015-06-11T06:19:19Z</time>
      </trkpt>
      <trkpt lat="45.08092" lon="2.74883">
        <ele>1249.85</ele>
        <time>2015-06-11T06:19:39Z</time>
      </trkpt>
      <trkpt lat="45.08086" lon="2.74875">
        <ele>1247.93</ele>
        <time>2015-06-11T06:19:55Z</time>
      </trkpt>
      <trkpt lat="45.08072" lon="2.74861">
        <ele>1246.97</ele>
        <time>2015-06-11T06:20:11Z</time>
      </trkpt>
      <trkpt lat="45.08065" lon="2.7485">
        <ele>1246.49</ele>
        <time>2015-06-11T06:20:21Z</time>
      </trkpt>
      <trkpt lat="45.08059" lon="2.74854">
        <ele>1246.01</ele>
        <time>2015-06-11T06:20:27Z</time>
      </trkpt>
      <trkpt lat="45.08054" lon="2.74846">
        <ele>1246.49</ele>
        <time>2015-06-11T06:20:34Z</time>
      </trkpt>
      <trkpt lat="45.08044" lon="2.74831">
        <ele>1246.01</ele>
        <time>2015-06-11T06:20:47Z</time>
      </trkpt>
      <trkpt lat="45.08041" lon="2.74827">
        <ele>1246.01</ele>
        <time>2015-06-11T06:20:50Z</time>
      </trkpt>
      <trkpt lat="45.08035" lon="2.74807">
        <ele>1245.53</ele>
        <time>2015-06-11T06:21:03Z</time>
      </trkpt>
      <trkpt lat="45.08034" lon="2.74804">
        <ele>1246.49</ele>
        <time>2015-06-11T06:21:05Z</time>
      </trkpt>
      <trkpt lat="45.08028" lon="2.74791">
        <ele>1249.85</ele>
        <time>2015-06-11T06:21:18Z</time>
      </trkpt>
      <trkpt lat="45.08026" lon="2.7479">
        <ele>1248.41</ele>
        <time>2015-06-11T06:21:31Z</time>
      </trkpt>
      <trkpt lat="45.08024" lon="2.74781">
        <ele>1249.37</ele>
        <time>2015-06-11T06:21:45Z</time>
      </trkpt>
      <trkpt lat="45.08019" lon="2.74779">
        <ele>1245.53</ele>
        <time>2015-06-11T06:22:00Z</time>
      </trkpt>
      <trkpt lat="45.08017" lon="2.74778">
        <ele>1244.56</ele>
        <time>2015-06-11T06:22:02Z</time>
      </trkpt>
      <trkpt lat="45.08009" lon="2.74765">
        <ele>1246.01</ele>
        <time>2015-06-11T06:22:14Z</time>
      </trkpt>
      <trkpt lat="45.08" lon="2.74754">
        <ele>1247.93</ele>
        <time>2015-06-11T06:22:28Z</time>
      </trkpt>
      <trkpt lat="45.07993" lon="2.74743">
        <ele>1247.93</ele>
        <time>2015-06-11T06:22:40Z</time>
      </trkpt>
      <trkpt lat="45.07989" lon="2.74736">
        <ele>1249.85</ele>
        <time>2015-06-11T06:22:51Z</time>
      </trkpt>
      <trkpt lat="45.07983" lon="2.74725">
        <ele>1250.33</ele>
        <time>2015-06-11T06:23:03Z</time>
      </trkpt>
      <trkpt lat="45.07976" lon="2.74719">
        <ele>1253.22</ele>
        <time>2015-06-11T06:23:15Z</time>
      </trkpt>
      <trkpt lat="45.0797" lon="2.74711">
        <ele>1258.5</ele>
        <time>2015-06-11T06:23:28Z</time>
      </trkpt>
      <trkpt lat="45.07962" lon="2.74705">
        <ele>1261.87</ele>
        <time>2015-06-11T06:23:41Z</time>
      </trkpt>
      <trkpt lat="45.07956" lon="2.74702">
        <ele>1263.79</ele>
        <time>2015-06-11T06:23:53Z</time>
      </trkpt>
      <trkpt lat="45.0795" lon="2.74699">
        <ele>1265.71</ele>
        <time>2015-06-11T06:24:03Z</time>
      </trkpt>
      <trkpt lat="45.07941" lon="2.74693">
        <ele>1266.19</ele>
        <time>2015-06-11T06:24:16Z</time>
      </trkpt>
      <trkpt lat="45.0794" lon="2.74693">
        <ele>1266.19</ele>
        <time>2015-06-11T06:24:17Z</time>
      </trkpt>
      <trkpt lat="45.07932" lon="2.74693">
        <ele>1269.56</ele>
        <time>2015-06-11T06:24:30Z</time>
      </trkpt>
      <trkpt lat="45.07927" lon="2.74684">
        <ele>1270.52</ele>
        <time>2015-06-11T06:24:39Z</time>
      </trkpt>
      <trkpt lat="45.07915" lon="2.74671">
        <ele>1270.04</ele>
        <time>2015-06-11T06:24:53Z</time>
      </trkpt>
      <trkpt lat="45.07913" lon="2.74656">
        <ele>1271.96</ele>
        <time>2015-06-11T06:25:02Z</time>
      </trkpt>
      <trkpt lat="45.07913" lon="2.74647">
        <ele>1272.92</ele>
        <time>2015-06-11T06:25:06Z</time>
      </trkpt>
      <trkpt lat="45.07912" lon="2.74634">
        <ele>1274.36</ele>
        <time>2015-06-11T06:25:19Z</time>
      </trkpt>
      <trkpt lat="45.07913" lon="2.7463">
        <ele>1274.85</ele>
        <time>2015-06-11T06:25:42Z</time>
      </trkpt>
      <trkpt lat="45.07911" lon="2.74629">
        <ele>1272.92</ele>
        <time>2015-06-11T06:26:08Z</time>
      </trkpt>
      <trkpt lat="45.07912" lon="2.74628">
        <ele>1272.92</ele>
        <time>2015-06-11T06:26:26Z</time>
      </trkpt>
      <trkpt lat="45.07911" lon="2.74629">
        <ele>1271.96</ele>
        <time>2015-06-11T06:26:44Z</time>
      </trkpt>
      <trkpt lat="45.07912" lon="2.74631">
        <ele>1272.44</ele>
        <time>2015-06-11T06:27:09Z</time>
      </trkpt>
      <trkpt lat="45.07914" lon="2.74631">
        <ele>1273.4</ele>
        <time>2015-06-11T06:27:33Z</time>
      </trkpt>
      <trkpt lat="45.07914" lon="2.74631">
        <ele>1271.96</ele>
        <time>2015-06-11T06:28:02Z</time>
      </trkpt>
      <trkpt lat="45.07916" lon="2.74628">
        <ele>1271.96</ele>
        <time>2015-06-11T06:28:29Z</time>
      </trkpt>
      <trkpt lat="45.07916" lon="2.74613">
        <ele>1273.4</ele>
        <time>2015-06-11T06:28:41Z</time>
      </trkpt>
      <trkpt lat="45.07914" lon="2.74606">
        <ele>1272.92</ele>
        <time>2015-06-11T06:28:45Z</time>
      </trkpt>
      <trkpt lat="45.07914" lon="2.74587">
        <ele>1267.16</ele>
        <time>2015-06-11T06:28:58Z</time>
      </trkpt>
      <trkpt lat="45.07914" lon="2.74581">
        <ele>1266.67</ele>
        <time>2015-06-11T06:29:01Z</time>
      </trkpt>
      <trkpt lat="45.07916" lon="2.74577">
        <ele>1266.19</ele>
        <time>2015-06-11T06:29:04Z</time>
      </trkpt>
      <trkpt lat="45.07914" lon="2.74564">
        <ele>1266.67</ele>
        <time>2015-06-11T06:29:11Z</time>
      </trkpt>
      <trkpt lat="45.07914" lon="2.74556">
        <ele>1268.12</ele>
        <time>2015-06-11T06:29:17Z</time>
      </trkpt>
      <trkpt lat="45.07913" lon="2.74553">
        <ele>1268.12</ele>
        <time>2015-06-11T06:29:19Z</time>
      </trkpt>
      <trkpt lat="45.07909" lon="2.7453">
        <ele>1266.67</ele>
        <time>2015-06-11T06:29:34Z</time>
      </trkpt>
      <trkpt lat="45.07907" lon="2.74519">
        <ele>1266.67</ele>
        <time>2015-06-11T06:29:41Z</time>
      </trkpt>
      <trkpt lat="45.07905" lon="2.74513">
        <ele>1266.19</ele>
        <time>2015-06-11T06:29:45Z</time>
      </trkpt>
      <trkpt lat="45.07897" lon="2.74494">
        <ele>1265.23</ele>
        <time>2015-06-11T06:29:58Z</time>
      </trkpt>
      <trkpt lat="45.07894" lon="2.74486">
        <ele>1262.35</ele>
        <time>2015-06-11T06:30:03Z</time>
      </trkpt>
      <trkpt lat="45.07892" lon="2.74483">
        <ele>1261.87</ele>
        <time>2015-06-11T06:30:05Z</time>
      </trkpt>
      <trkpt lat="45.07889" lon="2.74465">
        <ele>1260.91</ele>
        <time>2015-06-11T06:30:15Z</time>
      </trkpt>
      <trkpt lat="45.07884" lon="2.74445">
        <ele>1263.31</ele>
        <time>2015-06-11T06:30:26Z</time>
      </trkpt>
      <trkpt lat="45.07881" lon="2.74423">
        <ele>1265.71</ele>
        <time>2015-06-11T06:30:39Z</time>
      </trkpt>
      <trkpt lat="45.0788" lon="2.74409">
        <ele>1267.16</ele>
        <time>2015-06-11T06:30:47Z</time>
      </trkpt>
      <trkpt lat="45.07879" lon="2.74401">
        <ele>1268.12</ele>
        <time>2015-06-11T06:30:52Z</time>
      </trkpt>
      <trkpt lat="45.07876" lon="2.74382">
        <ele>1269.08</ele>
        <time>2015-06-11T06:31:02Z</time>
      </trkpt>
      <trkpt lat="45.07872" lon="2.74365">
        <ele>1266.19</ele>
        <time>2015-06-11T06:31:14Z</time>
      </trkpt>
      <trkpt lat="45.0787" lon="2.74357">
        <ele>1262.35</ele>
        <time>2015-06-11T06:31:19Z</time>
      </trkpt>
      <trkpt lat="45.07868" lon="2.74349">
        <ele>1260.91</ele>
        <time>2015-06-11T06:31:24Z</time>
      </trkpt>
      <trkpt lat="45.07867" lon="2.74336">
        <ele>1258.98</ele>
        <time>2015-06-11T06:31:32Z</time>
      </trkpt>
      <trkpt lat="45.07867" lon="2.74318">
        <ele>1253.22</ele>
        <time>2015-06-11T06:31:44Z</time>
      </trkpt>
      <trkpt lat="45.07869" lon="2.74313">
        <ele>1250.81</ele>
        <time>2015-06-11T06:31:48Z</time>
      </trkpt>
      <trkpt lat="45.07868" lon="2.74304">
        <ele>1249.85</ele>
        <time>2015-06-11T06:31:52Z</time>
      </trkpt>
      <trkpt lat="45.07864" lon="2.74288">
        <ele>1248.89</ele>
        <time>2015-06-11T06:32:03Z</time>
      </trkpt>
      <trkpt lat="45.07864" lon="2.7428">
        <ele>1247.45</ele>
        <time>2015-06-11T06:32:09Z</time>
      </trkpt>
      <trkpt lat="45.07863" lon="2.74276">
        <ele>1246.97</ele>
        <time>2015-06-11T06:32:12Z</time>
      </trkpt>
      <trkpt lat="45.07857" lon="2.74268">
        <ele>1246.97</ele>
        <time>2015-06-11T06:32:19Z</time>
      </trkpt>
      <trkpt lat="45.07847" lon="2.74265">
        <ele>1246.01</ele>
        <time>2015-06-11T06:32:32Z</time>
      </trkpt>
      <trkpt lat="45.07835" lon="2.74262">
        <ele>1244.08</ele>
        <time>2015-06-11T06:32:44Z</time>
      </trkpt>
      <trkpt lat="45.07833" lon="2.74262">
        <ele>1243.6</ele>
        <time>2015-06-11T06:32:46Z</time>
      </trkpt>
      <trkpt lat="45.0783" lon="2.74258">
        <ele>1242.64</ele>
        <time>2015-06-11T06:32:49Z</time>
      </trkpt>
      <trkpt lat="45.07826" lon="2.74245">
        <ele>1241.68</ele>
        <time>2015-06-11T06:32:58Z</time>
      </trkpt>
      <trkpt lat="45.07825" lon="2.74235">
        <ele>1241.68</ele>
        <time>2015-06-11T06:33:03Z</time>
      </trkpt>
      <trkpt lat="45.07836" lon="2.74219">
        <ele>1240.24</ele>
        <time>2015-06-11T06:33:15Z</time>
      </trkpt>
      <trkpt lat="45.07837" lon="2.74216">
        <ele>1239.28</ele>
        <time>2015-06-11T06:33:17Z</time>
      </trkpt>
      <trkpt lat="45.07837" lon="2.74213">
        <ele>1238.32</ele>
        <time>2015-06-11T06:33:19Z</time>
      </trkpt>
      <trkpt lat="45.07845" lon="2.74201">
        <ele>1235.43</ele>
        <time>2015-06-11T06:33:31Z</time>
      </trkpt>
      <trkpt lat="45.07846" lon="2.74198">
        <ele>1234.95</ele>
        <time>2015-06-11T06:33:34Z</time>
      </trkpt>
      <trkpt lat="45.07853" lon="2.74184">
        <ele>1235.91</ele>
        <time>2015-06-11T06:33:46Z</time>
      </trkpt>
      <trkpt lat="45.07851" lon="2.74176">
        <ele>1236.87</ele>
        <time>2015-06-11T06:33:53Z</time>
      </trkpt>
      <trkpt lat="45.07844" lon="2.74168">
        <ele>1237.35</ele>
        <time>2015-06-11T06:34:07Z</time>
      </trkpt>
      <trkpt lat="45.07834" lon="2.74163">
        <ele>1239.28</ele>
        <time>2015-06-11T06:34:19Z</time>
      </trkpt>
      <trkpt lat="45.07832" lon="2.7416">
        <ele>1240.72</ele>
        <time>2015-06-11T06:34:22Z</time>
      </trkpt>
      <trkpt lat="45.0783" lon="2.74157">
        <ele>1241.2</ele>
        <time>2015-06-11T06:34:25Z</time>
      </trkpt>
      <trkpt lat="45.07827" lon="2.74148">
        <ele>1241.68</ele>
        <time>2015-06-11T06:34:32Z</time>
      </trkpt>
      <trkpt lat="45.07826" lon="2.74145">
        <ele>1241.68</ele>
        <time>2015-06-11T06:34:34Z</time>
      </trkpt>
      <trkpt lat="45.07819" lon="2.74128">
        <ele>1239.76</ele>
        <time>2015-06-11T06:34:47Z</time>
      </trkpt>
      <trkpt lat="45.07817" lon="2.74125">
        <ele>1240.24</ele>
        <time>2015-06-11T06:34:51Z</time>
      </trkpt>
      <trkpt lat="45.07815" lon="2.74118">
        <ele>1240.72</ele>
        <time>2015-06-11T06:34:56Z</time>
      </trkpt>
      <trkpt lat="45.07815" lon="2.74114">
        <ele>1239.76</ele>
        <time>2015-06-11T06:35:00Z</time>
      </trkpt>
      <trkpt lat="45.07813" lon="2.74098">
        <ele>1238.32</ele>
        <time>2015-06-11T06:35:12Z</time>
      </trkpt>
      <trkpt lat="45.07808" lon="2.7408">
        <ele>1238.32</ele>
        <time>2015-06-11T06:35:26Z</time>
      </trkpt>
      <trkpt lat="45.07805" lon="2.74078">
        <ele>1238.32</ele>
        <time>2015-06-11T06:35:30Z</time>
      </trkpt>
      <trkpt lat="45.07802" lon="2.74077">
        <ele>1238.8</ele>
        <time>2015-06-11T06:35:33Z</time>
      </trkpt>
      <trkpt lat="45.07794" lon="2.7407">
        <ele>1238.8</ele>
        <time>2015-06-11T06:35:41Z</time>
      </trkpt>
      <trkpt lat="45.07795" lon="2.74067">
        <ele>1239.76</ele>
        <time>2015-06-11T06:35:43Z</time>
      </trkpt>
      <trkpt lat="45.07794" lon="2.74061">
        <ele>1239.76</ele>
        <time>2015-06-11T06:35:46Z</time>
      </trkpt>
      <trkpt lat="45.07794" lon="2.74042">
        <ele>1239.76</ele>
        <time>2015-06-11T06:35:58Z</time>
      </trkpt>
      <trkpt lat="45.07794" lon="2.74039">
        <ele>1239.76</ele>
        <time>2015-06-11T06:36:01Z</time>
      </trkpt>
      <trkpt lat="45.07789" lon="2.74024">
        <ele>1240.24</ele>
        <time>2015-06-11T06:36:11Z</time>
      </trkpt>
      <trkpt lat="45.07787" lon="2.74017">
        <ele>1241.2</ele>
        <time>2015-06-11T06:36:17Z</time>
      </trkpt>
      <trkpt lat="45.07783" lon="2.74001">
        <ele>1240.24</ele>
        <time>2015-06-11T06:36:30Z</time>
      </trkpt>
      <trkpt lat="45.07784" lon="2.73987">
        <ele>1241.2</ele>
        <time>2015-06-11T06:36:43Z</time>
      </trkpt>
      <trkpt lat="45.07781" lon="2.73973">
        <ele>1243.12</ele>
        <time>2015-06-11T06:36:54Z</time>
      </trkpt>
      <trkpt lat="45.07781" lon="2.73971">
        <ele>1243.12</ele>
        <time>2015-06-11T06:36:56Z</time>
      </trkpt>
      <trkpt lat="45.07776" lon="2.7396">
        <ele>1244.08</ele>
        <time>2015-06-11T06:37:09Z</time>
      </trkpt>
      <trkpt lat="45.07768" lon="2.73953">
        <ele>1242.64</ele>
        <time>2015-06-11T06:37:22Z</time>
      </trkpt>
      <trkpt lat="45.07765" lon="2.73947">
        <ele>1243.12</ele>
        <time>2015-06-11T06:37:35Z</time>
      </trkpt>
      <trkpt lat="45.0776" lon="2.73944">
        <ele>1244.08</ele>
        <time>2015-06-11T06:37:48Z</time>
      </trkpt>
      <trkpt lat="45.07757" lon="2.73938">
        <ele>1246.01</ele>
        <time>2015-06-11T06:38:02Z</time>
      </trkpt>
      <trkpt lat="45.07754" lon="2.73933">
        <ele>1247.93</ele>
        <time>2015-06-11T06:38:16Z</time>
      </trkpt>
      <trkpt lat="45.07749" lon="2.73925">
        <ele>1249.85</ele>
        <time>2015-06-11T06:38:29Z</time>
      </trkpt>
      <trkpt lat="45.07744" lon="2.73914">
        <ele>1252.25</ele>
        <time>2015-06-11T06:38:43Z</time>
      </trkpt>
      <trkpt lat="45.07741" lon="2.73907">
        <ele>1253.22</ele>
        <time>2015-06-11T06:38:57Z</time>
      </trkpt>
      <trkpt lat="45.07735" lon="2.73895">
        <ele>1254.18</ele>
        <time>2015-06-11T06:39:10Z</time>
      </trkpt>
      <trkpt lat="45.07729" lon="2.73887">
        <ele>1254.66</ele>
        <time>2015-06-11T06:39:21Z</time>
      </trkpt>
      <trkpt lat="45.07723" lon="2.73872">
        <ele>1254.18</ele>
        <time>2015-06-11T06:39:33Z</time>
      </trkpt>
      <trkpt lat="45.07724" lon="2.73857">
        <ele>1253.22</ele>
        <time>2015-06-11T06:39:45Z</time>
      </trkpt>
      <trkpt lat="45.07718" lon="2.73842">
        <ele>1250.33</ele>
        <time>2015-06-11T06:40:00Z</time>
      </trkpt>
      <trkpt lat="45.07703" lon="2.73836">
        <ele>1249.37</ele>
        <time>2015-06-11T06:40:15Z</time>
      </trkpt>
      <trkpt lat="45.07701" lon="2.73836">
        <ele>1248.89</ele>
        <time>2015-06-11T06:40:18Z</time>
      </trkpt>
      <trkpt lat="45.07693" lon="2.73844">
        <ele>1246.97</ele>
        <time>2015-06-11T06:40:27Z</time>
      </trkpt>
      <trkpt lat="45.07689" lon="2.73863">
        <ele>1247.45</ele>
        <time>2015-06-11T06:40:40Z</time>
      </trkpt>
      <trkpt lat="45.07692" lon="2.73881">
        <ele>1248.89</ele>
        <time>2015-06-11T06:40:52Z</time>
      </trkpt>
      <trkpt lat="45.0769" lon="2.73894">
        <ele>1250.33</ele>
        <time>2015-06-11T06:41:01Z</time>
      </trkpt>
      <trkpt lat="45.07685" lon="2.73901">
        <ele>1254.18</ele>
        <time>2015-06-11T06:41:14Z</time>
      </trkpt>
      <trkpt lat="45.0767" lon="2.73901">
        <ele>1253.22</ele>
        <time>2015-06-11T06:41:28Z</time>
      </trkpt>
      <trkpt lat="45.07658" lon="2.73899">
        <ele>1254.66</ele>
        <time>2015-06-11T06:41:40Z</time>
      </trkpt>
      <trkpt lat="45.07652" lon="2.73895">
        <ele>1254.66</ele>
        <time>2015-06-11T06:41:47Z</time>
      </trkpt>
      <trkpt lat="45.07644" lon="2.73896">
        <ele>1252.74</ele>
        <time>2015-06-11T06:41:59Z</time>
      </trkpt>
      <trkpt lat="45.07632" lon="2.73894">
        <ele>1250.81</ele>
        <time>2015-06-11T06:42:13Z</time>
      </trkpt>
      <trkpt lat="45.07629" lon="2.73882">
        <ele>1251.29</ele>
        <time>2015-06-11T06:42:26Z</time>
      </trkpt>
      <trkpt lat="45.07622" lon="2.73865">
        <ele>1248.41</ele>
        <time>2015-06-11T06:42:38Z</time>
      </trkpt>
      <trkpt lat="45.07611" lon="2.73855">
        <ele>1247.45</ele>
        <time>2015-06-11T06:42:51Z</time>
      </trkpt>
      <trkpt lat="45.07607" lon="2.73835">
        <ele>1247.45</ele>
        <time>2015-06-11T06:43:02Z</time>
      </trkpt>
      <trkpt lat="45.07605" lon="2.73823">
        <ele>1257.06</ele>
        <time>2015-06-11T06:43:17Z</time>
      </trkpt>
      <trkpt lat="45.07605" lon="2.73813">
        <ele>1261.87</ele>
        <time>2015-06-11T06:43:31Z</time>
      </trkpt>
      <trkpt lat="45.07601" lon="2.73802">
        <ele>1262.35</ele>
        <time>2015-06-11T06:43:43Z</time>
      </trkpt>
      <trkpt lat="45.07599" lon="2.73806">
        <ele>1263.31</ele>
        <time>2015-06-11T06:43:54Z</time>
      </trkpt>
      <trkpt lat="45.076" lon="2.73816">
        <ele>1266.19</ele>
        <time>2015-06-11T06:44:06Z</time>
      </trkpt>
      <trkpt lat="45.07599" lon="2.73821">
        <ele>1265.23</ele>
        <time>2015-06-11T06:44:11Z</time>
      </trkpt>
      <trkpt lat="45.07599" lon="2.73838">
        <ele>1269.08</ele>
        <time>2015-06-11T06:44:24Z</time>
      </trkpt>
      <trkpt lat="45.07601" lon="2.73855">
        <ele>1274.36</ele>
        <time>2015-06-11T06:44:36Z</time>
      </trkpt>
      <trkpt lat="45.07607" lon="2.73866">
        <ele>1278.21</ele>
        <time>2015-06-11T06:44:46Z</time>
      </trkpt>
      <trkpt lat="45.07609" lon="2.73879">
        <ele>1278.69</ele>
        <time>2015-06-11T06:44:56Z</time>
      </trkpt>
      <trkpt lat="45.07613" lon="2.73889">
        <ele>1280.13</ele>
        <time>2015-06-11T06:45:02Z</time>
      </trkpt>
      <trkpt lat="45.07622" lon="2.73905">
        <ele>1277.73</ele>
        <time>2015-06-11T06:45:16Z</time>
      </trkpt>
      <trkpt lat="45.07622" lon="2.73922">
        <ele>1275.33</ele>
        <time>2015-06-11T06:45:29Z</time>
      </trkpt>
      <trkpt lat="45.07617" lon="2.73933">
        <ele>1274.85</ele>
        <time>2015-06-11T06:45:40Z</time>
      </trkpt>
      <trkpt lat="45.07603" lon="2.73929">
        <ele>1270.52</ele>
        <time>2015-06-11T06:45:55Z</time>
      </trkpt>
      <trkpt lat="45.07595" lon="2.73929">
        <ele>1270.52</ele>
        <time>2015-06-11T06:46:07Z</time>
      </trkpt>
      <trkpt lat="45.0759" lon="2.73925">
        <ele>1271.96</ele>
        <time>2015-06-11T06:46:22Z</time>
      </trkpt>
      <trkpt lat="45.07583" lon="2.73918">
        <ele>1272.44</ele>
        <time>2015-06-11T06:46:37Z</time>
      </trkpt>
      <trkpt lat="45.07577" lon="2.73915">
        <ele>1273.88</ele>
        <time>2015-06-11T06:46:53Z</time>
      </trkpt>
      <trkpt lat="45.0757" lon="2.73912">
        <ele>1275.81</ele>
        <time>2015-06-11T06:47:10Z</time>
      </trkpt>
      <trkpt lat="45.07559" lon="2.73907">
        <ele>1278.69</ele>
        <time>2015-06-11T06:47:24Z</time>
      </trkpt>
      <trkpt lat="45.07559" lon="2.73905">
        <ele>1283.98</ele>
        <time>2015-06-11T06:47:46Z</time>
      </trkpt>
      <trkpt lat="45.07563" lon="2.73907">
        <ele>1290.23</ele>
        <time>2015-06-11T06:48:05Z</time>
      </trkpt>
      <trkpt lat="45.07562" lon="2.73911">
        <ele>1289.75</ele>
        <time>2015-06-11T06:48:25Z</time>
      </trkpt>
      <trkpt lat="45.07563" lon="2.73923">
        <ele>1290.23</ele>
        <time>2015-06-11T06:48:38Z</time>
      </trkpt>
      <trkpt lat="45.07559" lon="2.73926">
        <ele>1289.27</ele>
        <time>2015-06-11T06:48:54Z</time>
      </trkpt>
      <trkpt lat="45.07554" lon="2.73935">
        <ele>1293.59</ele>
        <time>2015-06-11T06:49:08Z</time>
      </trkpt>
      <trkpt lat="45.07553" lon="2.7394">
        <ele>1295.99</ele>
        <time>2015-06-11T06:49:21Z</time>
      </trkpt>
      <trkpt lat="45.07551" lon="2.73949">
        <ele>1296.48</ele>
        <time>2015-06-11T06:49:35Z</time>
      </trkpt>
      <trkpt lat="45.07549" lon="2.73954">
        <ele>1299.36</ele>
        <time>2015-06-11T06:49:48Z</time>
      </trkpt>
      <trkpt lat="45.07549" lon="2.73962">
        <ele>1300.8</ele>
        <time>2015-06-11T06:50:01Z</time>
      </trkpt>
      <trkpt lat="45.0755" lon="2.73966">
        <ele>1303.69</ele>
        <time>2015-06-11T06:50:11Z</time>
      </trkpt>
      <trkpt lat="45.07552" lon="2.73974">
        <ele>1308.01</ele>
        <time>2015-06-11T06:50:26Z</time>
      </trkpt>
      <trkpt lat="45.07551" lon="2.73984">
        <ele>1309.93</ele>
        <time>2015-06-11T06:50:41Z</time>
      </trkpt>
      <trkpt lat="45.07548" lon="2.73984">
        <ele>1312.34</ele>
        <time>2015-06-11T06:51:03Z</time>
      </trkpt>
      <trkpt lat="45.07548" lon="2.73987">
        <ele>1314.74</ele>
        <time>2015-06-11T06:51:27Z</time>
      </trkpt>
      <trkpt lat="45.07548" lon="2.73989">
        <ele>1314.26</ele>
        <time>2015-06-11T06:51:45Z</time>
      </trkpt>
      <trkpt lat="45.07551" lon="2.74001">
        <ele>1313.3</ele>
        <time>2015-06-11T06:52:01Z</time>
      </trkpt>
      <trkpt lat="45.07551" lon="2.74003">
        <ele>1313.3</ele>
        <time>2015-06-11T06:52:02Z</time>
      </trkpt>
      <trkpt lat="45.07554" lon="2.74018">
        <ele>1313.3</ele>
        <time>2015-06-11T06:52:09Z</time>
      </trkpt>
      <trkpt lat="45.07557" lon="2.74028">
        <ele>1311.38</ele>
        <time>2015-06-11T06:52:15Z</time>
      </trkpt>
      <trkpt lat="45.07559" lon="2.74042">
        <ele>1309.45</ele>
        <time>2015-06-11T06:52:23Z</time>
      </trkpt>
      <trkpt lat="45.07559" lon="2.74059">
        <ele>1311.86</ele>
        <time>2015-06-11T06:52:34Z</time>
      </trkpt>
      <trkpt lat="45.0756" lon="2.74062">
        <ele>1311.86</ele>
        <time>2015-06-11T06:52:36Z</time>
      </trkpt>
      <trkpt lat="45.07563" lon="2.74068">
        <ele>1311.38</ele>
        <time>2015-06-11T06:52:40Z</time>
      </trkpt>
      <trkpt lat="45.07571" lon="2.74084">
        <ele>1311.86</ele>
        <time>2015-06-11T06:52:53Z</time>
      </trkpt>
      <trkpt lat="45.07578" lon="2.74098">
        <ele>1313.3</ele>
        <time>2015-06-11T06:53:04Z</time>
      </trkpt>
      <trkpt lat="45.07587" lon="2.74112">
        <ele>1313.78</ele>
        <time>2015-06-11T06:53:18Z</time>
      </trkpt>
      <trkpt lat="45.076" lon="2.74118">
        <ele>1315.22</ele>
        <time>2015-06-11T06:53:33Z</time>
      </trkpt>
      <trkpt lat="45.07614" lon="2.74124">
        <ele>1318.59</ele>
        <time>2015-06-11T06:53:46Z</time>
      </trkpt>
      <trkpt lat="45.07617" lon="2.74126">
        <ele>1318.59</ele>
        <time>2015-06-11T06:54:04Z</time>
      </trkpt>
      <trkpt lat="45.07616" lon="2.7413">
        <ele>1318.1</ele>
        <time>2015-06-11T06:54:24Z</time>
      </trkpt>
      <trkpt lat="45.07606" lon="2.74142">
        <ele>1312.34</ele>
        <time>2015-06-11T06:54:40Z</time>
      </trkpt>
      <trkpt lat="45.07602" lon="2.74148">
        <ele>1310.9</ele>
        <time>2015-06-11T06:54:48Z</time>
      </trkpt>
      <trkpt lat="45.07592" lon="2.74158">
        <ele>1310.41</ele>
        <time>2015-06-11T06:55:01Z</time>
      </trkpt>
      <trkpt lat="45.07591" lon="2.74164">
        <ele>1312.82</ele>
        <time>2015-06-11T06:55:10Z</time>
      </trkpt>
      <trkpt lat="45.07593" lon="2.74172">
        <ele>1319.55</ele>
        <time>2015-06-11T06:55:21Z</time>
      </trkpt>
      <trkpt lat="45.07594" lon="2.74175">
        <ele>1321.95</ele>
        <time>2015-06-11T06:55:33Z</time>
      </trkpt>
      <trkpt lat="45.076" lon="2.74179">
        <ele>1326.28</ele>
        <time>2015-06-11T06:55:45Z</time>
      </trkpt>
      <trkpt lat="45.07608" lon="2.74186">
        <ele>1331.56</ele>
        <time>2015-06-11T06:56:00Z</time>
      </trkpt>
      <trkpt lat="45.07619" lon="2.74199">
        <ele>1333.97</ele>
        <time>2015-06-11T06:56:14Z</time>
      </trkpt>
      <trkpt lat="45.07628" lon="2.7421">
        <ele>1333.97</ele>
        <time>2015-06-11T06:56:28Z</time>
      </trkpt>
      <trkpt lat="45.07628" lon="2.74221">
        <ele>1332.04</ele>
        <time>2015-06-11T06:56:39Z</time>
      </trkpt>
      <trkpt lat="45.07627" lon="2.74222">
        <ele>1332.52</ele>
        <time>2015-06-11T06:56:40Z</time>
      </trkpt>
      <trkpt lat="45.07621" lon="2.74234">
        <ele>1331.56</ele>
        <time>2015-06-11T06:56:53Z</time>
      </trkpt>
      <trkpt lat="45.07621" lon="2.74246">
        <ele>1335.41</ele>
        <time>2015-06-11T06:57:06Z</time>
      </trkpt>
      <trkpt lat="45.07617" lon="2.74255">
        <ele>1336.37</ele>
        <time>2015-06-11T06:57:18Z</time>
      </trkpt>
      <trkpt lat="45.07615" lon="2.74259">
        <ele>1337.33</ele>
        <time>2015-06-11T06:57:23Z</time>
      </trkpt>
      <trkpt lat="45.07617" lon="2.7427">
        <ele>1340.7</ele>
        <time>2015-06-11T06:57:37Z</time>
      </trkpt>
      <trkpt lat="45.07617" lon="2.7428">
        <ele>1344.54</ele>
        <time>2015-06-11T06:57:51Z</time>
      </trkpt>
      <trkpt lat="45.07619" lon="2.74297">
        <ele>1347.91</ele>
        <time>2015-06-11T06:58:06Z</time>
      </trkpt>
      <trkpt lat="45.07619" lon="2.74313">
        <ele>1349.35</ele>
        <time>2015-06-11T06:58:19Z</time>
      </trkpt>
      <trkpt lat="45.0762" lon="2.74333">
        <ele>1348.87</ele>
        <time>2015-06-11T06:58:32Z</time>
      </trkpt>
      <trkpt lat="45.07619" lon="2.74339">
        <ele>1348.39</ele>
        <time>2015-06-11T06:58:36Z</time>
      </trkpt>
      <trkpt lat="45.0762" lon="2.74351">
        <ele>1348.87</ele>
        <time>2015-06-11T06:58:46Z</time>
      </trkpt>
      <trkpt lat="45.0763" lon="2.74372">
        <ele>1348.87</ele>
        <time>2015-06-11T06:59:01Z</time>
      </trkpt>
      <trkpt lat="45.0763" lon="2.74384">
        <ele>1348.39</ele>
        <time>2015-06-11T06:59:12Z</time>
      </trkpt>
      <trkpt lat="45.07628" lon="2.744">
        <ele>1348.87</ele>
        <time>2015-06-11T06:59:26Z</time>
      </trkpt>
      <trkpt lat="45.07624" lon="2.74417">
        <ele>1348.39</ele>
        <time>2015-06-11T06:59:39Z</time>
      </trkpt>
      <trkpt lat="45.07626" lon="2.74429">
        <ele>1349.83</ele>
        <time>2015-06-11T06:59:51Z</time>
      </trkpt>
      <trkpt lat="45.07627" lon="2.74431">
        <ele>1349.83</ele>
        <time>2015-06-11T06:59:58Z</time>
      </trkpt>
      <trkpt lat="45.07632" lon="2.74438">
        <ele>1350.79</ele>
        <time>2015-06-11T07:00:11Z</time>
      </trkpt>
      <trkpt lat="45.07631" lon="2.74438">
        <ele>1352.23</ele>
        <time>2015-06-11T07:00:38Z</time>
      </trkpt>
      <trkpt lat="45.07627" lon="2.74435">
        <ele>1353.19</ele>
        <time>2015-06-11T07:00:46Z</time>
      </trkpt>
      <trkpt lat="45.07614" lon="2.7443">
        <ele>1353.19</ele>
        <time>2015-06-11T07:01:00Z</time>
      </trkpt>
      <trkpt lat="45.07607" lon="2.74435">
        <ele>1353.19</ele>
        <time>2015-06-11T07:01:08Z</time>
      </trkpt>
      <trkpt lat="45.07602" lon="2.74443">
        <ele>1354.63</ele>
        <time>2015-06-11T07:01:21Z</time>
      </trkpt>
      <trkpt lat="45.07601" lon="2.74446">
        <ele>1357.04</ele>
        <time>2015-06-11T07:01:29Z</time>
      </trkpt>
      <trkpt lat="45.076" lon="2.74449">
        <ele>1357.52</ele>
        <time>2015-06-11T07:01:39Z</time>
      </trkpt>
      <trkpt lat="45.07601" lon="2.74456">
        <ele>1357.52</ele>
        <time>2015-06-11T07:01:51Z</time>
      </trkpt>
      <trkpt lat="45.076" lon="2.74468">
        <ele>1358.48</ele>
        <time>2015-06-11T07:02:02Z</time>
      </trkpt>
      <trkpt lat="45.076" lon="2.74469">
        <ele>1358.96</ele>
        <time>2015-06-11T07:02:04Z</time>
      </trkpt>
      <trkpt lat="45.076" lon="2.74484">
        <ele>1361.36</ele>
        <time>2015-06-11T07:02:18Z</time>
      </trkpt>
      <trkpt lat="45.07602" lon="2.74487">
        <ele>1361.36</ele>
        <time>2015-06-11T07:02:30Z</time>
      </trkpt>
      <trkpt lat="45.07609" lon="2.74495">
        <ele>1362.33</ele>
        <time>2015-06-11T07:02:44Z</time>
      </trkpt>
      <trkpt lat="45.07611" lon="2.74509">
        <ele>1361.84</ele>
        <time>2015-06-11T07:02:58Z</time>
      </trkpt>
      <trkpt lat="45.07615" lon="2.74523">
        <ele>1366.17</ele>
        <time>2015-06-11T07:03:12Z</time>
      </trkpt>
      <trkpt lat="45.07624" lon="2.74532">
        <ele>1369.05</ele>
        <time>2015-06-11T07:03:24Z</time>
      </trkpt>
      <trkpt lat="45.07629" lon="2.74536">
        <ele>1370.98</ele>
        <time>2015-06-11T07:03:30Z</time>
      </trkpt>
      <trkpt lat="45.07637" lon="2.7455">
        <ele>1373.86</ele>
        <time>2015-06-11T07:03:45Z</time>
      </trkpt>
      <trkpt lat="45.07643" lon="2.74567">
        <ele>1374.34</ele>
        <time>2015-06-11T07:04:01Z</time>
      </trkpt>
      <trkpt lat="45.07645" lon="2.74582">
        <ele>1373.86</ele>
        <time>2015-06-11T07:04:15Z</time>
      </trkpt>
      <trkpt lat="45.07646" lon="2.74596">
        <ele>1374.34</ele>
        <time>2015-06-11T07:04:28Z</time>
      </trkpt>
      <trkpt lat="45.07649" lon="2.74602">
        <ele>1373.86</ele>
        <time>2015-06-11T07:04:44Z</time>
      </trkpt>
      <trkpt lat="45.0765" lon="2.74604">
        <ele>1372.9</ele>
        <time>2015-06-11T07:05:04Z</time>
      </trkpt>
      <trkpt lat="45.0765" lon="2.74605">
        <ele>1372.42</ele>
        <time>2015-06-11T07:05:30Z</time>
      </trkpt>
      <trkpt lat="45.0765" lon="2.74606">
        <ele>1372.42</ele>
        <time>2015-06-11T07:05:51Z</time>
      </trkpt>
      <trkpt lat="45.0765" lon="2.74618">
        <ele>1371.46</ele>
        <time>2015-06-11T07:06:03Z</time>
      </trkpt>
      <trkpt lat="45.07649" lon="2.74622">
        <ele>1371.94</ele>
        <time>2015-06-11T07:06:26Z</time>
      </trkpt>
      <trkpt lat="45.07648" lon="2.74627">
        <ele>1371.94</ele>
        <time>2015-06-11T07:06:30Z</time>
      </trkpt>
      <trkpt lat="45.07645" lon="2.74634">
        <ele>1370.98</ele>
        <time>2015-06-11T07:06:36Z</time>
      </trkpt>
      <trkpt lat="45.07644" lon="2.74644">
        <ele>1370.02</ele>
        <time>2015-06-11T07:06:47Z</time>
      </trkpt>
      <trkpt lat="45.07643" lon="2.74649">
        <ele>1369.54</ele>
        <time>2015-06-11T07:06:51Z</time>
      </trkpt>
      <trkpt lat="45.07636" lon="2.74657">
        <ele>1368.57</ele>
        <time>2015-06-11T07:07:03Z</time>
      </trkpt>
      <trkpt lat="45.07632" lon="2.7466">
        <ele>1369.05</ele>
        <time>2015-06-11T07:07:16Z</time>
      </trkpt>
      <trkpt lat="45.07624" lon="2.74671">
        <ele>1370.98</ele>
        <time>2015-06-11T07:07:31Z</time>
      </trkpt>
      <trkpt lat="45.07617" lon="2.74676">
        <ele>1371.46</ele>
        <time>2015-06-11T07:07:42Z</time>
      </trkpt>
      <trkpt lat="45.07614" lon="2.74681">
        <ele>1371.94</ele>
        <time>2015-06-11T07:07:46Z</time>
      </trkpt>
      <trkpt lat="45.07611" lon="2.7469">
        <ele>1372.42</ele>
        <time>2015-06-11T07:08:00Z</time>
      </trkpt>
      <trkpt lat="45.07605" lon="2.74697">
        <ele>1372.9</ele>
        <time>2015-06-11T07:08:19Z</time>
      </trkpt>
      <trkpt lat="45.07598" lon="2.74704">
        <ele>1370.98</ele>
        <time>2015-06-11T07:08:30Z</time>
      </trkpt>
      <trkpt lat="45.07589" lon="2.74714">
        <ele>1368.57</ele>
        <time>2015-06-11T07:08:43Z</time>
      </trkpt>
      <trkpt lat="45.07579" lon="2.74725">
        <ele>1368.57</ele>
        <time>2015-06-11T07:08:55Z</time>
      </trkpt>
      <trkpt lat="45.07573" lon="2.74733">
        <ele>1370.02</ele>
        <time>2015-06-11T07:09:07Z</time>
      </trkpt>
      <trkpt lat="45.07556" lon="2.74744">
        <ele>1371.46</ele>
        <time>2015-06-11T07:09:20Z</time>
      </trkpt>
      <trkpt lat="45.07544" lon="2.7474">
        <ele>1370.02</ele>
        <time>2015-06-11T07:09:34Z</time>
      </trkpt>
      <trkpt lat="45.0753" lon="2.74746">
        <ele>1371.46</ele>
        <time>2015-06-11T07:09:47Z</time>
      </trkpt>
      <trkpt lat="45.07519" lon="2.74746">
        <ele>1371.94</ele>
        <time>2015-06-11T07:10:01Z</time>
      </trkpt>
      <trkpt lat="45.07519" lon="2.74749">
        <ele>1373.38</ele>
        <time>2015-06-11T07:10:14Z</time>
      </trkpt>
      <trkpt lat="45.07519" lon="2.74749">
        <ele>1373.86</ele>
        <time>2015-06-11T07:10:33Z</time>
      </trkpt>
      <trkpt lat="45.07519" lon="2.74752">
        <ele>1373.86</ele>
        <time>2015-06-11T07:10:45Z</time>
      </trkpt>
      <trkpt lat="45.07518" lon="2.74752">
        <ele>1373.86</ele>
        <time>2015-06-11T07:10:48Z</time>
      </trkpt>
      <trkpt lat="45.07513" lon="2.74756">
        <ele>1373.86</ele>
        <time>2015-06-11T07:10:59Z</time>
      </trkpt>
      <trkpt lat="45.0751" lon="2.7476">
        <ele>1371.94</ele>
        <time>2015-06-11T07:11:10Z</time>
      </trkpt>
      <trkpt lat="45.075" lon="2.74762">
        <ele>1369.05</ele>
        <time>2015-06-11T07:11:23Z</time>
      </trkpt>
      <trkpt lat="45.07491" lon="2.74766">
        <ele>1368.57</ele>
        <time>2015-06-11T07:11:34Z</time>
      </trkpt>
      <trkpt lat="45.07485" lon="2.74766">
        <ele>1367.61</ele>
        <time>2015-06-11T07:11:48Z</time>
      </trkpt>
      <trkpt lat="45.0748" lon="2.74763">
        <ele>1367.61</ele>
        <time>2015-06-11T07:12:02Z</time>
      </trkpt>
      <trkpt lat="45.07481" lon="2.74763">
        <ele>1368.57</ele>
        <time>2015-06-11T07:12:17Z</time>
      </trkpt>
      <trkpt lat="45.0748" lon="2.74764">
        <ele>1368.57</ele>
        <time>2015-06-11T07:12:44Z</time>
      </trkpt>
      <trkpt lat="45.07475" lon="2.74766">
        <ele>1367.61</ele>
        <time>2015-06-11T07:12:57Z</time>
      </trkpt>
      <trkpt lat="45.07472" lon="2.74775">
        <ele>1367.13</ele>
        <time>2015-06-11T07:13:09Z</time>
      </trkpt>
      <trkpt lat="45.07473" lon="2.74777">
        <ele>1366.65</ele>
        <time>2015-06-11T07:13:11Z</time>
      </trkpt>
      <trkpt lat="45.0748" lon="2.74784">
        <ele>1363.77</ele>
        <time>2015-06-11T07:13:19Z</time>
      </trkpt>
      <trkpt lat="45.07482" lon="2.74791">
        <ele>1360.88</ele>
        <time>2015-06-11T07:13:31Z</time>
      </trkpt>
      <trkpt lat="45.07482" lon="2.74792">
        <ele>1361.36</ele>
        <time>2015-06-11T07:13:35Z</time>
      </trkpt>
      <trkpt lat="45.07484" lon="2.74799">
        <ele>1360.4</ele>
        <time>2015-06-11T07:13:41Z</time>
      </trkpt>
      <trkpt lat="45.07485" lon="2.74805">
        <ele>1359.44</ele>
        <time>2015-06-11T07:13:45Z</time>
      </trkpt>
      <trkpt lat="45.07482" lon="2.74815">
        <ele>1358</ele>
        <time>2015-06-11T07:13:53Z</time>
      </trkpt>
      <trkpt lat="45.0748" lon="2.74828">
        <ele>1357.04</ele>
        <time>2015-06-11T07:14:08Z</time>
      </trkpt>
      <trkpt lat="45.07481" lon="2.74824">
        <ele>1356.56</ele>
        <time>2015-06-11T07:14:22Z</time>
      </trkpt>
      <trkpt lat="45.07483" lon="2.74829">
        <ele>1357.04</ele>
        <time>2015-06-11T07:14:26Z</time>
      </trkpt>
      <trkpt lat="45.07488" lon="2.74843">
        <ele>1355.6</ele>
        <time>2015-06-11T07:14:38Z</time>
      </trkpt>
      <trkpt lat="45.07488" lon="2.74845">
        <ele>1354.63</ele>
        <time>2015-06-11T07:14:41Z</time>
      </trkpt>
      <trkpt lat="45.0749" lon="2.74848">
        <ele>1354.15</ele>
        <time>2015-06-11T07:14:44Z</time>
      </trkpt>
      <trkpt lat="45.07493" lon="2.74859">
        <ele>1356.56</ele>
        <time>2015-06-11T07:14:51Z</time>
      </trkpt>
      <trkpt lat="45.075" lon="2.7487">
        <ele>1358</ele>
        <time>2015-06-11T07:15:02Z</time>
      </trkpt>
      <trkpt lat="45.07501" lon="2.74871">
        <ele>1358</ele>
        <time>2015-06-11T07:15:03Z</time>
      </trkpt>
      <trkpt lat="45.07499" lon="2.74874">
        <ele>1358</ele>
        <time>2015-06-11T07:15:06Z</time>
      </trkpt>
      <trkpt lat="45.07499" lon="2.7488">
        <ele>1358.48</ele>
        <time>2015-06-11T07:15:10Z</time>
      </trkpt>
      <trkpt lat="45.07501" lon="2.74883">
        <ele>1358.48</ele>
        <time>2015-06-11T07:15:12Z</time>
      </trkpt>
      <trkpt lat="45.07503" lon="2.7489">
        <ele>1357.52</ele>
        <time>2015-06-11T07:15:17Z</time>
      </trkpt>
      <trkpt lat="45.07505" lon="2.74894">
        <ele>1357.52</ele>
        <time>2015-06-11T07:15:20Z</time>
      </trkpt>
      <trkpt lat="45.07507" lon="2.74906">
        <ele>1356.56</ele>
        <time>2015-06-11T07:15:33Z</time>
      </trkpt>
      <trkpt lat="45.07506" lon="2.7492">
        <ele>1355.6</ele>
        <time>2015-06-11T07:15:47Z</time>
      </trkpt>
      <trkpt lat="45.07506" lon="2.74932">
        <ele>1353.19</ele>
        <time>2015-06-11T07:16:01Z</time>
      </trkpt>
      <trkpt lat="45.07504" lon="2.74939">
        <ele>1355.6</ele>
        <time>2015-06-11T07:16:11Z</time>
      </trkpt>
      <trkpt lat="45.07498" lon="2.74953">
        <ele>1358</ele>
        <time>2015-06-11T07:16:27Z</time>
      </trkpt>
      <trkpt lat="45.07489" lon="2.74961">
        <ele>1361.84</ele>
        <time>2015-06-11T07:16:41Z</time>
      </trkpt>
      <trkpt lat="45.07484" lon="2.74963">
        <ele>1364.73</ele>
        <time>2015-06-11T07:16:55Z</time>
      </trkpt>
      <trkpt lat="45.07474" lon="2.74967">
        <ele>1365.21</ele>
        <time>2015-06-11T07:17:07Z</time>
      </trkpt>
      <trkpt lat="45.07465" lon="2.74976">
        <ele>1363.29</ele>
        <time>2015-06-11T07:17:22Z</time>
      </trkpt>
      <trkpt lat="45.07462" lon="2.7498">
        <ele>1364.73</ele>
        <time>2015-06-11T07:17:34Z</time>
      </trkpt>
      <trkpt lat="45.07456" lon="2.74987">
        <ele>1368.57</ele>
        <time>2015-06-11T07:17:49Z</time>
      </trkpt>
      <trkpt lat="45.07451" lon="2.74995">
        <ele>1369.05</ele>
        <time>2015-06-11T07:18:03Z</time>
      </trkpt>
      <trkpt lat="45.07445" lon="2.75003">
        <ele>1371.46</ele>
        <time>2015-06-11T07:18:15Z</time>
      </trkpt>
      <trkpt lat="45.0744" lon="2.7501">
        <ele>1373.86</ele>
        <time>2015-06-11T07:18:29Z</time>
      </trkpt>
      <trkpt lat="45.07434" lon="2.75018">
        <ele>1376.75</ele>
        <time>2015-06-11T07:18:44Z</time>
      </trkpt>
      <trkpt lat="45.07429" lon="2.75026">
        <ele>1380.59</ele>
        <time>2015-06-11T07:18:58Z</time>
      </trkpt>
      <trkpt lat="45.07429" lon="2.75025">
        <ele>1382.99</ele>
        <time>2015-06-11T07:19:10Z</time>
      </trkpt>
      <trkpt lat="45.07423" lon="2.75028">
        <ele>1383.47</ele>
        <time>2015-06-11T07:19:17Z</time>
      </trkpt>
      <trkpt lat="45.0742" lon="2.75026">
        <ele>1383.47</ele>
        <time>2015-06-11T07:19:22Z</time>
      </trkpt>
      <trkpt lat="45.07412" lon="2.75021">
        <ele>1386.36</ele>
        <time>2015-06-11T07:19:35Z</time>
      </trkpt>
      <trkpt lat="45.07414" lon="2.7502">
        <ele>1390.2</ele>
        <time>2015-06-11T07:19:55Z</time>
      </trkpt>
      <trkpt lat="45.07414" lon="2.75021">
        <ele>1393.09</ele>
        <time>2015-06-11T07:20:25Z</time>
      </trkpt>
      <trkpt lat="45.07414" lon="2.75021">
        <ele>1394.05</ele>
        <time>2015-06-11T07:20:54Z</time>
      </trkpt>
      <trkpt lat="45.07413" lon="2.7502">
        <ele>1394.53</ele>
        <time>2015-06-11T07:21:14Z</time>
      </trkpt>
      <trkpt lat="45.07405" lon="2.75006">
        <ele>1395.01</ele>
        <time>2015-06-11T07:21:28Z</time>
      </trkpt>
      <trkpt lat="45.07401" lon="2.75">
        <ele>1396.45</ele>
        <time>2015-06-11T07:21:41Z</time>
      </trkpt>
      <trkpt lat="45.07401" lon="2.74999">
        <ele>1397.41</ele>
        <time>2015-06-11T07:22:12Z</time>
      </trkpt>
      <trkpt lat="45.074" lon="2.74999">
        <ele>1397.89</ele>
        <time>2015-06-11T07:22:34Z</time>
      </trkpt>
      <trkpt lat="45.07399" lon="2.74997">
        <ele>1398.37</ele>
        <time>2015-06-11T07:22:49Z</time>
      </trkpt>
      <trkpt lat="45.07392" lon="2.74986">
        <ele>1399.82</ele>
        <time>2015-06-11T07:23:00Z</time>
      </trkpt>
      <trkpt lat="45.07385" lon="2.74976">
        <ele>1400.3</ele>
        <time>2015-06-11T07:23:13Z</time>
      </trkpt>
      <trkpt lat="45.07383" lon="2.74974">
        <ele>1401.26</ele>
        <time>2015-06-11T07:23:16Z</time>
      </trkpt>
      <trkpt lat="45.07375" lon="2.74963">
        <ele>1403.18</ele>
        <time>2015-06-11T07:23:31Z</time>
      </trkpt>
      <trkpt lat="45.07367" lon="2.74954">
        <ele>1403.66</ele>
        <time>2015-06-11T07:23:44Z</time>
      </trkpt>
      <trkpt lat="45.07363" lon="2.74953">
        <ele>1404.62</ele>
        <time>2015-06-11T07:23:49Z</time>
      </trkpt>
      <trkpt lat="45.07355" lon="2.74948">
        <ele>1406.07</ele>
        <time>2015-06-11T07:24:03Z</time>
      </trkpt>
      <trkpt lat="45.07348" lon="2.74939">
        <ele>1407.51</ele>
        <time>2015-06-11T07:24:17Z</time>
      </trkpt>
      <trkpt lat="45.07339" lon="2.74938">
        <ele>1410.87</ele>
        <time>2015-06-11T07:24:30Z</time>
      </trkpt>
      <trkpt lat="45.07333" lon="2.74942">
        <ele>1413.28</ele>
        <time>2015-06-11T07:24:44Z</time>
      </trkpt>
      <trkpt lat="45.07327" lon="2.74942">
        <ele>1414.72</ele>
        <time>2015-06-11T07:24:57Z</time>
      </trkpt>
      <trkpt lat="45.07326" lon="2.74943">
        <ele>1416.64</ele>
        <time>2015-06-11T07:25:13Z</time>
      </trkpt>
      <trkpt lat="45.07326" lon="2.74943">
        <ele>1416.64</ele>
        <time>2015-06-11T07:25:14Z</time>
      </trkpt>
      <trkpt lat="45.07322" lon="2.74947">
        <ele>1418.08</ele>
        <time>2015-06-11T07:25:26Z</time>
      </trkpt>
      <trkpt lat="45.07318" lon="2.74951">
        <ele>1418.56</ele>
        <time>2015-06-11T07:25:41Z</time>
      </trkpt>
      <trkpt lat="45.07307" lon="2.74957">
        <ele>1421.45</ele>
        <time>2015-06-11T07:25:55Z</time>
      </trkpt>
      <trkpt lat="45.07299" lon="2.74964">
        <ele>1423.85</ele>
        <time>2015-06-11T07:26:10Z</time>
      </trkpt>
      <trkpt lat="45.07288" lon="2.7497">
        <ele>1425.29</ele>
        <time>2015-06-11T07:26:25Z</time>
      </trkpt>
      <trkpt lat="45.07281" lon="2.74972">
        <ele>1428.18</ele>
        <time>2015-06-11T07:26:41Z</time>
      </trkpt>
      <trkpt lat="45.07274" lon="2.74978">
        <ele>1429.14</ele>
        <time>2015-06-11T07:26:56Z</time>
      </trkpt>
      <trkpt lat="45.07265" lon="2.74989">
        <ele>1431.54</ele>
        <time>2015-06-11T07:27:10Z</time>
      </trkpt>
      <trkpt lat="45.07264" lon="2.74991">
        <ele>1432.02</ele>
        <time>2015-06-11T07:27:12Z</time>
      </trkpt>
      <trkpt lat="45.0726" lon="2.74997">
        <ele>1432.02</ele>
        <time>2015-06-11T07:27:18Z</time>
      </trkpt>
      <trkpt lat="45.07252" lon="2.7501">
        <ele>1434.42</ele>
        <time>2015-06-11T07:27:33Z</time>
      </trkpt>
      <trkpt lat="45.07248" lon="2.75019">
        <ele>1436.83</ele>
        <time>2015-06-11T07:27:41Z</time>
      </trkpt>
      <trkpt lat="45.07244" lon="2.75023">
        <ele>1435.87</ele>
        <time>2015-06-11T07:27:47Z</time>
      </trkpt>
      <trkpt lat="45.07233" lon="2.75036">
        <ele>1438.27</ele>
        <time>2015-06-11T07:28:02Z</time>
      </trkpt>
      <trkpt lat="45.07227" lon="2.7505">
        <ele>1438.27</ele>
        <time>2015-06-11T07:28:16Z</time>
      </trkpt>
      <trkpt lat="45.07219" lon="2.75063">
        <ele>1435.87</ele>
        <time>2015-06-11T07:28:28Z</time>
      </trkpt>
      <trkpt lat="45.07212" lon="2.75067">
        <ele>1433.94</ele>
        <time>2015-06-11T07:28:38Z</time>
      </trkpt>
      <trkpt lat="45.07207" lon="2.75066">
        <ele>1432.98</ele>
        <time>2015-06-11T07:28:43Z</time>
      </trkpt>
      <trkpt lat="45.07193" lon="2.7507">
        <ele>1432.98</ele>
        <time>2015-06-11T07:28:55Z</time>
      </trkpt>
      <trkpt lat="45.07191" lon="2.75069">
        <ele>1433.46</ele>
        <time>2015-06-11T07:28:57Z</time>
      </trkpt>
      <trkpt lat="45.07188" lon="2.7507">
        <ele>1433.46</ele>
        <time>2015-06-11T07:28:59Z</time>
      </trkpt>
      <trkpt lat="45.07181" lon="2.7507">
        <ele>1433.94</ele>
        <time>2015-06-11T07:29:04Z</time>
      </trkpt>
      <trkpt lat="45.07179" lon="2.75069">
        <ele>1433.94</ele>
        <time>2015-06-11T07:29:06Z</time>
      </trkpt>
      <trkpt lat="45.07162" lon="2.75067">
        <ele>1435.87</ele>
        <time>2015-06-11T07:29:19Z</time>
      </trkpt>
      <trkpt lat="45.07161" lon="2.75066">
        <ele>1435.87</ele>
        <time>2015-06-11T07:29:20Z</time>
      </trkpt>
      <trkpt lat="45.07158" lon="2.75067">
        <ele>1435.39</ele>
        <time>2015-06-11T07:29:22Z</time>
      </trkpt>
      <trkpt lat="45.07144" lon="2.75065">
        <ele>1434.42</ele>
        <time>2015-06-11T07:29:35Z</time>
      </trkpt>
      <trkpt lat="45.07136" lon="2.75062">
        <ele>1436.35</ele>
        <time>2015-06-11T07:29:43Z</time>
      </trkpt>
      <trkpt lat="45.07124" lon="2.75066">
        <ele>1437.31</ele>
        <time>2015-06-11T07:29:55Z</time>
      </trkpt>
      <trkpt lat="45.07116" lon="2.75067">
        <ele>1437.31</ele>
        <time>2015-06-11T07:30:04Z</time>
      </trkpt>
      <trkpt lat="45.0711" lon="2.75064">
        <ele>1438.75</ele>
        <time>2015-06-11T07:30:18Z</time>
      </trkpt>
      <trkpt lat="45.07109" lon="2.75064">
        <ele>1438.75</ele>
        <time>2015-06-11T07:30:20Z</time>
      </trkpt>
      <trkpt lat="45.07105" lon="2.7507">
        <ele>1438.27</ele>
        <time>2015-06-11T07:30:28Z</time>
      </trkpt>
      <trkpt lat="45.07096" lon="2.75084">
        <ele>1434.91</ele>
        <time>2015-06-11T07:30:40Z</time>
      </trkpt>
      <trkpt lat="45.07089" lon="2.75091">
        <ele>1433.46</ele>
        <time>2015-06-11T07:30:48Z</time>
      </trkpt>
      <trkpt lat="45.07087" lon="2.75096">
        <ele>1433.46</ele>
        <time>2015-06-11T07:30:51Z</time>
      </trkpt>
      <trkpt lat="45.07086" lon="2.751">
        <ele>1433.46</ele>
        <time>2015-06-11T07:30:53Z</time>
      </trkpt>
      <trkpt lat="45.0708" lon="2.75108">
        <ele>1433.94</ele>
        <time>2015-06-11T07:30:59Z</time>
      </trkpt>
      <trkpt lat="45.07061" lon="2.75107">
        <ele>1435.39</ele>
        <time>2015-06-11T07:31:14Z</time>
      </trkpt>
      <trkpt lat="45.07052" lon="2.75102">
        <ele>1435.39</ele>
        <time>2015-06-11T07:31:22Z</time>
      </trkpt>
      <trkpt lat="45.07047" lon="2.75101">
        <ele>1436.35</ele>
        <time>2015-06-11T07:31:26Z</time>
      </trkpt>
      <trkpt lat="45.07045" lon="2.75099">
        <ele>1435.87</ele>
        <time>2015-06-11T07:31:28Z</time>
      </trkpt>
      <trkpt lat="45.07035" lon="2.75093">
        <ele>1435.87</ele>
        <time>2015-06-11T07:31:37Z</time>
      </trkpt>
      <trkpt lat="45.07025" lon="2.7509">
        <ele>1435.87</ele>
        <time>2015-06-11T07:31:50Z</time>
      </trkpt>
      <trkpt lat="45.07024" lon="2.75091">
        <ele>1436.35</ele>
        <time>2015-06-11T07:31:55Z</time>
      </trkpt>
      <trkpt lat="45.07016" lon="2.75087">
        <ele>1437.31</ele>
        <time>2015-06-11T07:32:06Z</time>
      </trkpt>
      <trkpt lat="45.07013" lon="2.75085">
        <ele>1436.83</ele>
        <time>2015-06-11T07:32:10Z</time>
      </trkpt>
      <trkpt lat="45.07003" lon="2.75081">
        <ele>1435.39</ele>
        <time>2015-06-11T07:32:19Z</time>
      </trkpt>
      <trkpt lat="45.07002" lon="2.75077">
        <ele>1434.91</ele>
        <time>2015-06-11T07:32:22Z</time>
      </trkpt>
      <trkpt lat="45.07" lon="2.75075">
        <ele>1433.46</ele>
        <time>2015-06-11T07:32:27Z</time>
      </trkpt>
      <trkpt lat="45.06997" lon="2.75077">
        <ele>1432.98</ele>
        <time>2015-06-11T07:32:37Z</time>
      </trkpt>
      <trkpt lat="45.06998" lon="2.75076">
        <ele>1432.98</ele>
        <time>2015-06-11T07:32:41Z</time>
      </trkpt>
      <trkpt lat="45.07002" lon="2.75072">
        <ele>1433.94</ele>
        <time>2015-06-11T07:32:46Z</time>
      </trkpt>
      <trkpt lat="45.07002" lon="2.75069">
        <ele>1433.94</ele>
        <time>2015-06-11T07:32:48Z</time>
      </trkpt>
      <trkpt lat="45.07003" lon="2.75065">
        <ele>1433.94</ele>
        <time>2015-06-11T07:32:51Z</time>
      </trkpt>
      <trkpt lat="45.07002" lon="2.7506">
        <ele>1434.42</ele>
        <time>2015-06-11T07:33:04Z</time>
      </trkpt>
      <trkpt lat="45.07" lon="2.75063">
        <ele>1433.46</ele>
        <time>2015-06-11T07:33:19Z</time>
      </trkpt>
      <trkpt lat="45.06999" lon="2.75063">
        <ele>1432.5</ele>
        <time>2015-06-11T07:33:38Z</time>
      </trkpt>
      <trkpt lat="45.06999" lon="2.75054">
        <ele>1434.42</ele>
        <time>2015-06-11T07:33:51Z</time>
      </trkpt>
      <trkpt lat="45.07" lon="2.75045">
        <ele>1436.83</ele>
        <time>2015-06-11T07:33:59Z</time>
      </trkpt>
      <trkpt lat="45.07001" lon="2.75035">
        <ele>1438.27</ele>
        <time>2015-06-11T07:34:12Z</time>
      </trkpt>
      <trkpt lat="45.07003" lon="2.75029">
        <ele>1434.91</ele>
        <time>2015-06-11T07:34:30Z</time>
      </trkpt>
      <trkpt lat="45.07003" lon="2.75026">
        <ele>1433.94</ele>
        <time>2015-06-11T07:34:45Z</time>
      </trkpt>
      <trkpt lat="45.07004" lon="2.75024">
        <ele>1433.46</ele>
        <time>2015-06-11T07:34:47Z</time>
      </trkpt>
      <trkpt lat="45.07007" lon="2.75007">
        <ele>1431.06</ele>
        <time>2015-06-11T07:34:59Z</time>
      </trkpt>
      <trkpt lat="45.07009" lon="2.74992">
        <ele>1426.73</ele>
        <time>2015-06-11T07:35:11Z</time>
      </trkpt>
      <trkpt lat="45.07009" lon="2.74991">
        <ele>1426.73</ele>
        <time>2015-06-11T07:35:12Z</time>
      </trkpt>
      <trkpt lat="45.07009" lon="2.74973">
        <ele>1426.25</ele>
        <time>2015-06-11T07:35:23Z</time>
      </trkpt>
      <trkpt lat="45.07009" lon="2.7497">
        <ele>1426.25</ele>
        <time>2015-06-11T07:35:25Z</time>
      </trkpt>
      <trkpt lat="45.0701" lon="2.74964">
        <ele>1425.29</ele>
        <time>2015-06-11T07:35:29Z</time>
      </trkpt>
      <trkpt lat="45.0701" lon="2.74957">
        <ele>1425.29</ele>
        <time>2015-06-11T07:35:34Z</time>
      </trkpt>
      <trkpt lat="45.07015" lon="2.74944">
        <ele>1424.81</ele>
        <time>2015-06-11T07:35:49Z</time>
      </trkpt>
      <trkpt lat="45.0702" lon="2.74944">
        <ele>1423.85</ele>
        <time>2015-06-11T07:35:56Z</time>
      </trkpt>
      <trkpt lat="45.07024" lon="2.74943">
        <ele>1424.81</ele>
        <time>2015-06-11T07:36:08Z</time>
      </trkpt>
      <trkpt lat="45.07025" lon="2.74941">
        <ele>1425.29</ele>
        <time>2015-06-11T07:36:16Z</time>
      </trkpt>
      <trkpt lat="45.07029" lon="2.74938">
        <ele>1425.77</ele>
        <time>2015-06-11T07:36:28Z</time>
      </trkpt>
      <trkpt lat="45.07031" lon="2.74936">
        <ele>1425.77</ele>
        <time>2015-06-11T07:36:42Z</time>
      </trkpt>
      <trkpt lat="45.07033" lon="2.74933">
        <ele>1426.73</ele>
        <time>2015-06-11T07:36:54Z</time>
      </trkpt>
      <trkpt lat="45.07033" lon="2.74923">
        <ele>1425.77</ele>
        <time>2015-06-11T07:37:08Z</time>
      </trkpt>
      <trkpt lat="45.07032" lon="2.74917">
        <ele>1425.77</ele>
        <time>2015-06-11T07:37:21Z</time>
      </trkpt>
      <trkpt lat="45.07034" lon="2.74908">
        <ele>1426.25</ele>
        <time>2015-06-11T07:37:32Z</time>
      </trkpt>
      <trkpt lat="45.07035" lon="2.749">
        <ele>1425.77</ele>
        <time>2015-06-11T07:37:39Z</time>
      </trkpt>
      <trkpt lat="45.07035" lon="2.74898">
        <ele>1426.25</ele>
        <time>2015-06-11T07:37:41Z</time>
      </trkpt>
      <trkpt lat="45.07035" lon="2.74893">
        <ele>1425.77</ele>
        <time>2015-06-11T07:37:48Z</time>
      </trkpt>
      <trkpt lat="45.07038" lon="2.74881">
        <ele>1424.81</ele>
        <time>2015-06-11T07:37:56Z</time>
      </trkpt>
      <trkpt lat="45.07039" lon="2.74877">
        <ele>1423.85</ele>
        <time>2015-06-11T07:37:59Z</time>
      </trkpt>
      <trkpt lat="45.0704" lon="2.74853">
        <ele>1421.93</ele>
        <time>2015-06-11T07:38:14Z</time>
      </trkpt>
      <trkpt lat="45.0704" lon="2.7484">
        <ele>1420</ele>
        <time>2015-06-11T07:38:22Z</time>
      </trkpt>
      <trkpt lat="45.0704" lon="2.74834">
        <ele>1419.52</ele>
        <time>2015-06-11T07:38:26Z</time>
      </trkpt>
      <trkpt lat="45.07028" lon="2.7482">
        <ele>1416.64</ele>
        <time>2015-06-11T07:38:39Z</time>
      </trkpt>
      <trkpt lat="45.07025" lon="2.74816">
        <ele>1416.16</ele>
        <time>2015-06-11T07:38:50Z</time>
      </trkpt>
      <trkpt lat="45.07028" lon="2.74812">
        <ele>1415.68</ele>
        <time>2015-06-11T07:39:04Z</time>
      </trkpt>
      <trkpt lat="45.07035" lon="2.74803">
        <ele>1416.16</ele>
        <time>2015-06-11T07:39:19Z</time>
      </trkpt>
      <trkpt lat="45.07028" lon="2.74799">
        <ele>1415.68</ele>
        <time>2015-06-11T07:39:35Z</time>
      </trkpt>
      <trkpt lat="45.07019" lon="2.74788">
        <ele>1415.2</ele>
        <time>2015-06-11T07:39:46Z</time>
      </trkpt>
      <trkpt lat="45.07011" lon="2.74772">
        <ele>1414.72</ele>
        <time>2015-06-11T07:40:00Z</time>
      </trkpt>
      <trkpt lat="45.07012" lon="2.74762">
        <ele>1413.76</ele>
        <time>2015-06-11T07:40:12Z</time>
      </trkpt>
      <trkpt lat="45.0701" lon="2.74758">
        <ele>1413.28</ele>
        <time>2015-06-11T07:40:26Z</time>
      </trkpt>
      <trkpt lat="45.07011" lon="2.7475">
        <ele>1411.83</ele>
        <time>2015-06-11T07:40:37Z</time>
      </trkpt>
      <trkpt lat="45.07012" lon="2.74747">
        <ele>1411.35</ele>
        <time>2015-06-11T07:40:39Z</time>
      </trkpt>
      <trkpt lat="45.07013" lon="2.74744">
        <ele>1410.87</ele>
        <time>2015-06-11T07:40:42Z</time>
      </trkpt>
      <trkpt lat="45.07013" lon="2.74737">
        <ele>1411.35</ele>
        <time>2015-06-11T07:40:53Z</time>
      </trkpt>
      <trkpt lat="45.0701" lon="2.74725">
        <ele>1411.35</ele>
        <time>2015-06-11T07:41:04Z</time>
      </trkpt>
      <trkpt lat="45.07004" lon="2.74712">
        <ele>1407.99</ele>
        <time>2015-06-11T07:41:18Z</time>
      </trkpt>
      <trkpt lat="45.06998" lon="2.74702">
        <ele>1408.47</ele>
        <time>2015-06-11T07:41:30Z</time>
      </trkpt>
      <trkpt lat="45.06995" lon="2.74688">
        <ele>1409.43</ele>
        <time>2015-06-11T07:41:43Z</time>
      </trkpt>
      <trkpt lat="45.06991" lon="2.74681">
        <ele>1410.39</ele>
        <time>2015-06-11T07:41:55Z</time>
      </trkpt>
      <trkpt lat="45.06992" lon="2.7467">
        <ele>1413.28</ele>
        <time>2015-06-11T07:42:07Z</time>
      </trkpt>
      <trkpt lat="45.06998" lon="2.74656">
        <ele>1413.76</ele>
        <time>2015-06-11T07:42:20Z</time>
      </trkpt>
      <trkpt lat="45.07007" lon="2.74637">
        <ele>1412.79</ele>
        <time>2015-06-11T07:42:35Z</time>
      </trkpt>
      <trkpt lat="45.07011" lon="2.74633">
        <ele>1412.79</ele>
        <time>2015-06-11T07:42:39Z</time>
      </trkpt>
      <trkpt lat="45.07014" lon="2.74628">
        <ele>1414.24</ele>
        <time>2015-06-11T07:42:43Z</time>
      </trkpt>
      <trkpt lat="45.07017" lon="2.74619">
        <ele>1414.24</ele>
        <time>2015-06-11T07:42:56Z</time>
      </trkpt>
      <trkpt lat="45.07011" lon="2.74619">
        <ele>1411.35</ele>
        <time>2015-06-11T07:43:09Z</time>
      </trkpt>
      <trkpt lat="45.07011" lon="2.74617">
        <ele>1411.35</ele>
        <time>2015-06-11T07:43:16Z</time>
      </trkpt>
      <trkpt lat="45.07012" lon="2.74613">
        <ele>1411.35</ele>
        <time>2015-06-11T07:43:28Z</time>
      </trkpt>
      <trkpt lat="45.07012" lon="2.74607">
        <ele>1411.83</ele>
        <time>2015-06-11T07:43:39Z</time>
      </trkpt>
      <trkpt lat="45.07013" lon="2.74604">
        <ele>1412.79</ele>
        <time>2015-06-11T07:43:54Z</time>
      </trkpt>
      <trkpt lat="45.07018" lon="2.74594">
        <ele>1413.28</ele>
        <time>2015-06-11T07:44:08Z</time>
      </trkpt>
      <trkpt lat="45.07026" lon="2.74584">
        <ele>1415.2</ele>
        <time>2015-06-11T07:44:20Z</time>
      </trkpt>
      <trkpt lat="45.0703" lon="2.74572">
        <ele>1416.64</ele>
        <time>2015-06-11T07:44:31Z</time>
      </trkpt>
      <trkpt lat="45.0703" lon="2.74563">
        <ele>1416.64</ele>
        <time>2015-06-11T07:44:37Z</time>
      </trkpt>
      <trkpt lat="45.07031" lon="2.74543">
        <ele>1418.08</ele>
        <time>2015-06-11T07:44:52Z</time>
      </trkpt>
      <trkpt lat="45.07032" lon="2.74525">
        <ele>1418.08</ele>
        <time>2015-06-11T07:45:04Z</time>
      </trkpt>
      <trkpt lat="45.07031" lon="2.74513">
        <ele>1416.64</ele>
        <time>2015-06-11T07:45:17Z</time>
      </trkpt>
      <trkpt lat="45.07028" lon="2.745">
        <ele>1415.68</ele>
        <time>2015-06-11T07:45:31Z</time>
      </trkpt>
      <trkpt lat="45.07031" lon="2.74482">
        <ele>1415.2</ele>
        <time>2015-06-11T07:45:46Z</time>
      </trkpt>
      <trkpt lat="45.07036" lon="2.74463">
        <ele>1420.49</ele>
        <time>2015-06-11T07:46:01Z</time>
      </trkpt>
      <trkpt lat="45.07037" lon="2.7445">
        <ele>1424.81</ele>
        <time>2015-06-11T07:46:14Z</time>
      </trkpt>
      <trkpt lat="45.07037" lon="2.74438">
        <ele>1425.29</ele>
        <time>2015-06-11T07:46:26Z</time>
      </trkpt>
      <trkpt lat="45.07034" lon="2.74421">
        <ele>1426.25</ele>
        <time>2015-06-11T07:46:42Z</time>
      </trkpt>
      <trkpt lat="45.07031" lon="2.74408">
        <ele>1429.62</ele>
        <time>2015-06-11T07:46:55Z</time>
      </trkpt>
      <trkpt lat="45.07029" lon="2.74403">
        <ele>1430.58</ele>
        <time>2015-06-11T07:47:08Z</time>
      </trkpt>
      <trkpt lat="45.0703" lon="2.74396">
        <ele>1432.02</ele>
        <time>2015-06-11T07:47:23Z</time>
      </trkpt>
      <trkpt lat="45.07029" lon="2.74395">
        <ele>1432.02</ele>
        <time>2015-06-11T07:47:39Z</time>
      </trkpt>
      <trkpt lat="45.07029" lon="2.74391">
        <ele>1430.1</ele>
        <time>2015-06-11T07:47:58Z</time>
      </trkpt>
      <trkpt lat="45.07026" lon="2.74389">
        <ele>1429.62</ele>
        <time>2015-06-11T07:48:11Z</time>
      </trkpt>
      <trkpt lat="45.07027" lon="2.74377">
        <ele>1427.7</ele>
        <time>2015-06-11T07:48:25Z</time>
      </trkpt>
      <trkpt lat="45.07018" lon="2.74363">
        <ele>1426.25</ele>
        <time>2015-06-11T07:48:40Z</time>
      </trkpt>
      <trkpt lat="45.07015" lon="2.74349">
        <ele>1427.21</ele>
        <time>2015-06-11T07:48:53Z</time>
      </trkpt>
      <trkpt lat="45.07013" lon="2.74334">
        <ele>1427.21</ele>
        <time>2015-06-11T07:49:03Z</time>
      </trkpt>
      <trkpt lat="45.07005" lon="2.7432">
        <ele>1428.18</ele>
        <time>2015-06-11T07:49:17Z</time>
      </trkpt>
      <trkpt lat="45.07006" lon="2.74307">
        <ele>1426.25</ele>
        <time>2015-06-11T07:49:29Z</time>
      </trkpt>
      <trkpt lat="45.07005" lon="2.74302">
        <ele>1424.33</ele>
        <time>2015-06-11T07:49:39Z</time>
      </trkpt>
      <trkpt lat="45.07005" lon="2.743">
        <ele>1424.33</ele>
        <time>2015-06-11T07:49:56Z</time>
      </trkpt>
      <trkpt lat="45.07004" lon="2.74303">
        <ele>1421.93</ele>
        <time>2015-06-11T07:50:11Z</time>
      </trkpt>
      <trkpt lat="45.07005" lon="2.74303">
        <ele>1422.41</ele>
        <time>2015-06-11T07:50:30Z</time>
      </trkpt>
      <trkpt lat="45.07003" lon="2.74293">
        <ele>1421.45</ele>
        <time>2015-06-11T07:50:40Z</time>
      </trkpt>
      <trkpt lat="45.07003" lon="2.74292">
        <ele>1420.97</ele>
        <time>2015-06-11T07:50:41Z</time>
      </trkpt>
      <trkpt lat="45.07005" lon="2.74284">
        <ele>1420.49</ele>
        <time>2015-06-11T07:50:47Z</time>
      </trkpt>
      <trkpt lat="45.07001" lon="2.74267">
        <ele>1420.49</ele>
        <time>2015-06-11T07:51:01Z</time>
      </trkpt>
      <trkpt lat="45.06999" lon="2.74255">
        <ele>1416.64</ele>
        <time>2015-06-11T07:51:13Z</time>
      </trkpt>
      <trkpt lat="45.07" lon="2.74253">
        <ele>1415.68</ele>
        <time>2015-06-11T07:51:20Z</time>
      </trkpt>
      <trkpt lat="45.06999" lon="2.74244">
        <ele>1416.64</ele>
        <time>2015-06-11T07:51:31Z</time>
      </trkpt>
      <trkpt lat="45.07" lon="2.7424">
        <ele>1415.68</ele>
        <time>2015-06-11T07:51:42Z</time>
      </trkpt>
      <trkpt lat="45.06998" lon="2.74232">
        <ele>1412.79</ele>
        <time>2015-06-11T07:51:55Z</time>
      </trkpt>
      <trkpt lat="45.06999" lon="2.7423">
        <ele>1411.83</ele>
        <time>2015-06-11T07:52:09Z</time>
      </trkpt>
      <trkpt lat="45.07001" lon="2.74224">
        <ele>1411.35</ele>
        <time>2015-06-11T07:52:24Z</time>
      </trkpt>
      <trkpt lat="45.06995" lon="2.74215">
        <ele>1410.39</ele>
        <time>2015-06-11T07:52:41Z</time>
      </trkpt>
      <trkpt lat="45.0699" lon="2.74205">
        <ele>1410.39</ele>
        <time>2015-06-11T07:52:55Z</time>
      </trkpt>
      <trkpt lat="45.06988" lon="2.74198">
        <ele>1409.43</ele>
        <time>2015-06-11T07:53:09Z</time>
      </trkpt>
      <trkpt lat="45.06986" lon="2.74188">
        <ele>1407.51</ele>
        <time>2015-06-11T07:53:24Z</time>
      </trkpt>
      <trkpt lat="45.06985" lon="2.74168">
        <ele>1403.66</ele>
        <time>2015-06-11T07:53:36Z</time>
      </trkpt>
      <trkpt lat="45.06985" lon="2.74157">
        <ele>1400.78</ele>
        <time>2015-06-11T07:53:49Z</time>
      </trkpt>
      <trkpt lat="45.06985" lon="2.74128">
        <ele>1395.49</ele>
        <time>2015-06-11T07:54:07Z</time>
      </trkpt>
      <trkpt lat="45.06988" lon="2.74108">
        <ele>1392.61</ele>
        <time>2015-06-11T07:54:23Z</time>
      </trkpt>
      <trkpt lat="45.06989" lon="2.74095">
        <ele>1392.61</ele>
        <time>2015-06-11T07:54:37Z</time>
      </trkpt>
      <trkpt lat="45.06986" lon="2.74091">
        <ele>1391.65</ele>
        <time>2015-06-11T07:54:54Z</time>
      </trkpt>
      <trkpt lat="45.06979" lon="2.74076">
        <ele>1389.72</ele>
        <time>2015-06-11T07:55:10Z</time>
      </trkpt>
      <trkpt lat="45.06972" lon="2.74067">
        <ele>1388.76</ele>
        <time>2015-06-11T07:55:24Z</time>
      </trkpt>
      <trkpt lat="45.06965" lon="2.7406">
        <ele>1387.8</ele>
        <time>2015-06-11T07:55:39Z</time>
      </trkpt>
      <trkpt lat="45.06962" lon="2.74058">
        <ele>1387.32</ele>
        <time>2015-06-11T07:55:55Z</time>
      </trkpt>
      <trkpt lat="45.06958" lon="2.74048">
        <ele>1383.96</ele>
        <time>2015-06-11T07:56:11Z</time>
      </trkpt>
      <trkpt lat="45.06956" lon="2.74044">
        <ele>1382.51</ele>
        <time>2015-06-11T07:56:28Z</time>
      </trkpt>
      <trkpt lat="45.06952" lon="2.74039">
        <ele>1380.59</ele>
        <time>2015-06-11T07:56:44Z</time>
      </trkpt>
      <trkpt lat="45.0695" lon="2.74034">
        <ele>1380.59</ele>
        <time>2015-06-11T07:56:59Z</time>
      </trkpt>
      <trkpt lat="45.06949" lon="2.7403">
        <ele>1379.63</ele>
        <time>2015-06-11T07:57:11Z</time>
      </trkpt>
      <trkpt lat="45.06948" lon="2.74028">
        <ele>1379.63</ele>
        <time>2015-06-11T07:57:25Z</time>
      </trkpt>
      <trkpt lat="45.06945" lon="2.74027">
        <ele>1378.19</ele>
        <time>2015-06-11T07:57:38Z</time>
      </trkpt>
      <trkpt lat="45.0694" lon="2.74012">
        <ele>1374.82</ele>
        <time>2015-06-11T07:57:54Z</time>
      </trkpt>
      <trkpt lat="45.06938" lon="2.74004">
        <ele>1373.38</ele>
        <time>2015-06-11T07:58:09Z</time>
      </trkpt>
      <trkpt lat="45.06935" lon="2.73998">
        <ele>1371.94</ele>
        <time>2015-06-11T07:58:26Z</time>
      </trkpt>
      <trkpt lat="45.06935" lon="2.73995">
        <ele>1370.5</ele>
        <time>2015-06-11T07:58:40Z</time>
      </trkpt>
      <trkpt lat="45.06934" lon="2.73994">
        <ele>1369.54</ele>
        <time>2015-06-11T07:58:56Z</time>
      </trkpt>
      <trkpt lat="45.06933" lon="2.73992">
        <ele>1368.57</ele>
        <time>2015-06-11T07:59:10Z</time>
      </trkpt>
      <trkpt lat="45.06928" lon="2.73977">
        <ele>1367.13</ele>
        <time>2015-06-11T07:59:22Z</time>
      </trkpt>
      <trkpt lat="45.06923" lon="2.73943">
        <ele>1359.92</ele>
        <time>2015-06-11T07:59:37Z</time>
      </trkpt>
      <trkpt lat="45.06917" lon="2.73924">
        <ele>1356.08</ele>
        <time>2015-06-11T07:59:48Z</time>
      </trkpt>
      <trkpt lat="45.06916" lon="2.73922">
        <ele>1356.08</ele>
        <time>2015-06-11T07:59:51Z</time>
      </trkpt>
      <trkpt lat="45.06913" lon="2.73919">
        <ele>1353.19</ele>
        <time>2015-06-11T08:00:04Z</time>
      </trkpt>
      <trkpt lat="45.06916" lon="2.73917">
        <ele>1346.94</ele>
        <time>2015-06-11T08:00:17Z</time>
      </trkpt>
      <trkpt lat="45.06913" lon="2.73905">
        <ele>1343.1</ele>
        <time>2015-06-11T08:00:27Z</time>
      </trkpt>
      <trkpt lat="45.06907" lon="2.73896">
        <ele>1340.22</ele>
        <time>2015-06-11T08:00:41Z</time>
      </trkpt>
      <trkpt lat="45.06898" lon="2.73893">
        <ele>1338.77</ele>
        <time>2015-06-11T08:00:53Z</time>
      </trkpt>
      <trkpt lat="45.06892" lon="2.73892">
        <ele>1337.81</ele>
        <time>2015-06-11T08:01:05Z</time>
      </trkpt>
      <trkpt lat="45.06893" lon="2.73889">
        <ele>1336.37</ele>
        <time>2015-06-11T08:01:19Z</time>
      </trkpt>
      <trkpt lat="45.06893" lon="2.73889">
        <ele>1335.89</ele>
        <time>2015-06-11T08:01:32Z</time>
      </trkpt>
      <trkpt lat="45.06893" lon="2.73888">
        <ele>1335.41</ele>
        <time>2015-06-11T08:02:03Z</time>
      </trkpt>
      <trkpt lat="45.06893" lon="2.73889">
        <ele>1335.41</ele>
        <time>2015-06-11T08:02:34Z</time>
      </trkpt>
      <trkpt lat="45.06894" lon="2.73889">
        <ele>1335.41</ele>
        <time>2015-06-11T08:02:58Z</time>
      </trkpt>
      <trkpt lat="45.06894" lon="2.73889">
        <ele>1335.41</ele>
        <time>2015-06-11T08:03:07Z</time>
      </trkpt>
      <trkpt lat="45.06894" lon="2.73889">
        <ele>1334.93</ele>
        <time>2015-06-11T08:03:21Z</time>
      </trkpt>
      <trkpt lat="45.06894" lon="2.73888">
        <ele>1334.45</ele>
        <time>2015-06-11T08:03:36Z</time>
      </trkpt>
      <trkpt lat="45.06895" lon="2.73888">
        <ele>1333.97</ele>
        <time>2015-06-11T08:03:51Z</time>
      </trkpt>
      <trkpt lat="45.06895" lon="2.7389">
        <ele>1333.01</ele>
        <time>2015-06-11T08:04:10Z</time>
      </trkpt>
      <trkpt lat="45.06894" lon="2.73889">
        <ele>1333.49</ele>
        <time>2015-06-11T08:04:32Z</time>
      </trkpt>
      <trkpt lat="45.06894" lon="2.73889">
        <ele>1333.97</ele>
        <time>2015-06-11T08:04:52Z</time>
      </trkpt>
      <trkpt lat="45.06894" lon="2.7389">
        <ele>1333.97</ele>
        <time>2015-06-11T08:04:58Z</time>
      </trkpt>
      <trkpt lat="45.06893" lon="2.73893">
        <ele>1333.49</ele>
        <time>2015-06-11T08:05:11Z</time>
      </trkpt>
      <trkpt lat="45.06893" lon="2.73892">
        <ele>1333.97</ele>
        <time>2015-06-11T08:05:34Z</time>
      </trkpt>
      <trkpt lat="45.06894" lon="2.73891">
        <ele>1333.97</ele>
        <time>2015-06-11T08:05:55Z</time>
      </trkpt>
      <trkpt lat="45.06894" lon="2.73889">
        <ele>1332.52</ele>
        <time>2015-06-11T08:06:18Z</time>
      </trkpt>
      <trkpt lat="45.06893" lon="2.73888">
        <ele>1332.04</ele>
        <time>2015-06-11T08:06:37Z</time>
      </trkpt>
      <trkpt lat="45.0689" lon="2.73888">
        <ele>1333.01</ele>
        <time>2015-06-11T08:06:50Z</time>
      </trkpt>
      <trkpt lat="45.06888" lon="2.73888">
        <ele>1333.01</ele>
        <time>2015-06-11T08:07:04Z</time>
      </trkpt>
      <trkpt lat="45.06884" lon="2.73887">
        <ele>1333.49</ele>
        <time>2015-06-11T08:07:19Z</time>
      </trkpt>
      <trkpt lat="45.06882" lon="2.73886">
        <ele>1333.01</ele>
        <time>2015-06-11T08:07:34Z</time>
      </trkpt>
      <trkpt lat="45.06877" lon="2.73883">
        <ele>1332.52</ele>
        <time>2015-06-11T08:07:47Z</time>
      </trkpt>
      <trkpt lat="45.06876" lon="2.73882">
        <ele>1332.04</ele>
        <time>2015-06-11T08:07:48Z</time>
      </trkpt>
      <trkpt lat="45.06871" lon="2.73881">
        <ele>1331.56</ele>
        <time>2015-06-11T08:07:52Z</time>
      </trkpt>
      <trkpt lat="45.06861" lon="2.73875">
        <ele>1327.72</ele>
        <time>2015-06-11T08:08:07Z</time>
      </trkpt>
      <trkpt lat="45.06858" lon="2.73871">
        <ele>1326.28</ele>
        <time>2015-06-11T08:08:16Z</time>
      </trkpt>
      <trkpt lat="45.06853" lon="2.73863">
        <ele>1323.87</ele>
        <time>2015-06-11T08:08:26Z</time>
      </trkpt>
      <trkpt lat="45.06852" lon="2.73863">
        <ele>1323.39</ele>
        <time>2015-06-11T08:08:28Z</time>
      </trkpt>
      <trkpt lat="45.06848" lon="2.7386">
        <ele>1322.91</ele>
        <time>2015-06-11T08:08:32Z</time>
      </trkpt>
      <trkpt lat="45.06846" lon="2.73852">
        <ele>1320.99</ele>
        <time>2015-06-11T08:08:46Z</time>
      </trkpt>
      <trkpt lat="45.06843" lon="2.73841">
        <ele>1320.51</ele>
        <time>2015-06-11T08:08:57Z</time>
      </trkpt>
      <trkpt lat="45.06837" lon="2.7383">
        <ele>1317.62</ele>
        <time>2015-06-11T08:09:09Z</time>
      </trkpt>
      <trkpt lat="45.06831" lon="2.73813">
        <ele>1314.74</ele>
        <time>2015-06-11T08:09:21Z</time>
      </trkpt>
      <trkpt lat="45.0683" lon="2.7381">
        <ele>1314.74</ele>
        <time>2015-06-11T08:09:23Z</time>
      </trkpt>
      <trkpt lat="45.06823" lon="2.73792">
        <ele>1312.82</ele>
        <time>2015-06-11T08:09:37Z</time>
      </trkpt>
      <trkpt lat="45.06812" lon="2.73774">
        <ele>1308.49</ele>
        <time>2015-06-11T08:09:52Z</time>
      </trkpt>
      <trkpt lat="45.06805" lon="2.73753">
        <ele>1306.57</ele>
        <time>2015-06-11T08:10:07Z</time>
      </trkpt>
      <trkpt lat="45.06803" lon="2.73746">
        <ele>1305.13</ele>
        <time>2015-06-11T08:10:20Z</time>
      </trkpt>
      <trkpt lat="45.06801" lon="2.73739">
        <ele>1305.13</ele>
        <time>2015-06-11T08:10:25Z</time>
      </trkpt>
      <trkpt lat="45.06798" lon="2.73726">
        <ele>1304.65</ele>
        <time>2015-06-11T08:10:33Z</time>
      </trkpt>
      <trkpt lat="45.06795" lon="2.7372">
        <ele>1303.2</ele>
        <time>2015-06-11T08:10:37Z</time>
      </trkpt>
      <trkpt lat="45.06794" lon="2.73714">
        <ele>1302.72</ele>
        <time>2015-06-11T08:10:41Z</time>
      </trkpt>
      <trkpt lat="45.06793" lon="2.73711">
        <ele>1301.28</ele>
        <time>2015-06-11T08:10:57Z</time>
      </trkpt>
      <trkpt lat="45.06792" lon="2.73706">
        <ele>1301.28</ele>
        <time>2015-06-11T08:11:04Z</time>
      </trkpt>
      <trkpt lat="45.06791" lon="2.73703">
        <ele>1301.76</ele>
        <time>2015-06-11T08:11:06Z</time>
      </trkpt>
      <trkpt lat="45.0679" lon="2.737">
        <ele>1301.76</ele>
        <time>2015-06-11T08:11:08Z</time>
      </trkpt>
      <trkpt lat="45.06788" lon="2.73693">
        <ele>1301.76</ele>
        <time>2015-06-11T08:11:12Z</time>
      </trkpt>
      <trkpt lat="45.06786" lon="2.73686">
        <ele>1301.28</ele>
        <time>2015-06-11T08:11:17Z</time>
      </trkpt>
      <trkpt lat="45.06778" lon="2.73665">
        <ele>1301.76</ele>
        <time>2015-06-11T08:11:31Z</time>
      </trkpt>
      <trkpt lat="45.06776" lon="2.73661">
        <ele>1302.72</ele>
        <time>2015-06-11T08:11:34Z</time>
      </trkpt>
      <trkpt lat="45.06775" lon="2.73658">
        <ele>1303.2</ele>
        <time>2015-06-11T08:11:36Z</time>
      </trkpt>
      <trkpt lat="45.06773" lon="2.73652">
        <ele>1304.65</ele>
        <time>2015-06-11T08:11:41Z</time>
      </trkpt>
      <trkpt lat="45.06769" lon="2.73634">
        <ele>1307.53</ele>
        <time>2015-06-11T08:11:53Z</time>
      </trkpt>
      <trkpt lat="45.06768" lon="2.73631">
        <ele>1308.49</ele>
        <time>2015-06-11T08:11:55Z</time>
      </trkpt>
      <trkpt lat="45.06767" lon="2.73623">
        <ele>1309.45</ele>
        <time>2015-06-11T08:12:01Z</time>
      </trkpt>
      <trkpt lat="45.06763" lon="2.73597">
        <ele>1309.93</ele>
        <time>2015-06-11T08:12:17Z</time>
      </trkpt>
      <trkpt lat="45.06763" lon="2.73595">
        <ele>1309.45</ele>
        <time>2015-06-11T08:12:19Z</time>
      </trkpt>
      <trkpt lat="45.06758" lon="2.73583">
        <ele>1308.01</ele>
        <time>2015-06-11T08:12:27Z</time>
      </trkpt>
      <trkpt lat="45.06753" lon="2.73556">
        <ele>1307.53</ele>
        <time>2015-06-11T08:12:43Z</time>
      </trkpt>
      <trkpt lat="45.06752" lon="2.73552">
        <ele>1306.57</ele>
        <time>2015-06-11T08:12:57Z</time>
      </trkpt>
      <trkpt lat="45.06751" lon="2.73547">
        <ele>1306.57</ele>
        <time>2015-06-11T08:13:17Z</time>
      </trkpt>
      <trkpt lat="45.06746" lon="2.73532">
        <ele>1305.61</ele>
        <time>2015-06-11T08:13:30Z</time>
      </trkpt>
      <trkpt lat="45.06745" lon="2.7353">
        <ele>1306.09</ele>
        <time>2015-06-11T08:13:32Z</time>
      </trkpt>
      <trkpt lat="45.06742" lon="2.73523">
        <ele>1306.09</ele>
        <time>2015-06-11T08:13:37Z</time>
      </trkpt>
      <trkpt lat="45.06736" lon="2.73507">
        <ele>1305.13</ele>
        <time>2015-06-11T08:13:49Z</time>
      </trkpt>
      <trkpt lat="45.06727" lon="2.73488">
        <ele>1304.17</ele>
        <time>2015-06-11T08:14:04Z</time>
      </trkpt>
      <trkpt lat="45.06725" lon="2.73484">
        <ele>1303.69</ele>
        <time>2015-06-11T08:14:07Z</time>
      </trkpt>
      <trkpt lat="45.06722" lon="2.73471">
        <ele>1302.24</ele>
        <time>2015-06-11T08:14:16Z</time>
      </trkpt>
      <trkpt lat="45.06719" lon="2.73464">
        <ele>1300.32</ele>
        <time>2015-06-11T08:14:22Z</time>
      </trkpt>
      <trkpt lat="45.06711" lon="2.7345">
        <ele>1296.48</ele>
        <time>2015-06-11T08:14:37Z</time>
      </trkpt>
      <trkpt lat="45.06703" lon="2.73437">
        <ele>1294.55</ele>
        <time>2015-06-11T08:14:52Z</time>
      </trkpt>
      <trkpt lat="45.06697" lon="2.73425">
        <ele>1291.67</ele>
        <time>2015-06-11T08:15:05Z</time>
      </trkpt>
      <trkpt lat="45.06696" lon="2.73424">
        <ele>1290.71</ele>
        <time>2015-06-11T08:15:19Z</time>
      </trkpt>
      <trkpt lat="45.06691" lon="2.73419">
        <ele>1287.82</ele>
        <time>2015-06-11T08:15:31Z</time>
      </trkpt>
      <trkpt lat="45.0669" lon="2.73415">
        <ele>1286.86</ele>
        <time>2015-06-11T08:15:42Z</time>
      </trkpt>
      <trkpt lat="45.0669" lon="2.73416">
        <ele>1286.38</ele>
        <time>2015-06-11T08:16:08Z</time>
      </trkpt>
      <trkpt lat="45.06685" lon="2.73413">
        <ele>1285.42</ele>
        <time>2015-06-11T08:16:18Z</time>
      </trkpt>
      <trkpt lat="45.06678" lon="2.73409">
        <ele>1281.09</ele>
        <time>2015-06-11T08:16:32Z</time>
      </trkpt>
      <trkpt lat="45.06677" lon="2.73408">
        <ele>1280.61</ele>
        <time>2015-06-11T08:16:36Z</time>
      </trkpt>
      <trkpt lat="45.0667" lon="2.73401">
        <ele>1278.69</ele>
        <time>2015-06-11T08:16:48Z</time>
      </trkpt>
      <trkpt lat="45.06666" lon="2.73395">
        <ele>1275.33</ele>
        <time>2015-06-11T08:16:59Z</time>
      </trkpt>
      <trkpt lat="45.0666" lon="2.73389">
        <ele>1271.48</ele>
        <time>2015-06-11T08:17:10Z</time>
      </trkpt>
      <trkpt lat="45.06654" lon="2.73381">
        <ele>1268.6</ele>
        <time>2015-06-11T08:17:18Z</time>
      </trkpt>
      <trkpt lat="45.06647" lon="2.73371">
        <ele>1265.23</ele>
        <time>2015-06-11T08:17:30Z</time>
      </trkpt>
      <trkpt lat="45.06637" lon="2.73355">
        <ele>1261.39</ele>
        <time>2015-06-11T08:17:44Z</time>
      </trkpt>
      <trkpt lat="45.06632" lon="2.73346">
        <ele>1260.43</ele>
        <time>2015-06-11T08:17:50Z</time>
      </trkpt>
      <trkpt lat="45.06628" lon="2.73333">
        <ele>1259.94</ele>
        <time>2015-06-11T08:17:59Z</time>
      </trkpt>
      <trkpt lat="45.0662" lon="2.73315">
        <ele>1256.58</ele>
        <time>2015-06-11T08:18:16Z</time>
      </trkpt>
      <trkpt lat="45.06619" lon="2.73312">
        <ele>1256.58</ele>
        <time>2015-06-11T08:18:28Z</time>
      </trkpt>
      <trkpt lat="45.06616" lon="2.73306">
        <ele>1254.18</ele>
        <time>2015-06-11T08:18:41Z</time>
      </trkpt>
      <trkpt lat="45.06612" lon="2.733">
        <ele>1250.81</ele>
        <time>2015-06-11T08:18:53Z</time>
      </trkpt>
      <trkpt lat="45.06615" lon="2.73291">
        <ele>1249.85</ele>
        <time>2015-06-11T08:19:06Z</time>
      </trkpt>
      <trkpt lat="45.06617" lon="2.73282">
        <ele>1246.97</ele>
        <time>2015-06-11T08:19:20Z</time>
      </trkpt>
      <trkpt lat="45.0662" lon="2.73276">
        <ele>1245.04</ele>
        <time>2015-06-11T08:19:32Z</time>
      </trkpt>
      <trkpt lat="45.06617" lon="2.73271">
        <ele>1244.56</ele>
        <time>2015-06-11T08:19:50Z</time>
      </trkpt>
      <trkpt lat="45.06616" lon="2.73267">
        <ele>1241.68</ele>
        <time>2015-06-11T08:20:01Z</time>
      </trkpt>
      <trkpt lat="45.06617" lon="2.73256">
        <ele>1238.8</ele>
        <time>2015-06-11T08:20:16Z</time>
      </trkpt>
      <trkpt lat="45.06619" lon="2.7325">
        <ele>1236.87</ele>
        <time>2015-06-11T08:20:29Z</time>
      </trkpt>
      <trkpt lat="45.06618" lon="2.73246">
        <ele>1235.43</ele>
        <time>2015-06-11T08:20:40Z</time>
      </trkpt>
      <trkpt lat="45.06619" lon="2.73243">
        <ele>1234.95</ele>
        <time>2015-06-11T08:20:43Z</time>
      </trkpt>
      <trkpt lat="45.0662" lon="2.73239">
        <ele>1232.55</ele>
        <time>2015-06-11T08:20:53Z</time>
      </trkpt>
      <trkpt lat="45.06622" lon="2.73238">
        <ele>1232.07</ele>
        <time>2015-06-11T08:21:07Z</time>
      </trkpt>
      <trkpt lat="45.06624" lon="2.73234">
        <ele>1232.07</ele>
        <time>2015-06-11T08:21:15Z</time>
      </trkpt>
      <trkpt lat="45.0662" lon="2.7322">
        <ele>1229.66</ele>
        <time>2015-06-11T08:21:27Z</time>
      </trkpt>
      <trkpt lat="45.0662" lon="2.73207">
        <ele>1226.78</ele>
        <time>2015-06-11T08:21:41Z</time>
      </trkpt>
      <trkpt lat="45.06625" lon="2.73199">
        <ele>1222.45</ele>
        <time>2015-06-11T08:21:52Z</time>
      </trkpt>
      <trkpt lat="45.06627" lon="2.73188">
        <ele>1219.57</ele>
        <time>2015-06-11T08:22:04Z</time>
      </trkpt>
      <trkpt lat="45.06628" lon="2.73187">
        <ele>1219.09</ele>
        <time>2015-06-11T08:22:06Z</time>
      </trkpt>
      <trkpt lat="45.06629" lon="2.73186">
        <ele>1219.09</ele>
        <time>2015-06-11T08:22:09Z</time>
      </trkpt>
      <trkpt lat="45.06631" lon="2.73164">
        <ele>1217.65</ele>
        <time>2015-06-11T08:22:24Z</time>
      </trkpt>
      <trkpt lat="45.06636" lon="2.73143">
        <ele>1212.84</ele>
        <time>2015-06-11T08:22:39Z</time>
      </trkpt>
      <trkpt lat="45.06639" lon="2.73127">
        <ele>1210.44</ele>
        <time>2015-06-11T08:22:52Z</time>
      </trkpt>
      <trkpt lat="45.06636" lon="2.73108">
        <ele>1207.07</ele>
        <time>2015-06-11T08:23:04Z</time>
      </trkpt>
      <trkpt lat="45.06638" lon="2.73091">
        <ele>1204.19</ele>
        <time>2015-06-11T08:23:16Z</time>
      </trkpt>
      <trkpt lat="45.06637" lon="2.73081">
        <ele>1203.71</ele>
        <time>2015-06-11T08:23:22Z</time>
      </trkpt>
      <trkpt lat="45.06633" lon="2.73067">
        <ele>1200.82</ele>
        <time>2015-06-11T08:23:34Z</time>
      </trkpt>
      <trkpt lat="45.06629" lon="2.73053">
        <ele>1198.42</ele>
        <time>2015-06-11T08:23:46Z</time>
      </trkpt>
      <trkpt lat="45.06624" lon="2.73036">
        <ele>1196.02</ele>
        <time>2015-06-11T08:23:59Z</time>
      </trkpt>
      <trkpt lat="45.0662" lon="2.73026">
        <ele>1193.13</ele>
        <time>2015-06-11T08:24:08Z</time>
      </trkpt>
      <trkpt lat="45.06617" lon="2.73022">
        <ele>1191.69</ele>
        <time>2015-06-11T08:24:11Z</time>
      </trkpt>
      <trkpt lat="45.06611" lon="2.73015">
        <ele>1187.37</ele>
        <time>2015-06-11T08:24:23Z</time>
      </trkpt>
      <trkpt lat="45.06607" lon="2.73005">
        <ele>1183.04</ele>
        <time>2015-06-11T08:24:34Z</time>
      </trkpt>
      <trkpt lat="45.066" lon="2.72993">
        <ele>1180.16</ele>
        <time>2015-06-11T08:24:43Z</time>
      </trkpt>
      <trkpt lat="45.06591" lon="2.72985">
        <ele>1180.64</ele>
        <time>2015-06-11T08:24:56Z</time>
      </trkpt>
      <trkpt lat="45.06585" lon="2.72972">
        <ele>1182.08</ele>
        <time>2015-06-11T08:25:06Z</time>
      </trkpt>
      <trkpt lat="45.06585" lon="2.72971">
        <ele>1182.56</ele>
        <time>2015-06-11T08:25:07Z</time>
      </trkpt>
      <trkpt lat="45.06583" lon="2.72966">
        <ele>1182.56</ele>
        <time>2015-06-11T08:25:11Z</time>
      </trkpt>
      <trkpt lat="45.0658" lon="2.72961">
        <ele>1179.19</ele>
        <time>2015-06-11T08:25:26Z</time>
      </trkpt>
      <trkpt lat="45.06578" lon="2.72962">
        <ele>1178.71</ele>
        <time>2015-06-11T08:25:40Z</time>
      </trkpt>
      <trkpt lat="45.06578" lon="2.72963">
        <ele>1176.79</ele>
        <time>2015-06-11T08:25:57Z</time>
      </trkpt>
      <trkpt lat="45.06578" lon="2.72962">
        <ele>1177.27</ele>
        <time>2015-06-11T08:26:18Z</time>
      </trkpt>
      <trkpt lat="45.06577" lon="2.72963">
        <ele>1177.27</ele>
        <time>2015-06-11T08:26:33Z</time>
      </trkpt>
      <trkpt lat="45.06577" lon="2.72963">
        <ele>1176.79</ele>
        <time>2015-06-11T08:26:47Z</time>
      </trkpt>
      <trkpt lat="45.06578" lon="2.72962">
        <ele>1176.31</ele>
        <time>2015-06-11T08:27:13Z</time>
      </trkpt>
      <trkpt lat="45.06578" lon="2.72962">
        <ele>1177.27</ele>
        <time>2015-06-11T08:27:40Z</time>
      </trkpt>
      <trkpt lat="45.06578" lon="2.72962">
        <ele>1177.27</ele>
        <time>2015-06-11T08:27:45Z</time>
      </trkpt>
      <trkpt lat="45.06586" lon="2.72973">
        <ele>1178.71</ele>
        <time>2015-06-11T08:27:58Z</time>
      </trkpt>
      <trkpt lat="45.06587" lon="2.72978">
        <ele>1181.12</ele>
        <time>2015-06-11T08:28:09Z</time>
      </trkpt>
      <trkpt lat="45.06588" lon="2.72984">
        <ele>1183.04</ele>
        <time>2015-06-11T08:28:25Z</time>
      </trkpt>
      <trkpt lat="45.06588" lon="2.72985">
        <ele>1184</ele>
        <time>2015-06-11T08:28:38Z</time>
      </trkpt>
      <trkpt lat="45.06589" lon="2.72981">
        <ele>1184</ele>
        <time>2015-06-11T08:28:54Z</time>
      </trkpt>
      <trkpt lat="45.06589" lon="2.72979">
        <ele>1184.48</ele>
        <time>2015-06-11T08:29:06Z</time>
      </trkpt>
      <trkpt lat="45.06588" lon="2.72979">
        <ele>1184</ele>
        <time>2015-06-11T08:29:28Z</time>
      </trkpt>
      <trkpt lat="45.06589" lon="2.72978">
        <ele>1184.48</ele>
        <time>2015-06-11T08:29:45Z</time>
      </trkpt>
      <trkpt lat="45.06589" lon="2.72979">
        <ele>1184</ele>
        <time>2015-06-11T08:29:58Z</time>
      </trkpt>
      <trkpt lat="45.06589" lon="2.72979">
        <ele>1184</ele>
        <time>2015-06-11T08:30:01Z</time>
      </trkpt>
      <trkpt lat="45.0659" lon="2.72978">
        <ele>1184.48</ele>
        <time>2015-06-11T08:30:15Z</time>
      </trkpt>
      <trkpt lat="45.06589" lon="2.72978">
        <ele>1184.48</ele>
        <time>2015-06-11T08:30:29Z</time>
      </trkpt>
      <trkpt lat="45.0659" lon="2.72978">
        <ele>1185.44</ele>
        <time>2015-06-11T08:30:51Z</time>
      </trkpt>
      <trkpt lat="45.06588" lon="2.72972">
        <ele>1184.48</ele>
        <time>2015-06-11T08:31:04Z</time>
      </trkpt>
      <trkpt lat="45.06586" lon="2.72969">
        <ele>1184</ele>
        <time>2015-06-11T08:31:07Z</time>
      </trkpt>
      <trkpt lat="45.06578" lon="2.72953">
        <ele>1182.08</ele>
        <time>2015-06-11T08:31:19Z</time>
      </trkpt>
      <trkpt lat="45.06576" lon="2.72949">
        <ele>1181.6</ele>
        <time>2015-06-11T08:31:23Z</time>
      </trkpt>
      <trkpt lat="45.06574" lon="2.72938">
        <ele>1182.08</ele>
        <time>2015-06-11T08:31:37Z</time>
      </trkpt>
      <trkpt lat="45.06574" lon="2.72937">
        <ele>1182.56</ele>
        <time>2015-06-11T08:31:46Z</time>
      </trkpt>
      <trkpt lat="45.0657" lon="2.72932">
        <ele>1183.52</ele>
        <time>2015-06-11T08:32:01Z</time>
      </trkpt>
      <trkpt lat="45.06568" lon="2.72921">
        <ele>1182.08</ele>
        <time>2015-06-11T08:32:08Z</time>
      </trkpt>
      <trkpt lat="45.06566" lon="2.72916">
        <ele>1180.64</ele>
        <time>2015-06-11T08:32:11Z</time>
      </trkpt>
      <trkpt lat="45.06565" lon="2.72907">
        <ele>1179.67</ele>
        <time>2015-06-11T08:32:16Z</time>
      </trkpt>
      <trkpt lat="45.06562" lon="2.72901">
        <ele>1179.67</ele>
        <time>2015-06-11T08:32:20Z</time>
      </trkpt>
      <trkpt lat="45.06563" lon="2.72886">
        <ele>1178.23</ele>
        <time>2015-06-11T08:32:29Z</time>
      </trkpt>
      <trkpt lat="45.06564" lon="2.72859">
        <ele>1175.83</ele>
        <time>2015-06-11T08:32:44Z</time>
      </trkpt>
      <trkpt lat="45.06566" lon="2.72849">
        <ele>1175.83</ele>
        <time>2015-06-11T08:32:50Z</time>
      </trkpt>
      <trkpt lat="45.06567" lon="2.72843">
        <ele>1174.87</ele>
        <time>2015-06-11T08:32:54Z</time>
      </trkpt>
      <trkpt lat="45.06572" lon="2.72826">
        <ele>1171.98</ele>
        <time>2015-06-11T08:33:06Z</time>
      </trkpt>
      <trkpt lat="45.06569" lon="2.72824">
        <ele>1171.02</ele>
        <time>2015-06-11T08:33:16Z</time>
      </trkpt>
      <trkpt lat="45.0657" lon="2.72823">
        <ele>1171.02</ele>
        <time>2015-06-11T08:33:33Z</time>
      </trkpt>
      <trkpt lat="45.06567" lon="2.72822">
        <ele>1171.5</ele>
        <time>2015-06-11T08:33:47Z</time>
      </trkpt>
      <trkpt lat="45.06565" lon="2.72821">
        <ele>1171.98</ele>
        <time>2015-06-11T08:34:11Z</time>
      </trkpt>
      <trkpt lat="45.06565" lon="2.72819">
        <ele>1172.47</ele>
        <time>2015-06-11T08:34:39Z</time>
      </trkpt>
      <trkpt lat="45.06566" lon="2.72819">
        <ele>1172.47</ele>
        <time>2015-06-11T08:35:05Z</time>
      </trkpt>
      <trkpt lat="45.06568" lon="2.72813">
        <ele>1172.47</ele>
        <time>2015-06-11T08:35:16Z</time>
      </trkpt>
      <trkpt lat="45.06568" lon="2.72806">
        <ele>1171.02</ele>
        <time>2015-06-11T08:35:20Z</time>
      </trkpt>
      <trkpt lat="45.06564" lon="2.72784">
        <ele>1169.58</ele>
        <time>2015-06-11T08:35:33Z</time>
      </trkpt>
      <trkpt lat="45.06562" lon="2.72768">
        <ele>1169.58</ele>
        <time>2015-06-11T08:35:45Z</time>
      </trkpt>
      <trkpt lat="45.06556" lon="2.72749">
        <ele>1166.22</ele>
        <time>2015-06-11T08:35:58Z</time>
      </trkpt>
      <trkpt lat="45.06544" lon="2.72736">
        <ele>1165.26</ele>
        <time>2015-06-11T08:36:14Z</time>
      </trkpt>
      <trkpt lat="45.06536" lon="2.72716">
        <ele>1163.81</ele>
        <time>2015-06-11T08:36:28Z</time>
      </trkpt>
      <trkpt lat="45.0653" lon="2.7271">
        <ele>1163.33</ele>
        <time>2015-06-11T08:36:33Z</time>
      </trkpt>
      <trkpt lat="45.06525" lon="2.72705">
        <ele>1163.33</ele>
        <time>2015-06-11T08:36:37Z</time>
      </trkpt>
      <trkpt lat="45.06515" lon="2.72693">
        <ele>1166.22</ele>
        <time>2015-06-11T08:36:52Z</time>
      </trkpt>
      <trkpt lat="45.06502" lon="2.72677">
        <ele>1166.22</ele>
        <time>2015-06-11T08:37:06Z</time>
      </trkpt>
      <trkpt lat="45.06489" lon="2.72655">
        <ele>1165.74</ele>
        <time>2015-06-11T08:37:21Z</time>
      </trkpt>
      <trkpt lat="45.06484" lon="2.72649">
        <ele>1163.33</ele>
        <time>2015-06-11T08:37:25Z</time>
      </trkpt>
      <trkpt lat="45.06478" lon="2.72637">
        <ele>1160.93</ele>
        <time>2015-06-11T08:37:34Z</time>
      </trkpt>
      <trkpt lat="45.06473" lon="2.72617">
        <ele>1157.56</ele>
        <time>2015-06-11T08:37:47Z</time>
      </trkpt>
      <trkpt lat="45.06473" lon="2.72596">
        <ele>1155.16</ele>
        <time>2015-06-11T08:38:00Z</time>
      </trkpt>
      <trkpt lat="45.06469" lon="2.72572">
        <ele>1151.32</ele>
        <time>2015-06-11T08:38:16Z</time>
      </trkpt>
      <trkpt lat="45.06468" lon="2.72563">
        <ele>1149.39</ele>
        <time>2015-06-11T08:38:30Z</time>
      </trkpt>
      <trkpt lat="45.0647" lon="2.72561">
        <ele>1148.91</ele>
        <time>2015-06-11T08:38:48Z</time>
      </trkpt>
      <trkpt lat="45.06471" lon="2.72561">
        <ele>1148.91</ele>
        <time>2015-06-11T08:38:51Z</time>
      </trkpt>
      <trkpt lat="45.06483" lon="2.72568">
        <ele>1147.47</ele>
        <time>2015-06-11T08:39:03Z</time>
      </trkpt>
      <trkpt lat="45.06484" lon="2.7257">
        <ele>1146.99</ele>
        <time>2015-06-11T08:39:05Z</time>
      </trkpt>
      <trkpt lat="45.06491" lon="2.72573">
        <ele>1144.11</ele>
        <time>2015-06-11T08:39:10Z</time>
      </trkpt>
      <trkpt lat="45.06494" lon="2.72577">
        <ele>1142.66</ele>
        <time>2015-06-11T08:39:14Z</time>
      </trkpt>
      <trkpt lat="45.0651" lon="2.72591">
        <ele>1134.97</ele>
        <time>2015-06-11T08:39:30Z</time>
      </trkpt>
      <trkpt lat="45.0652" lon="2.72594">
        <ele>1133.05</ele>
        <time>2015-06-11T08:39:45Z</time>
      </trkpt>
      <trkpt lat="45.06519" lon="2.72595">
        <ele>1133.05</ele>
        <time>2015-06-11T08:40:09Z</time>
      </trkpt>
      <trkpt lat="45.06519" lon="2.72595">
        <ele>1133.05</ele>
        <time>2015-06-11T08:40:27Z</time>
      </trkpt>
      <trkpt lat="45.06519" lon="2.72595">
        <ele>1134.01</ele>
        <time>2015-06-11T08:41:02Z</time>
      </trkpt>
      <trkpt lat="45.06518" lon="2.72596">
        <ele>1133.53</ele>
        <time>2015-06-11T08:41:39Z</time>
      </trkpt>
      <trkpt lat="45.06518" lon="2.72596">
        <ele>1134.01</ele>
        <time>2015-06-11T08:42:12Z</time>
      </trkpt>
      <trkpt lat="45.06519" lon="2.72597">
        <ele>1134.97</ele>
        <time>2015-06-11T08:42:24Z</time>
      </trkpt>
      <trkpt lat="45.06519" lon="2.72597">
        <ele>1134.97</ele>
        <time>2015-06-11T08:42:39Z</time>
      </trkpt>
      <trkpt lat="45.06519" lon="2.72596">
        <ele>1134.49</ele>
        <time>2015-06-11T08:43:07Z</time>
      </trkpt>
      <trkpt lat="45.0652" lon="2.72596">
        <ele>1134.01</ele>
        <time>2015-06-11T08:43:36Z</time>
      </trkpt>
      <trkpt lat="45.0652" lon="2.72595">
        <ele>1133.53</ele>
        <time>2015-06-11T08:44:05Z</time>
      </trkpt>
      <trkpt lat="45.06528" lon="2.72596">
        <ele>1134.01</ele>
        <time>2015-06-11T08:44:26Z</time>
      </trkpt>
      <trkpt lat="45.06535" lon="2.72598">
        <ele>1133.05</ele>
        <time>2015-06-11T08:44:32Z</time>
      </trkpt>
      <trkpt lat="45.06551" lon="2.72597">
        <ele>1128.73</ele>
        <time>2015-06-11T08:44:47Z</time>
      </trkpt>
      <trkpt lat="45.06569" lon="2.72597">
        <ele>1126.32</ele>
        <time>2015-06-11T08:45:02Z</time>
      </trkpt>
      <trkpt lat="45.06586" lon="2.72603">
        <ele>1122.96</ele>
        <time>2015-06-11T08:45:17Z</time>
      </trkpt>
      <trkpt lat="45.06605" lon="2.72609">
        <ele>1118.63</ele>
        <time>2015-06-11T08:45:32Z</time>
      </trkpt>
      <trkpt lat="45.06621" lon="2.72621">
        <ele>1119.11</ele>
        <time>2015-06-11T08:45:47Z</time>
      </trkpt>
      <trkpt lat="45.06639" lon="2.7263">
        <ele>1118.63</ele>
        <time>2015-06-11T08:46:02Z</time>
      </trkpt>
      <trkpt lat="45.06654" lon="2.72644">
        <ele>1119.11</ele>
        <time>2015-06-11T08:46:16Z</time>
      </trkpt>
      <trkpt lat="45.06664" lon="2.72653">
        <ele>1115.27</ele>
        <time>2015-06-11T08:46:27Z</time>
      </trkpt>
      <trkpt lat="45.0667" lon="2.72656">
        <ele>1114.31</ele>
        <time>2015-06-11T08:46:31Z</time>
      </trkpt>
      <trkpt lat="45.06683" lon="2.72667">
        <ele>1112.38</ele>
        <time>2015-06-11T08:46:45Z</time>
      </trkpt>
      <trkpt lat="45.06703" lon="2.7268">
        <ele>1109.98</ele>
        <time>2015-06-11T08:47:03Z</time>
      </trkpt>
      <trkpt lat="45.06718" lon="2.72682">
        <ele>1106.13</ele>
        <time>2015-06-11T08:47:16Z</time>
      </trkpt>
      <trkpt lat="45.06734" lon="2.72679">
        <ele>1102.29</ele>
        <time>2015-06-11T08:47:28Z</time>
      </trkpt>
      <trkpt lat="45.06755" lon="2.72676">
        <ele>1101.81</ele>
        <time>2015-06-11T08:47:44Z</time>
      </trkpt>
      <trkpt lat="45.06773" lon="2.7268">
        <ele>1101.81</ele>
        <time>2015-06-11T08:47:59Z</time>
      </trkpt>
      <trkpt lat="45.06788" lon="2.72686">
        <ele>1102.29</ele>
        <time>2015-06-11T08:48:12Z</time>
      </trkpt>
      <trkpt lat="45.06806" lon="2.72696">
        <ele>1101.81</ele>
        <time>2015-06-11T08:48:27Z</time>
      </trkpt>
      <trkpt lat="45.06821" lon="2.7271">
        <ele>1099.4</ele>
        <time>2015-06-11T08:48:43Z</time>
      </trkpt>
      <trkpt lat="45.06835" lon="2.72727">
        <ele>1101.33</ele>
        <time>2015-06-11T08:48:58Z</time>
      </trkpt>
      <trkpt lat="45.06842" lon="2.72734">
        <ele>1101.33</ele>
        <time>2015-06-11T08:49:06Z</time>
      </trkpt>
      <trkpt lat="45.06847" lon="2.72735">
        <ele>1100.85</ele>
        <time>2015-06-11T08:49:12Z</time>
      </trkpt>
      <trkpt lat="45.06853" lon="2.72735">
        <ele>1099.4</ele>
        <time>2015-06-11T08:49:20Z</time>
      </trkpt>
      <trkpt lat="45.06864" lon="2.72735">
        <ele>1098.92</ele>
        <time>2015-06-11T08:49:29Z</time>
      </trkpt>
      <trkpt lat="45.0687" lon="2.72731">
        <ele>1097</ele>
        <time>2015-06-11T08:49:37Z</time>
      </trkpt>
      <trkpt lat="45.06874" lon="2.72726">
        <ele>1094.12</ele>
        <time>2015-06-11T08:49:44Z</time>
      </trkpt>
      <trkpt lat="45.06878" lon="2.72721">
        <ele>1092.2</ele>
        <time>2015-06-11T08:49:50Z</time>
      </trkpt>
      <trkpt lat="45.06888" lon="2.72706">
        <ele>1092.68</ele>
        <time>2015-06-11T08:50:03Z</time>
      </trkpt>
      <trkpt lat="45.06892" lon="2.72703">
        <ele>1091.71</ele>
        <time>2015-06-11T08:50:08Z</time>
      </trkpt>
      <trkpt lat="45.06899" lon="2.72688">
        <ele>1088.83</ele>
        <time>2015-06-11T08:50:19Z</time>
      </trkpt>
      <trkpt lat="45.0691" lon="2.72672">
        <ele>1087.39</ele>
        <time>2015-06-11T08:50:33Z</time>
      </trkpt>
      <trkpt lat="45.0692" lon="2.72659">
        <ele>1083.54</ele>
        <time>2015-06-11T08:50:46Z</time>
      </trkpt>
      <trkpt lat="45.06928" lon="2.72645">
        <ele>1078.74</ele>
        <time>2015-06-11T08:50:58Z</time>
      </trkpt>
      <trkpt lat="45.0693" lon="2.72642">
        <ele>1078.26</ele>
        <time>2015-06-11T08:51:00Z</time>
      </trkpt>
      <trkpt lat="45.06932" lon="2.72631">
        <ele>1075.37</ele>
        <time>2015-06-11T08:51:07Z</time>
      </trkpt>
      <trkpt lat="45.06931" lon="2.72619">
        <ele>1074.41</ele>
        <time>2015-06-11T08:51:14Z</time>
      </trkpt>
      <trkpt lat="45.0693" lon="2.72615">
        <ele>1074.41</ele>
        <time>2015-06-11T08:51:16Z</time>
      </trkpt>
      <trkpt lat="45.06929" lon="2.72607">
        <ele>1075.37</ele>
        <time>2015-06-11T08:51:21Z</time>
      </trkpt>
      <trkpt lat="45.06925" lon="2.72578">
        <ele>1076.33</ele>
        <time>2015-06-11T08:51:37Z</time>
      </trkpt>
      <trkpt lat="45.06927" lon="2.72555">
        <ele>1074.89</ele>
        <time>2015-06-11T08:51:50Z</time>
      </trkpt>
      <trkpt lat="45.06927" lon="2.7255">
        <ele>1074.41</ele>
        <time>2015-06-11T08:51:53Z</time>
      </trkpt>
      <trkpt lat="45.06927" lon="2.72547">
        <ele>1074.41</ele>
        <time>2015-06-11T08:51:55Z</time>
      </trkpt>
      <trkpt lat="45.06923" lon="2.72534">
        <ele>1074.41</ele>
        <time>2015-06-11T08:52:06Z</time>
      </trkpt>
      <trkpt lat="45.0692" lon="2.72527">
        <ele>1075.37</ele>
        <time>2015-06-11T08:52:12Z</time>
      </trkpt>
      <trkpt lat="45.06911" lon="2.72515">
        <ele>1077.29</ele>
        <time>2015-06-11T08:52:23Z</time>
      </trkpt>
      <trkpt lat="45.06902" lon="2.72505">
        <ele>1075.85</ele>
        <time>2015-06-11T08:52:33Z</time>
      </trkpt>
      <trkpt lat="45.06896" lon="2.72495">
        <ele>1074.41</ele>
        <time>2015-06-11T08:52:45Z</time>
      </trkpt>
      <trkpt lat="45.06893" lon="2.72486">
        <ele>1074.41</ele>
        <time>2015-06-11T08:52:54Z</time>
      </trkpt>
      <trkpt lat="45.06891" lon="2.72485">
        <ele>1073.45</ele>
        <time>2015-06-11T08:52:57Z</time>
      </trkpt>
      <trkpt lat="45.06885" lon="2.72482">
        <ele>1072.49</ele>
        <time>2015-06-11T08:53:01Z</time>
      </trkpt>
      <trkpt lat="45.06884" lon="2.72475">
        <ele>1072.01</ele>
        <time>2015-06-11T08:53:05Z</time>
      </trkpt>
      <trkpt lat="45.06884" lon="2.72462">
        <ele>1071.05</ele>
        <time>2015-06-11T08:53:16Z</time>
      </trkpt>
      <trkpt lat="45.06885" lon="2.72452">
        <ele>1069.6</ele>
        <time>2015-06-11T08:53:27Z</time>
      </trkpt>
      <trkpt lat="45.06895" lon="2.7245">
        <ele>1066.24</ele>
        <time>2015-06-11T08:53:40Z</time>
      </trkpt>
      <trkpt lat="45.06903" lon="2.7244">
        <ele>1064.8</ele>
        <time>2015-06-11T08:53:56Z</time>
      </trkpt>
      <trkpt lat="45.06916" lon="2.72425">
        <ele>1059.99</ele>
        <time>2015-06-11T08:54:11Z</time>
      </trkpt>
      <trkpt lat="45.06922" lon="2.72415">
        <ele>1057.59</ele>
        <time>2015-06-11T08:54:24Z</time>
      </trkpt>
      <trkpt lat="45.06929" lon="2.72402">
        <ele>1054.22</ele>
        <time>2015-06-11T08:54:36Z</time>
      </trkpt>
      <trkpt lat="45.0693" lon="2.72402">
        <ele>1053.74</ele>
        <time>2015-06-11T08:54:39Z</time>
      </trkpt>
      <trkpt lat="45.06939" lon="2.72389">
        <ele>1049.42</ele>
        <time>2015-06-11T08:54:50Z</time>
      </trkpt>
      <trkpt lat="45.06947" lon="2.7238">
        <ele>1046.53</ele>
        <time>2015-06-11T08:55:00Z</time>
      </trkpt>
      <trkpt lat="45.06954" lon="2.72378">
        <ele>1044.61</ele>
        <time>2015-06-11T08:55:05Z</time>
      </trkpt>
      <trkpt lat="45.06957" lon="2.72376">
        <ele>1039.32</ele>
        <time>2015-06-11T08:55:18Z</time>
      </trkpt>
      <trkpt lat="45.06958" lon="2.72375">
        <ele>1038.84</ele>
        <time>2015-06-11T08:55:20Z</time>
      </trkpt>
      <trkpt lat="45.06966" lon="2.72379">
        <ele>1035</ele>
        <time>2015-06-11T08:55:30Z</time>
      </trkpt>
      <trkpt lat="45.06973" lon="2.72386">
        <ele>1032.11</ele>
        <time>2015-06-11T08:55:39Z</time>
      </trkpt>
      <trkpt lat="45.06978" lon="2.72398">
        <ele>1029.71</ele>
        <time>2015-06-11T08:55:53Z</time>
      </trkpt>
      <trkpt lat="45.06979" lon="2.72411">
        <ele>1030.19</ele>
        <time>2015-06-11T08:56:06Z</time>
      </trkpt>
      <trkpt lat="45.06982" lon="2.72418">
        <ele>1028.27</ele>
        <time>2015-06-11T08:56:19Z</time>
      </trkpt>
      <trkpt lat="45.06981" lon="2.7242">
        <ele>1027.31</ele>
        <time>2015-06-11T08:56:37Z</time>
      </trkpt>
      <trkpt lat="45.0698" lon="2.72418">
        <ele>1026.34</ele>
        <time>2015-06-11T08:56:49Z</time>
      </trkpt>
      <trkpt lat="45.06981" lon="2.72413">
        <ele>1026.34</ele>
        <time>2015-06-11T08:57:03Z</time>
      </trkpt>
      <trkpt lat="45.06983" lon="2.72386">
        <ele>1020.1</ele>
        <time>2015-06-11T08:57:22Z</time>
      </trkpt>
      <trkpt lat="45.06981" lon="2.72373">
        <ele>1015.77</ele>
        <time>2015-06-11T08:57:35Z</time>
      </trkpt>
      <trkpt lat="45.06982" lon="2.72363">
        <ele>1013.85</ele>
        <time>2015-06-11T08:57:50Z</time>
      </trkpt>
      <trkpt lat="45.06983" lon="2.7236">
        <ele>1013.37</ele>
        <time>2015-06-11T08:57:51Z</time>
      </trkpt>
      <trkpt lat="45.06988" lon="2.72346">
        <ele>1013.37</ele>
        <time>2015-06-11T08:57:57Z</time>
      </trkpt>
      <trkpt lat="45.07002" lon="2.72337">
        <ele>1022.98</ele>
        <time>2015-06-11T08:58:04Z</time>
      </trkpt>
      <trkpt lat="45.07012" lon="2.72325">
        <ele>1025.38</ele>
        <time>2015-06-11T08:58:17Z</time>
      </trkpt>
      <trkpt lat="45.07012" lon="2.7232">
        <ele>1026.34</ele>
        <time>2015-06-11T08:58:21Z</time>
      </trkpt>
      <trkpt lat="45.07011" lon="2.72305">
        <ele>1030.19</ele>
        <time>2015-06-11T08:58:33Z</time>
      </trkpt>
      <trkpt lat="45.0701" lon="2.72301">
        <ele>1030.67</ele>
        <time>2015-06-11T08:58:36Z</time>
      </trkpt>
      <trkpt lat="45.07006" lon="2.72293">
        <ele>1031.15</ele>
        <time>2015-06-11T08:58:42Z</time>
      </trkpt>
      <trkpt lat="45.07002" lon="2.72282">
        <ele>1034.04</ele>
        <time>2015-06-11T08:58:51Z</time>
      </trkpt>
      <trkpt lat="45.06999" lon="2.72269">
        <ele>1034.04</ele>
        <time>2015-06-11T08:59:02Z</time>
      </trkpt>
      <trkpt lat="45.06998" lon="2.7225">
        <ele>1035.96</ele>
        <time>2015-06-11T08:59:15Z</time>
      </trkpt>
      <trkpt lat="45.06995" lon="2.72239">
        <ele>1037.4</ele>
        <time>2015-06-11T08:59:25Z</time>
      </trkpt>
      <trkpt lat="45.06995" lon="2.72238">
        <ele>1037.4</ele>
        <time>2015-06-11T08:59:26Z</time>
      </trkpt>
      <trkpt lat="45.06996" lon="2.72228">
        <ele>1036.92</ele>
        <time>2015-06-11T08:59:33Z</time>
      </trkpt>
      <trkpt lat="45.06997" lon="2.72213">
        <ele>1035.48</ele>
        <time>2015-06-11T08:59:46Z</time>
      </trkpt>
      <trkpt lat="45.06988" lon="2.72196">
        <ele>1034.52</ele>
        <time>2015-06-11T09:00:00Z</time>
      </trkpt>
      <trkpt lat="45.06986" lon="2.72193">
        <ele>1034.04</ele>
        <time>2015-06-11T09:00:04Z</time>
      </trkpt>
      <trkpt lat="45.06975" lon="2.72179">
        <ele>1036.92</ele>
        <time>2015-06-11T09:00:19Z</time>
      </trkpt>
      <trkpt lat="45.06965" lon="2.72174">
        <ele>1040.76</ele>
        <time>2015-06-11T09:00:28Z</time>
      </trkpt>
      <trkpt lat="45.0696" lon="2.72173">
        <ele>1040.28</ele>
        <time>2015-06-11T09:00:31Z</time>
      </trkpt>
      <trkpt lat="45.06948" lon="2.72165">
        <ele>1037.88</ele>
        <time>2015-06-11T09:00:44Z</time>
      </trkpt>
      <trkpt lat="45.0694" lon="2.72155">
        <ele>1040.28</ele>
        <time>2015-06-11T09:00:57Z</time>
      </trkpt>
      <trkpt lat="45.06937" lon="2.72141">
        <ele>1043.17</ele>
        <time>2015-06-11T09:01:10Z</time>
      </trkpt>
      <trkpt lat="45.06939" lon="2.72122">
        <ele>1040.76</ele>
        <time>2015-06-11T09:01:22Z</time>
      </trkpt>
      <trkpt lat="45.06941" lon="2.72119">
        <ele>1041.25</ele>
        <time>2015-06-11T09:01:25Z</time>
      </trkpt>
      <trkpt lat="45.06954" lon="2.7212">
        <ele>1041.25</ele>
        <time>2015-06-11T09:01:38Z</time>
      </trkpt>
      <trkpt lat="45.06966" lon="2.72128">
        <ele>1036.92</ele>
        <time>2015-06-11T09:01:51Z</time>
      </trkpt>
      <trkpt lat="45.06982" lon="2.72127">
        <ele>1037.88</ele>
        <time>2015-06-11T09:02:06Z</time>
      </trkpt>
      <trkpt lat="45.06987" lon="2.72128">
        <ele>1037.4</ele>
        <time>2015-06-11T09:02:13Z</time>
      </trkpt>
      <trkpt lat="45.07" lon="2.72121">
        <ele>1037.88</ele>
        <time>2015-06-11T09:02:27Z</time>
      </trkpt>
      <trkpt lat="45.07005" lon="2.7212">
        <ele>1040.76</ele>
        <time>2015-06-11T09:02:36Z</time>
      </trkpt>
      <trkpt lat="45.07016" lon="2.72118">
        <ele>1040.76</ele>
        <time>2015-06-11T09:02:49Z</time>
      </trkpt>
      <trkpt lat="45.07022" lon="2.72117">
        <ele>1040.76</ele>
        <time>2015-06-11T09:02:58Z</time>
      </trkpt>
      <trkpt lat="45.07028" lon="2.72102">
        <ele>1042.69</ele>
        <time>2015-06-11T09:03:12Z</time>
      </trkpt>
      <trkpt lat="45.07029" lon="2.721">
        <ele>1042.69</ele>
        <time>2015-06-11T09:03:14Z</time>
      </trkpt>
      <trkpt lat="45.07027" lon="2.72083">
        <ele>1042.21</ele>
        <time>2015-06-11T09:03:28Z</time>
      </trkpt>
      <trkpt lat="45.07028" lon="2.72081">
        <ele>1043.17</ele>
        <time>2015-06-11T09:03:30Z</time>
      </trkpt>
      <trkpt lat="45.07024" lon="2.72063">
        <ele>1048.45</ele>
        <time>2015-06-11T09:03:44Z</time>
      </trkpt>
      <trkpt lat="45.07023" lon="2.72049">
        <ele>1047.01</ele>
        <time>2015-06-11T09:03:57Z</time>
      </trkpt>
      <trkpt lat="45.07022" lon="2.72035">
        <ele>1048.45</ele>
        <time>2015-06-11T09:04:10Z</time>
      </trkpt>
      <trkpt lat="45.07021" lon="2.72027">
        <ele>1049.9</ele>
        <time>2015-06-11T09:04:15Z</time>
      </trkpt>
      <trkpt lat="45.0702" lon="2.72023">
        <ele>1050.86</ele>
        <time>2015-06-11T09:04:18Z</time>
      </trkpt>
      <trkpt lat="45.07018" lon="2.72009">
        <ele>1050.86</ele>
        <time>2015-06-11T09:04:32Z</time>
      </trkpt>
      <trkpt lat="45.07014" lon="2.71997">
        <ele>1051.34</ele>
        <time>2015-06-11T09:04:45Z</time>
      </trkpt>
      <trkpt lat="45.07014" lon="2.71996">
        <ele>1051.34</ele>
        <time>2015-06-11T09:04:46Z</time>
      </trkpt>
      <trkpt lat="45.07009" lon="2.71978">
        <ele>1054.7</ele>
        <time>2015-06-11T09:05:01Z</time>
      </trkpt>
      <trkpt lat="45.07008" lon="2.71975">
        <ele>1055.18</ele>
        <time>2015-06-11T09:05:04Z</time>
      </trkpt>
      <trkpt lat="45.07001" lon="2.71968">
        <ele>1056.63</ele>
        <time>2015-06-11T09:05:15Z</time>
      </trkpt>
      <trkpt lat="45.06994" lon="2.71959">
        <ele>1058.55</ele>
        <time>2015-06-11T09:05:28Z</time>
      </trkpt>
      <trkpt lat="45.06984" lon="2.71957">
        <ele>1061.43</ele>
        <time>2015-06-11T09:05:40Z</time>
      </trkpt>
      <trkpt lat="45.06978" lon="2.7195">
        <ele>1063.84</ele>
        <time>2015-06-11T09:05:50Z</time>
      </trkpt>
      <trkpt lat="45.06974" lon="2.71946">
        <ele>1064.32</ele>
        <time>2015-06-11T09:06:04Z</time>
      </trkpt>
      <trkpt lat="45.06974" lon="2.71945">
        <ele>1063.84</ele>
        <time>2015-06-11T09:06:17Z</time>
      </trkpt>
      <trkpt lat="45.06968" lon="2.71937">
        <ele>1064.8</ele>
        <time>2015-06-11T09:06:26Z</time>
      </trkpt>
      <trkpt lat="45.06958" lon="2.71924">
        <ele>1064.8</ele>
        <time>2015-06-11T09:06:41Z</time>
      </trkpt>
      <trkpt lat="45.06949" lon="2.71913">
        <ele>1063.36</ele>
        <time>2015-06-11T09:06:53Z</time>
      </trkpt>
      <trkpt lat="45.06946" lon="2.7191">
        <ele>1063.84</ele>
        <time>2015-06-11T09:06:57Z</time>
      </trkpt>
      <trkpt lat="45.06945" lon="2.71905">
        <ele>1064.32</ele>
        <time>2015-06-11T09:07:00Z</time>
      </trkpt>
      <trkpt lat="45.06941" lon="2.719">
        <ele>1063.84</ele>
        <time>2015-06-11T09:07:05Z</time>
      </trkpt>
      <trkpt lat="45.0693" lon="2.71885">
        <ele>1061.91</ele>
        <time>2015-06-11T09:07:19Z</time>
      </trkpt>
      <trkpt lat="45.06927" lon="2.71879">
        <ele>1062.39</ele>
        <time>2015-06-11T09:07:29Z</time>
      </trkpt>
      <trkpt lat="45.06919" lon="2.7187">
        <ele>1061.91</ele>
        <time>2015-06-11T09:07:39Z</time>
      </trkpt>
      <trkpt lat="45.06909" lon="2.71865">
        <ele>1061.91</ele>
        <time>2015-06-11T09:07:49Z</time>
      </trkpt>
      <trkpt lat="45.06901" lon="2.71859">
        <ele>1061.43</ele>
        <time>2015-06-11T09:07:56Z</time>
      </trkpt>
      <trkpt lat="45.06896" lon="2.71855">
        <ele>1062.87</ele>
        <time>2015-06-11T09:08:08Z</time>
      </trkpt>
      <trkpt lat="45.06893" lon="2.71853">
        <ele>1062.87</ele>
        <time>2015-06-11T09:08:11Z</time>
      </trkpt>
      <trkpt lat="45.06882" lon="2.71843">
        <ele>1063.36</ele>
        <time>2015-06-11T09:08:23Z</time>
      </trkpt>
      <trkpt lat="45.0687" lon="2.7182">
        <ele>1061.43</ele>
        <time>2015-06-11T09:08:42Z</time>
      </trkpt>
      <trkpt lat="45.06852" lon="2.71812">
        <ele>1058.07</ele>
        <time>2015-06-11T09:08:58Z</time>
      </trkpt>
      <trkpt lat="45.06844" lon="2.71813">
        <ele>1057.11</ele>
        <time>2015-06-11T09:09:08Z</time>
      </trkpt>
      <trkpt lat="45.06833" lon="2.718">
        <ele>1055.67</ele>
        <time>2015-06-11T09:09:21Z</time>
      </trkpt>
      <trkpt lat="45.06839" lon="2.71782">
        <ele>1052.3</ele>
        <time>2015-06-11T09:09:34Z</time>
      </trkpt>
      <trkpt lat="45.06841" lon="2.71778">
        <ele>1052.3</ele>
        <time>2015-06-11T09:09:37Z</time>
      </trkpt>
      <trkpt lat="45.0684" lon="2.71773">
        <ele>1052.78</ele>
        <time>2015-06-11T09:09:40Z</time>
      </trkpt>
      <trkpt lat="45.06832" lon="2.71754">
        <ele>1053.26</ele>
        <time>2015-06-11T09:09:54Z</time>
      </trkpt>
      <trkpt lat="45.06831" lon="2.71748">
        <ele>1052.3</ele>
        <time>2015-06-11T09:09:58Z</time>
      </trkpt>
      <trkpt lat="45.06831" lon="2.71742">
        <ele>1050.86</ele>
        <time>2015-06-11T09:10:02Z</time>
      </trkpt>
      <trkpt lat="45.06837" lon="2.71735">
        <ele>1048.94</ele>
        <time>2015-06-11T09:10:09Z</time>
      </trkpt>
      <trkpt lat="45.06859" lon="2.71719">
        <ele>1043.17</ele>
        <time>2015-06-11T09:10:29Z</time>
      </trkpt>
      <trkpt lat="45.06861" lon="2.71717">
        <ele>1043.65</ele>
        <time>2015-06-11T09:10:33Z</time>
      </trkpt>
      <trkpt lat="45.0686" lon="2.71713">
        <ele>1044.13</ele>
        <time>2015-06-11T09:10:35Z</time>
      </trkpt>
      <trkpt lat="45.0686" lon="2.71706">
        <ele>1045.57</ele>
        <time>2015-06-11T09:10:38Z</time>
      </trkpt>
      <trkpt lat="45.06861" lon="2.71698">
        <ele>1047.49</ele>
        <time>2015-06-11T09:10:43Z</time>
      </trkpt>
      <trkpt lat="45.06863" lon="2.71687">
        <ele>1051.82</ele>
        <time>2015-06-11T09:10:56Z</time>
      </trkpt>
      <trkpt lat="45.06866" lon="2.71687">
        <ele>1052.78</ele>
        <time>2015-06-11T09:11:16Z</time>
      </trkpt>
      <trkpt lat="45.06874" lon="2.7169">
        <ele>1053.74</ele>
        <time>2015-06-11T09:11:27Z</time>
      </trkpt>
      <trkpt lat="45.06889" lon="2.71689">
        <ele>1054.22</ele>
        <time>2015-06-11T09:11:40Z</time>
      </trkpt>
      <trkpt lat="45.06895" lon="2.71687">
        <ele>1053.26</ele>
        <time>2015-06-11T09:11:45Z</time>
      </trkpt>
      <trkpt lat="45.06907" lon="2.71692">
        <ele>1053.26</ele>
        <time>2015-06-11T09:11:58Z</time>
      </trkpt>
      <trkpt lat="45.06909" lon="2.71693">
        <ele>1053.26</ele>
        <time>2015-06-11T09:12:00Z</time>
      </trkpt>
      <trkpt lat="45.06912" lon="2.71692">
        <ele>1053.26</ele>
        <time>2015-06-11T09:12:03Z</time>
      </trkpt>
      <trkpt lat="45.06919" lon="2.7169">
        <ele>1051.82</ele>
        <time>2015-06-11T09:12:16Z</time>
      </trkpt>
      <trkpt lat="45.06929" lon="2.71693">
        <ele>1053.26</ele>
        <time>2015-06-11T09:12:27Z</time>
      </trkpt>
      <trkpt lat="45.06942" lon="2.71696">
        <ele>1057.59</ele>
        <time>2015-06-11T09:12:43Z</time>
      </trkpt>
      <trkpt lat="45.06949" lon="2.71691">
        <ele>1059.51</ele>
        <time>2015-06-11T09:12:57Z</time>
      </trkpt>
      <trkpt lat="45.06955" lon="2.7169">
        <ele>1057.11</ele>
        <time>2015-06-11T09:13:10Z</time>
      </trkpt>
      <trkpt lat="45.06963" lon="2.71689">
        <ele>1057.11</ele>
        <time>2015-06-11T09:13:26Z</time>
      </trkpt>
      <trkpt lat="45.06974" lon="2.7169">
        <ele>1059.99</ele>
        <time>2015-06-11T09:13:40Z</time>
      </trkpt>
      <trkpt lat="45.06987" lon="2.71685">
        <ele>1063.84</ele>
        <time>2015-06-11T09:13:56Z</time>
      </trkpt>
      <trkpt lat="45.06998" lon="2.71685">
        <ele>1067.68</ele>
        <time>2015-06-11T09:14:12Z</time>
      </trkpt>
      <trkpt lat="45.07006" lon="2.71688">
        <ele>1071.05</ele>
        <time>2015-06-11T09:14:28Z</time>
      </trkpt>
      <trkpt lat="45.07013" lon="2.71687">
        <ele>1076.33</ele>
        <time>2015-06-11T09:14:43Z</time>
      </trkpt>
      <trkpt lat="45.07019" lon="2.71689">
        <ele>1075.85</ele>
        <time>2015-06-11T09:15:12Z</time>
      </trkpt>
      <trkpt lat="45.07027" lon="2.7169">
        <ele>1075.37</ele>
        <time>2015-06-11T09:15:28Z</time>
      </trkpt>
      <trkpt lat="45.07033" lon="2.71692">
        <ele>1075.37</ele>
        <time>2015-06-11T09:15:40Z</time>
      </trkpt>
      <trkpt lat="45.07043" lon="2.71694">
        <ele>1074.41</ele>
        <time>2015-06-11T09:15:50Z</time>
      </trkpt>
      <trkpt lat="45.07059" lon="2.71696">
        <ele>1074.89</ele>
        <time>2015-06-11T09:16:04Z</time>
      </trkpt>
      <trkpt lat="45.07072" lon="2.71712">
        <ele>1083.54</ele>
        <time>2015-06-11T09:16:18Z</time>
      </trkpt>
      <trkpt lat="45.0707" lon="2.71717">
        <ele>1084.5</ele>
        <time>2015-06-11T09:16:21Z</time>
      </trkpt>
      <trkpt lat="45.07061" lon="2.71726">
        <ele>1084.5</ele>
        <time>2015-06-11T09:16:31Z</time>
      </trkpt>
      <trkpt lat="45.07056" lon="2.71728">
        <ele>1084.5</ele>
        <time>2015-06-11T09:16:35Z</time>
      </trkpt>
      <trkpt lat="45.07049" lon="2.71735">
        <ele>1084.99</ele>
        <time>2015-06-11T09:16:42Z</time>
      </trkpt>
      <trkpt lat="45.07046" lon="2.71738">
        <ele>1084.99</ele>
        <time>2015-06-11T09:16:46Z</time>
      </trkpt>
      <trkpt lat="45.07039" lon="2.71745">
        <ele>1084.02</ele>
        <time>2015-06-11T09:16:56Z</time>
      </trkpt>
      <trkpt lat="45.07031" lon="2.71751">
        <ele>1083.06</ele>
        <time>2015-06-11T09:17:05Z</time>
      </trkpt>
      <trkpt lat="45.0702" lon="2.7176">
        <ele>1083.54</ele>
        <time>2015-06-11T09:17:18Z</time>
      </trkpt>
      <trkpt lat="45.07013" lon="2.71766">
        <ele>1084.02</ele>
        <time>2015-06-11T09:17:28Z</time>
      </trkpt>
      <trkpt lat="45.07001" lon="2.71774">
        <ele>1084.99</ele>
        <time>2015-06-11T09:17:40Z</time>
      </trkpt>
      <trkpt lat="45.06994" lon="2.71786">
        <ele>1084.5</ele>
        <time>2015-06-11T09:17:52Z</time>
      </trkpt>
      <trkpt lat="45.06987" lon="2.718">
        <ele>1083.06</ele>
        <time>2015-06-11T09:18:05Z</time>
      </trkpt>
      <trkpt lat="45.06985" lon="2.7181">
        <ele>1083.06</ele>
        <time>2015-06-11T09:18:12Z</time>
      </trkpt>
      <trkpt lat="45.06987" lon="2.71813">
        <ele>1083.54</ele>
        <time>2015-06-11T09:18:15Z</time>
      </trkpt>
      <trkpt lat="45.06994" lon="2.71822">
        <ele>1084.5</ele>
        <time>2015-06-11T09:18:26Z</time>
      </trkpt>
      <trkpt lat="45.07007" lon="2.71832">
        <ele>1087.39</ele>
        <time>2015-06-11T09:18:40Z</time>
      </trkpt>
      <trkpt lat="45.07017" lon="2.71843">
        <ele>1089.79</ele>
        <time>2015-06-11T09:18:54Z</time>
      </trkpt>
      <trkpt lat="45.07031" lon="2.71855">
        <ele>1090.27</ele>
        <time>2015-06-11T09:19:09Z</time>
      </trkpt>
      <trkpt lat="45.0704" lon="2.71864">
        <ele>1091.71</ele>
        <time>2015-06-11T09:19:21Z</time>
      </trkpt>
      <trkpt lat="45.07052" lon="2.71871">
        <ele>1091.71</ele>
        <time>2015-06-11T09:19:33Z</time>
      </trkpt>
      <trkpt lat="45.07064" lon="2.71878">
        <ele>1092.2</ele>
        <time>2015-06-11T09:19:47Z</time>
      </trkpt>
      <trkpt lat="45.07068" lon="2.71882">
        <ele>1093.16</ele>
        <time>2015-06-11T09:19:53Z</time>
      </trkpt>
      <trkpt lat="45.07076" lon="2.7188">
        <ele>1093.16</ele>
        <time>2015-06-11T09:20:06Z</time>
      </trkpt>
      <trkpt lat="45.0708" lon="2.71877">
        <ele>1094.6</ele>
        <time>2015-06-11T09:20:18Z</time>
      </trkpt>
      <trkpt lat="45.07087" lon="2.71874">
        <ele>1097.96</ele>
        <time>2015-06-11T09:20:36Z</time>
      </trkpt>
      <trkpt lat="45.0709" lon="2.71873">
        <ele>1099.4</ele>
        <time>2015-06-11T09:20:55Z</time>
      </trkpt>
      <trkpt lat="45.07097" lon="2.71871">
        <ele>1101.81</ele>
        <time>2015-06-11T09:21:10Z</time>
      </trkpt>
      <trkpt lat="45.07102" lon="2.71869">
        <ele>1103.25</ele>
        <time>2015-06-11T09:21:26Z</time>
      </trkpt>
      <trkpt lat="45.07109" lon="2.71865">
        <ele>1106.61</ele>
        <time>2015-06-11T09:21:42Z</time>
      </trkpt>
      <trkpt lat="45.07117" lon="2.71862">
        <ele>1109.98</ele>
        <time>2015-06-11T09:21:56Z</time>
      </trkpt>
      <trkpt lat="45.07125" lon="2.7186">
        <ele>1111.9</ele>
        <time>2015-06-11T09:22:09Z</time>
      </trkpt>
      <trkpt lat="45.07128" lon="2.71858">
        <ele>1111.9</ele>
        <time>2015-06-11T09:22:22Z</time>
      </trkpt>
      <trkpt lat="45.07138" lon="2.71849">
        <ele>1113.82</ele>
        <time>2015-06-11T09:22:40Z</time>
      </trkpt>
      <trkpt lat="45.07147" lon="2.71843">
        <ele>1114.31</ele>
        <time>2015-06-11T09:22:55Z</time>
      </trkpt>
      <trkpt lat="45.07152" lon="2.71839">
        <ele>1115.75</ele>
        <time>2015-06-11T09:23:07Z</time>
      </trkpt>
      <trkpt lat="45.07162" lon="2.7183">
        <ele>1114.31</ele>
        <time>2015-06-11T09:23:22Z</time>
      </trkpt>
      <trkpt lat="45.07171" lon="2.71826">
        <ele>1116.23</ele>
        <time>2015-06-11T09:23:34Z</time>
      </trkpt>
      <trkpt lat="45.0718" lon="2.71832">
        <ele>1117.67</ele>
        <time>2015-06-11T09:23:47Z</time>
      </trkpt>
      <trkpt lat="45.0719" lon="2.71837">
        <ele>1116.23</ele>
        <time>2015-06-11T09:23:59Z</time>
      </trkpt>
      <trkpt lat="45.07201" lon="2.71842">
        <ele>1117.19</ele>
        <time>2015-06-11T09:24:12Z</time>
      </trkpt>
      <trkpt lat="45.07213" lon="2.71842">
        <ele>1118.63</ele>
        <time>2015-06-11T09:24:27Z</time>
      </trkpt>
      <trkpt lat="45.07225" lon="2.71841">
        <ele>1118.63</ele>
        <time>2015-06-11T09:24:41Z</time>
      </trkpt>
      <trkpt lat="45.07235" lon="2.71847">
        <ele>1122</ele>
        <time>2015-06-11T09:24:53Z</time>
      </trkpt>
      <trkpt lat="45.07244" lon="2.71846">
        <ele>1122</ele>
        <time>2015-06-11T09:25:03Z</time>
      </trkpt>
      <trkpt lat="45.07246" lon="2.71844">
        <ele>1122</ele>
        <time>2015-06-11T09:25:07Z</time>
      </trkpt>
      <trkpt lat="45.07248" lon="2.71831">
        <ele>1125.36</ele>
        <time>2015-06-11T09:25:19Z</time>
      </trkpt>
      <trkpt lat="45.07248" lon="2.71827">
        <ele>1125.84</ele>
        <time>2015-06-11T09:25:23Z</time>
      </trkpt>
      <trkpt lat="45.07249" lon="2.71822">
        <ele>1125.84</ele>
        <time>2015-06-11T09:25:27Z</time>
      </trkpt>
      <trkpt lat="45.07252" lon="2.71805">
        <ele>1125.36</ele>
        <time>2015-06-11T09:25:40Z</time>
      </trkpt>
      <trkpt lat="45.07252" lon="2.718">
        <ele>1125.84</ele>
        <time>2015-06-11T09:25:52Z</time>
      </trkpt>
      <trkpt lat="45.07253" lon="2.71784">
        <ele>1127.28</ele>
        <time>2015-06-11T09:26:03Z</time>
      </trkpt>
      <trkpt lat="45.07257" lon="2.71768">
        <ele>1127.28</ele>
        <time>2015-06-11T09:26:15Z</time>
      </trkpt>
      <trkpt lat="45.07259" lon="2.71754">
        <ele>1126.32</ele>
        <time>2015-06-11T09:26:27Z</time>
      </trkpt>
      <trkpt lat="45.0726" lon="2.71747">
        <ele>1126.32</ele>
        <time>2015-06-11T09:26:40Z</time>
      </trkpt>
      <trkpt lat="45.07262" lon="2.71746">
        <ele>1126.8</ele>
        <time>2015-06-11T09:27:00Z</time>
      </trkpt>
      <trkpt lat="45.07263" lon="2.71739">
        <ele>1127.76</ele>
        <time>2015-06-11T09:27:05Z</time>
      </trkpt>
      <trkpt lat="45.07263" lon="2.71733">
        <ele>1127.76</ele>
        <time>2015-06-11T09:27:09Z</time>
      </trkpt>
      <trkpt lat="45.07266" lon="2.71725">
        <ele>1128.24</ele>
        <time>2015-06-11T09:27:15Z</time>
      </trkpt>
      <trkpt lat="45.07271" lon="2.71715">
        <ele>1128.73</ele>
        <time>2015-06-11T09:27:28Z</time>
      </trkpt>
      <trkpt lat="45.07276" lon="2.71712">
        <ele>1129.21</ele>
        <time>2015-06-11T09:27:35Z</time>
      </trkpt>
      <trkpt lat="45.07281" lon="2.71705">
        <ele>1129.21</ele>
        <time>2015-06-11T09:27:51Z</time>
      </trkpt>
      <trkpt lat="45.07282" lon="2.71703">
        <ele>1130.17</ele>
        <time>2015-06-11T09:28:15Z</time>
      </trkpt>
      <trkpt lat="45.07282" lon="2.71705">
        <ele>1130.17</ele>
        <time>2015-06-11T09:28:41Z</time>
      </trkpt>
      <trkpt lat="45.07283" lon="2.71705">
        <ele>1130.17</ele>
        <time>2015-06-11T09:29:02Z</time>
      </trkpt>
      <trkpt lat="45.07284" lon="2.71706">
        <ele>1130.65</ele>
        <time>2015-06-11T09:29:25Z</time>
      </trkpt>
      <trkpt lat="45.07283" lon="2.71704">
        <ele>1130.17</ele>
        <time>2015-06-11T09:29:54Z</time>
      </trkpt>
      <trkpt lat="45.07283" lon="2.71703">
        <ele>1130.17</ele>
        <time>2015-06-11T09:30:20Z</time>
      </trkpt>
      <trkpt lat="45.07283" lon="2.71703">
        <ele>1129.69</ele>
        <time>2015-06-11T09:30:46Z</time>
      </trkpt>
      <trkpt lat="45.07287" lon="2.71708">
        <ele>1131.13</ele>
        <time>2015-06-11T09:31:08Z</time>
      </trkpt>
      <trkpt lat="45.07286" lon="2.7171">
        <ele>1131.61</ele>
        <time>2015-06-11T09:31:32Z</time>
      </trkpt>
      <trkpt lat="45.07282" lon="2.71703">
        <ele>1132.57</ele>
        <time>2015-06-11T09:31:38Z</time>
      </trkpt>
      <trkpt lat="45.07275" lon="2.71695">
        <ele>1135.94</ele>
        <time>2015-06-11T09:32:03Z</time>
      </trkpt>
      <trkpt lat="45.07278" lon="2.71699">
        <ele>1137.38</ele>
        <time>2015-06-11T09:32:23Z</time>
      </trkpt>
      <trkpt lat="45.0728" lon="2.71699">
        <ele>1137.86</ele>
        <time>2015-06-11T09:32:50Z</time>
      </trkpt>
      <trkpt lat="45.07281" lon="2.71699">
        <ele>1137.86</ele>
        <time>2015-06-11T09:33:13Z</time>
      </trkpt>
      <trkpt lat="45.07281" lon="2.71699">
        <ele>1137.86</ele>
        <time>2015-06-11T09:33:38Z</time>
      </trkpt>
      <trkpt lat="45.07281" lon="2.71701">
        <ele>1137.38</ele>
        <time>2015-06-11T09:34:00Z</time>
      </trkpt>
      <trkpt lat="45.07279" lon="2.71702">
        <ele>1134.49</ele>
        <time>2015-06-11T09:34:21Z</time>
      </trkpt>
      <trkpt lat="45.07279" lon="2.71703">
        <ele>1134.01</ele>
        <time>2015-06-11T09:34:46Z</time>
      </trkpt>
      <trkpt lat="45.0728" lon="2.71702">
        <ele>1133.53</ele>
        <time>2015-06-11T09:35:11Z</time>
      </trkpt>
      <trkpt lat="45.0728" lon="2.71704">
        <ele>1133.05</ele>
        <time>2015-06-11T09:35:29Z</time>
      </trkpt>
      <trkpt lat="45.07277" lon="2.71704">
        <ele>1130.65</ele>
        <time>2015-06-11T09:35:48Z</time>
      </trkpt>
      <trkpt lat="45.07277" lon="2.71692">
        <ele>1129.69</ele>
        <time>2015-06-11T09:36:01Z</time>
      </trkpt>
      <trkpt lat="45.07278" lon="2.71691">
        <ele>1130.17</ele>
        <time>2015-06-11T09:36:14Z</time>
      </trkpt>
      <trkpt lat="45.07277" lon="2.7169">
        <ele>1130.65</ele>
        <time>2015-06-11T09:36:41Z</time>
      </trkpt>
      <trkpt lat="45.07278" lon="2.71686">
        <ele>1130.17</ele>
        <time>2015-06-11T09:37:01Z</time>
      </trkpt>
      <trkpt lat="45.07279" lon="2.71686">
        <ele>1130.17</ele>
        <time>2015-06-11T09:37:02Z</time>
      </trkpt>
      <trkpt lat="45.07281" lon="2.71681">
        <ele>1129.21</ele>
        <time>2015-06-11T09:37:06Z</time>
      </trkpt>
      <trkpt lat="45.07285" lon="2.71663">
        <ele>1126.32</ele>
        <time>2015-06-11T09:37:19Z</time>
      </trkpt>
      <trkpt lat="45.07286" lon="2.71649">
        <ele>1126.8</ele>
        <time>2015-06-11T09:37:28Z</time>
      </trkpt>
      <trkpt lat="45.07284" lon="2.71644">
        <ele>1127.28</ele>
        <time>2015-06-11T09:37:31Z</time>
      </trkpt>
      <trkpt lat="45.07284" lon="2.71639">
        <ele>1129.21</ele>
        <time>2015-06-11T09:37:35Z</time>
      </trkpt>
      <trkpt lat="45.07284" lon="2.71621">
        <ele>1129.69</ele>
        <time>2015-06-11T09:37:48Z</time>
      </trkpt>
      <trkpt lat="45.07282" lon="2.71603">
        <ele>1131.61</ele>
        <time>2015-06-11T09:37:59Z</time>
      </trkpt>
      <trkpt lat="45.07282" lon="2.71599">
        <ele>1131.13</ele>
        <time>2015-06-11T09:38:02Z</time>
      </trkpt>
      <trkpt lat="45.07279" lon="2.71583">
        <ele>1133.05</ele>
        <time>2015-06-11T09:38:14Z</time>
      </trkpt>
      <trkpt lat="45.07273" lon="2.71574">
        <ele>1132.57</ele>
        <time>2015-06-11T09:38:21Z</time>
      </trkpt>
      <trkpt lat="45.07262" lon="2.7156">
        <ele>1133.53</ele>
        <time>2015-06-11T09:38:34Z</time>
      </trkpt>
      <trkpt lat="45.07252" lon="2.7155">
        <ele>1135.94</ele>
        <time>2015-06-11T09:38:46Z</time>
      </trkpt>
      <trkpt lat="45.07248" lon="2.71545">
        <ele>1136.42</ele>
        <time>2015-06-11T09:38:51Z</time>
      </trkpt>
      <trkpt lat="45.07241" lon="2.71537">
        <ele>1137.38</ele>
        <time>2015-06-11T09:38:58Z</time>
      </trkpt>
      <trkpt lat="45.0723" lon="2.71532">
        <ele>1137.86</ele>
        <time>2015-06-11T09:39:09Z</time>
      </trkpt>
      <trkpt lat="45.07221" lon="2.71527">
        <ele>1136.9</ele>
        <time>2015-06-11T09:39:19Z</time>
      </trkpt>
      <trkpt lat="45.07207" lon="2.71527">
        <ele>1137.86</ele>
        <time>2015-06-11T09:39:30Z</time>
      </trkpt>
      <trkpt lat="45.072" lon="2.71519">
        <ele>1137.38</ele>
        <time>2015-06-11T09:39:39Z</time>
      </trkpt>
      <trkpt lat="45.07198" lon="2.71517">
        <ele>1137.38</ele>
        <time>2015-06-11T09:39:41Z</time>
      </trkpt>
      <trkpt lat="45.07191" lon="2.71512">
        <ele>1137.38</ele>
        <time>2015-06-11T09:39:48Z</time>
      </trkpt>
      <trkpt lat="45.07185" lon="2.71506">
        <ele>1136.42</ele>
        <time>2015-06-11T09:39:54Z</time>
      </trkpt>
      <trkpt lat="45.07175" lon="2.71491">
        <ele>1137.38</ele>
        <time>2015-06-11T09:40:08Z</time>
      </trkpt>
      <trkpt lat="45.0718" lon="2.71484">
        <ele>1137.38</ele>
        <time>2015-06-11T09:40:19Z</time>
      </trkpt>
      <trkpt lat="45.07179" lon="2.71478">
        <ele>1137.86</ele>
        <time>2015-06-11T09:40:26Z</time>
      </trkpt>
      <trkpt lat="45.07178" lon="2.71475">
        <ele>1137.38</ele>
        <time>2015-06-11T09:40:29Z</time>
      </trkpt>
      <trkpt lat="45.07171" lon="2.71464">
        <ele>1140.26</ele>
        <time>2015-06-11T09:40:42Z</time>
      </trkpt>
      <trkpt lat="45.07165" lon="2.71457">
        <ele>1143.14</ele>
        <time>2015-06-11T09:40:56Z</time>
      </trkpt>
      <trkpt lat="45.07157" lon="2.71451">
        <ele>1146.03</ele>
        <time>2015-06-11T09:41:13Z</time>
      </trkpt>
      <trkpt lat="45.07151" lon="2.71443">
        <ele>1149.87</ele>
        <time>2015-06-11T09:41:26Z</time>
      </trkpt>
      <trkpt lat="45.07146" lon="2.71432">
        <ele>1153.24</ele>
        <time>2015-06-11T09:41:40Z</time>
      </trkpt>
      <trkpt lat="45.07142" lon="2.71423">
        <ele>1153.72</ele>
        <time>2015-06-11T09:41:53Z</time>
      </trkpt>
      <trkpt lat="45.0714" lon="2.7142">
        <ele>1153.72</ele>
        <time>2015-06-11T09:41:58Z</time>
      </trkpt>
      <trkpt lat="45.07129" lon="2.71412">
        <ele>1152.76</ele>
        <time>2015-06-11T09:42:11Z</time>
      </trkpt>
      <trkpt lat="45.07123" lon="2.71407">
        <ele>1156.12</ele>
        <time>2015-06-11T09:42:20Z</time>
      </trkpt>
      <trkpt lat="45.07117" lon="2.71403">
        <ele>1160.93</ele>
        <time>2015-06-11T09:42:31Z</time>
      </trkpt>
      <trkpt lat="45.0711" lon="2.71392">
        <ele>1163.33</ele>
        <time>2015-06-11T09:42:44Z</time>
      </trkpt>
      <trkpt lat="45.07106" lon="2.71385">
        <ele>1167.66</ele>
        <time>2015-06-11T09:42:56Z</time>
      </trkpt>
      <trkpt lat="45.07102" lon="2.71374">
        <ele>1169.58</ele>
        <time>2015-06-11T09:43:10Z</time>
      </trkpt>
      <trkpt lat="45.07097" lon="2.71362">
        <ele>1170.06</ele>
        <time>2015-06-11T09:43:22Z</time>
      </trkpt>
      <trkpt lat="45.07092" lon="2.71343">
        <ele>1170.06</ele>
        <time>2015-06-11T09:43:35Z</time>
      </trkpt>
      <trkpt lat="45.07086" lon="2.71333">
        <ele>1171.5</ele>
        <time>2015-06-11T09:43:45Z</time>
      </trkpt>
      <trkpt lat="45.07075" lon="2.71323">
        <ele>1175.35</ele>
        <time>2015-06-11T09:43:59Z</time>
      </trkpt>
      <trkpt lat="45.07068" lon="2.71312">
        <ele>1174.87</ele>
        <time>2015-06-11T09:44:12Z</time>
      </trkpt>
      <trkpt lat="45.07063" lon="2.71302">
        <ele>1173.91</ele>
        <time>2015-06-11T09:44:25Z</time>
      </trkpt>
      <trkpt lat="45.07059" lon="2.71291">
        <ele>1172.95</ele>
        <time>2015-06-11T09:44:38Z</time>
      </trkpt>
      <trkpt lat="45.0706" lon="2.71282">
        <ele>1172.95</ele>
        <time>2015-06-11T09:44:46Z</time>
      </trkpt>
      <trkpt lat="45.07062" lon="2.71267">
        <ele>1175.83</ele>
        <time>2015-06-11T09:45:01Z</time>
      </trkpt>
      <trkpt lat="45.07068" lon="2.71259">
        <ele>1176.31</ele>
        <time>2015-06-11T09:45:14Z</time>
      </trkpt>
      <trkpt lat="45.07077" lon="2.71259">
        <ele>1176.79</ele>
        <time>2015-06-11T09:45:28Z</time>
      </trkpt>
      <trkpt lat="45.07078" lon="2.71275">
        <ele>1178.71</ele>
        <time>2015-06-11T09:45:43Z</time>
      </trkpt>
      <trkpt lat="45.07088" lon="2.71284">
        <ele>1180.16</ele>
        <time>2015-06-11T09:45:57Z</time>
      </trkpt>
      <trkpt lat="45.07092" lon="2.71287">
        <ele>1180.16</ele>
        <time>2015-06-11T09:46:04Z</time>
      </trkpt>
      <trkpt lat="45.07105" lon="2.71295">
        <ele>1178.71</ele>
        <time>2015-06-11T09:46:18Z</time>
      </trkpt>
      <trkpt lat="45.07115" lon="2.713">
        <ele>1178.71</ele>
        <time>2015-06-11T09:46:32Z</time>
      </trkpt>
      <trkpt lat="45.07123" lon="2.71313">
        <ele>1180.16</ele>
        <time>2015-06-11T09:46:48Z</time>
      </trkpt>
      <trkpt lat="45.07133" lon="2.7132">
        <ele>1184.48</ele>
        <time>2015-06-11T09:47:03Z</time>
      </trkpt>
      <trkpt lat="45.07142" lon="2.71326">
        <ele>1186.4</ele>
        <time>2015-06-11T09:47:17Z</time>
      </trkpt>
      <trkpt lat="45.0715" lon="2.71329">
        <ele>1188.33</ele>
        <time>2015-06-11T09:47:27Z</time>
      </trkpt>
      <trkpt lat="45.07158" lon="2.71331">
        <ele>1189.77</ele>
        <time>2015-06-11T09:47:41Z</time>
      </trkpt>
      <trkpt lat="45.07164" lon="2.71333">
        <ele>1189.29</ele>
        <time>2015-06-11T09:47:53Z</time>
      </trkpt>
      <trkpt lat="45.07175" lon="2.71331">
        <ele>1191.69</ele>
        <time>2015-06-11T09:48:06Z</time>
      </trkpt>
      <trkpt lat="45.07188" lon="2.71328">
        <ele>1195.54</ele>
        <time>2015-06-11T09:48:23Z</time>
      </trkpt>
      <trkpt lat="45.07196" lon="2.71326">
        <ele>1198.9</ele>
        <time>2015-06-11T09:48:37Z</time>
      </trkpt>
      <trkpt lat="45.07204" lon="2.71324">
        <ele>1200.82</ele>
        <time>2015-06-11T09:48:47Z</time>
      </trkpt>
      <trkpt lat="45.07217" lon="2.71323">
        <ele>1202.75</ele>
        <time>2015-06-11T09:49:02Z</time>
      </trkpt>
      <trkpt lat="45.07229" lon="2.71319">
        <ele>1202.75</ele>
        <time>2015-06-11T09:49:11Z</time>
      </trkpt>
      <trkpt lat="45.0724" lon="2.71314">
        <ele>1202.27</ele>
        <time>2015-06-11T09:49:26Z</time>
      </trkpt>
      <trkpt lat="45.07244" lon="2.71309">
        <ele>1203.23</ele>
        <time>2015-06-11T09:49:39Z</time>
      </trkpt>
      <trkpt lat="45.0724" lon="2.71299">
        <ele>1206.59</ele>
        <time>2015-06-11T09:49:52Z</time>
      </trkpt>
      <trkpt lat="45.07234" lon="2.71292">
        <ele>1206.11</ele>
        <time>2015-06-11T09:50:06Z</time>
      </trkpt>
      <trkpt lat="45.07228" lon="2.71287">
        <ele>1206.59</ele>
        <time>2015-06-11T09:50:18Z</time>
      </trkpt>
      <trkpt lat="45.07219" lon="2.71279">
        <ele>1207.55</ele>
        <time>2015-06-11T09:50:32Z</time>
      </trkpt>
      <trkpt lat="45.07209" lon="2.71274">
        <ele>1206.59</ele>
        <time>2015-06-11T09:50:49Z</time>
      </trkpt>
      <trkpt lat="45.07201" lon="2.7127">
        <ele>1206.59</ele>
        <time>2015-06-11T09:51:01Z</time>
      </trkpt>
      <trkpt lat="45.07197" lon="2.71267">
        <ele>1207.07</ele>
        <time>2015-06-11T09:51:14Z</time>
      </trkpt>
      <trkpt lat="45.07192" lon="2.71265">
        <ele>1209</ele>
        <time>2015-06-11T09:51:22Z</time>
      </trkpt>
      <trkpt lat="45.07185" lon="2.71255">
        <ele>1211.88</ele>
        <time>2015-06-11T09:51:34Z</time>
      </trkpt>
      <trkpt lat="45.07181" lon="2.7125">
        <ele>1213.8</ele>
        <time>2015-06-11T09:51:39Z</time>
      </trkpt>
      <trkpt lat="45.07179" lon="2.71248">
        <ele>1214.76</ele>
        <time>2015-06-11T09:51:41Z</time>
      </trkpt>
      <trkpt lat="45.07172" lon="2.71236">
        <ele>1215.24</ele>
        <time>2015-06-11T09:51:55Z</time>
      </trkpt>
      <trkpt lat="45.07168" lon="2.7122">
        <ele>1216.69</ele>
        <time>2015-06-11T09:52:08Z</time>
      </trkpt>
      <trkpt lat="45.07166" lon="2.71207">
        <ele>1215.24</ele>
        <time>2015-06-11T09:52:21Z</time>
      </trkpt>
      <trkpt lat="45.07166" lon="2.71205">
        <ele>1216.21</ele>
        <time>2015-06-11T09:52:23Z</time>
      </trkpt>
      <trkpt lat="45.07169" lon="2.71188">
        <ele>1217.65</ele>
        <time>2015-06-11T09:52:36Z</time>
      </trkpt>
      <trkpt lat="45.07169" lon="2.71188">
        <ele>1217.17</ele>
        <time>2015-06-11T09:52:37Z</time>
      </trkpt>
      <trkpt lat="45.07173" lon="2.71183">
        <ele>1217.17</ele>
        <time>2015-06-11T09:52:44Z</time>
      </trkpt>
      <trkpt lat="45.07181" lon="2.71173">
        <ele>1216.21</ele>
        <time>2015-06-11T09:52:57Z</time>
      </trkpt>
      <trkpt lat="45.07185" lon="2.71162">
        <ele>1218.13</ele>
        <time>2015-06-11T09:53:08Z</time>
      </trkpt>
      <trkpt lat="45.07186" lon="2.71161">
        <ele>1218.61</ele>
        <time>2015-06-11T09:53:10Z</time>
      </trkpt>
      <trkpt lat="45.07195" lon="2.71154">
        <ele>1220.53</ele>
        <time>2015-06-11T09:53:23Z</time>
      </trkpt>
      <trkpt lat="45.07203" lon="2.71145">
        <ele>1222.45</ele>
        <time>2015-06-11T09:53:34Z</time>
      </trkpt>
      <trkpt lat="45.07208" lon="2.71136">
        <ele>1224.38</ele>
        <time>2015-06-11T09:53:43Z</time>
      </trkpt>
      <trkpt lat="45.07217" lon="2.7114">
        <ele>1225.82</ele>
        <time>2015-06-11T09:53:55Z</time>
      </trkpt>
      <trkpt lat="45.07218" lon="2.71143">
        <ele>1226.78</ele>
        <time>2015-06-11T09:53:58Z</time>
      </trkpt>
      <trkpt lat="45.07219" lon="2.71156">
        <ele>1229.66</ele>
        <time>2015-06-11T09:54:13Z</time>
      </trkpt>
      <trkpt lat="45.07222" lon="2.71171">
        <ele>1231.59</ele>
        <time>2015-06-11T09:54:27Z</time>
      </trkpt>
      <trkpt lat="45.07229" lon="2.71182">
        <ele>1233.99</ele>
        <time>2015-06-11T09:54:43Z</time>
      </trkpt>
      <trkpt lat="45.0723" lon="2.71183">
        <ele>1234.47</ele>
        <time>2015-06-11T09:54:44Z</time>
      </trkpt>
      <trkpt lat="45.07238" lon="2.71189">
        <ele>1236.39</ele>
        <time>2015-06-11T09:54:59Z</time>
      </trkpt>
      <trkpt lat="45.07239" lon="2.7119">
        <ele>1236.39</ele>
        <time>2015-06-11T09:55:08Z</time>
      </trkpt>
      <trkpt lat="45.0725" lon="2.71197">
        <ele>1238.32</ele>
        <time>2015-06-11T09:55:21Z</time>
      </trkpt>
      <trkpt lat="45.07255" lon="2.71201">
        <ele>1239.28</ele>
        <time>2015-06-11T09:55:28Z</time>
      </trkpt>
      <trkpt lat="45.07267" lon="2.71208">
        <ele>1238.32</ele>
        <time>2015-06-11T09:55:42Z</time>
      </trkpt>
      <trkpt lat="45.07276" lon="2.71214">
        <ele>1238.32</ele>
        <time>2015-06-11T09:55:54Z</time>
      </trkpt>
      <trkpt lat="45.07286" lon="2.71217">
        <ele>1240.24</ele>
        <time>2015-06-11T09:56:06Z</time>
      </trkpt>
      <trkpt lat="45.07295" lon="2.71219">
        <ele>1240.24</ele>
        <time>2015-06-11T09:56:17Z</time>
      </trkpt>
      <trkpt lat="45.07298" lon="2.71219">
        <ele>1241.2</ele>
        <time>2015-06-11T09:56:29Z</time>
      </trkpt>
      <trkpt lat="45.07303" lon="2.71221">
        <ele>1241.2</ele>
        <time>2015-06-11T09:56:45Z</time>
      </trkpt>
      <trkpt lat="45.07307" lon="2.71221">
        <ele>1241.68</ele>
        <time>2015-06-11T09:56:57Z</time>
      </trkpt>
      <trkpt lat="45.07307" lon="2.7122">
        <ele>1242.16</ele>
        <time>2015-06-11T09:57:14Z</time>
      </trkpt>
      <trkpt lat="45.07308" lon="2.71219">
        <ele>1242.16</ele>
        <time>2015-06-11T09:57:29Z</time>
      </trkpt>
      <trkpt lat="45.07314" lon="2.71221">
        <ele>1243.6</ele>
        <time>2015-06-11T09:57:44Z</time>
      </trkpt>
      <trkpt lat="45.07317" lon="2.71221">
        <ele>1244.08</ele>
        <time>2015-06-11T09:57:48Z</time>
      </trkpt>
      <trkpt lat="45.07329" lon="2.7122">
        <ele>1242.64</ele>
        <time>2015-06-11T09:58:03Z</time>
      </trkpt>
      <trkpt lat="45.07338" lon="2.71217">
        <ele>1245.53</ele>
        <time>2015-06-11T09:58:16Z</time>
      </trkpt>
      <trkpt lat="45.07335" lon="2.71213">
        <ele>1247.45</ele>
        <time>2015-06-11T09:58:30Z</time>
      </trkpt>
      <trkpt lat="45.07327" lon="2.7121">
        <ele>1246.97</ele>
        <time>2015-06-11T09:58:43Z</time>
      </trkpt>
      <trkpt lat="45.07317" lon="2.71208">
        <ele>1250.33</ele>
        <time>2015-06-11T09:58:55Z</time>
      </trkpt>
      <trkpt lat="45.07307" lon="2.71203">
        <ele>1257.54</ele>
        <time>2015-06-11T09:59:07Z</time>
      </trkpt>
      <trkpt lat="45.073" lon="2.71195">
        <ele>1261.39</ele>
        <time>2015-06-11T09:59:17Z</time>
      </trkpt>
      <trkpt lat="45.07295" lon="2.71183">
        <ele>1258.98</ele>
        <time>2015-06-11T09:59:27Z</time>
      </trkpt>
      <trkpt lat="45.07291" lon="2.71168">
        <ele>1260.91</ele>
        <time>2015-06-11T09:59:40Z</time>
      </trkpt>
      <trkpt lat="45.07289" lon="2.71162">
        <ele>1261.87</ele>
        <time>2015-06-11T09:59:47Z</time>
      </trkpt>
      <trkpt lat="45.07291" lon="2.71142">
        <ele>1260.43</ele>
        <time>2015-06-11T10:00:02Z</time>
      </trkpt>
      <trkpt lat="45.07292" lon="2.71128">
        <ele>1261.39</ele>
        <time>2015-06-11T10:00:15Z</time>
      </trkpt>
      <trkpt lat="45.07293" lon="2.71126">
        <ele>1261.87</ele>
        <time>2015-06-11T10:00:17Z</time>
      </trkpt>
      <trkpt lat="45.07299" lon="2.71115">
        <ele>1261.87</ele>
        <time>2015-06-11T10:00:29Z</time>
      </trkpt>
      <trkpt lat="45.07304" lon="2.71101">
        <ele>1263.79</ele>
        <time>2015-06-11T10:00:42Z</time>
      </trkpt>
      <trkpt lat="45.07305" lon="2.71099">
        <ele>1263.79</ele>
        <time>2015-06-11T10:00:44Z</time>
      </trkpt>
      <trkpt lat="45.0731" lon="2.71087">
        <ele>1264.27</ele>
        <time>2015-06-11T10:00:58Z</time>
      </trkpt>
      <trkpt lat="45.07317" lon="2.71073">
        <ele>1263.79</ele>
        <time>2015-06-11T10:01:12Z</time>
      </trkpt>
      <trkpt lat="45.07321" lon="2.71062">
        <ele>1265.23</ele>
        <time>2015-06-11T10:01:25Z</time>
      </trkpt>
      <trkpt lat="45.07324" lon="2.71052">
        <ele>1266.19</ele>
        <time>2015-06-11T10:01:35Z</time>
      </trkpt>
      <trkpt lat="45.07324" lon="2.71036">
        <ele>1270.04</ele>
        <time>2015-06-11T10:01:48Z</time>
      </trkpt>
      <trkpt lat="45.07327" lon="2.71021">
        <ele>1272.44</ele>
        <time>2015-06-11T10:02:03Z</time>
      </trkpt>
      <trkpt lat="45.07328" lon="2.71016">
        <ele>1272.92</ele>
        <time>2015-06-11T10:02:09Z</time>
      </trkpt>
      <trkpt lat="45.07327" lon="2.70999">
        <ele>1277.25</ele>
        <time>2015-06-11T10:02:24Z</time>
      </trkpt>
      <trkpt lat="45.07327" lon="2.70983">
        <ele>1279.65</ele>
        <time>2015-06-11T10:02:37Z</time>
      </trkpt>
      <trkpt lat="45.07329" lon="2.70975">
        <ele>1280.61</ele>
        <time>2015-06-11T10:02:45Z</time>
      </trkpt>
      <trkpt lat="45.07329" lon="2.7096">
        <ele>1282.54</ele>
        <time>2015-06-11T10:02:59Z</time>
      </trkpt>
      <trkpt lat="45.07327" lon="2.70944">
        <ele>1285.9</ele>
        <time>2015-06-11T10:03:13Z</time>
      </trkpt>
      <trkpt lat="45.07324" lon="2.7093">
        <ele>1288.3</ele>
        <time>2015-06-11T10:03:26Z</time>
      </trkpt>
      <trkpt lat="45.07322" lon="2.70925">
        <ele>1287.82</ele>
        <time>2015-06-11T10:03:31Z</time>
      </trkpt>
      <trkpt lat="45.07322" lon="2.70911">
        <ele>1288.3</ele>
        <time>2015-06-11T10:03:44Z</time>
      </trkpt>
      <trkpt lat="45.0732" lon="2.709">
        <ele>1290.23</ele>
        <time>2015-06-11T10:03:55Z</time>
      </trkpt>
      <trkpt lat="45.07318" lon="2.70886">
        <ele>1289.27</ele>
        <time>2015-06-11T10:04:08Z</time>
      </trkpt>
      <trkpt lat="45.07321" lon="2.7088">
        <ele>1289.27</ele>
        <time>2015-06-11T10:04:19Z</time>
      </trkpt>
      <trkpt lat="45.0732" lon="2.7088">
        <ele>1290.23</ele>
        <time>2015-06-11T10:04:34Z</time>
      </trkpt>
      <trkpt lat="45.0732" lon="2.70879">
        <ele>1290.23</ele>
        <time>2015-06-11T10:04:40Z</time>
      </trkpt>
      <trkpt lat="45.07325" lon="2.70865">
        <ele>1290.71</ele>
        <time>2015-06-11T10:04:53Z</time>
      </trkpt>
      <trkpt lat="45.07326" lon="2.70859">
        <ele>1293.11</ele>
        <time>2015-06-11T10:05:01Z</time>
      </trkpt>
      <trkpt lat="45.07326" lon="2.70854">
        <ele>1292.63</ele>
        <time>2015-06-11T10:05:05Z</time>
      </trkpt>
      <trkpt lat="45.07321" lon="2.70841">
        <ele>1292.15</ele>
        <time>2015-06-11T10:05:18Z</time>
      </trkpt>
      <trkpt lat="45.07315" lon="2.7083">
        <ele>1289.27</ele>
        <time>2015-06-11T10:05:30Z</time>
      </trkpt>
      <trkpt lat="45.07304" lon="2.70827">
        <ele>1288.78</ele>
        <time>2015-06-11T10:05:43Z</time>
      </trkpt>
      <trkpt lat="45.07297" lon="2.70823">
        <ele>1289.27</ele>
        <time>2015-06-11T10:05:50Z</time>
      </trkpt>
      <trkpt lat="45.07292" lon="2.70821">
        <ele>1290.71</ele>
        <time>2015-06-11T10:05:55Z</time>
      </trkpt>
      <trkpt lat="45.07286" lon="2.70818">
        <ele>1292.63</ele>
        <time>2015-06-11T10:06:01Z</time>
      </trkpt>
      <trkpt lat="45.07273" lon="2.70811">
        <ele>1297.44</ele>
        <time>2015-06-11T10:06:13Z</time>
      </trkpt>
      <trkpt lat="45.07267" lon="2.70798">
        <ele>1297.92</ele>
        <time>2015-06-11T10:06:26Z</time>
      </trkpt>
      <trkpt lat="45.07262" lon="2.70783">
        <ele>1296.48</ele>
        <time>2015-06-11T10:06:39Z</time>
      </trkpt>
      <trkpt lat="45.07262" lon="2.70777">
        <ele>1296.48</ele>
        <time>2015-06-11T10:06:52Z</time>
      </trkpt>
      <trkpt lat="45.07262" lon="2.70772">
        <ele>1297.92</ele>
        <time>2015-06-11T10:06:57Z</time>
      </trkpt>
      <trkpt lat="45.07263" lon="2.70754">
        <ele>1298.88</ele>
        <time>2015-06-11T10:07:11Z</time>
      </trkpt>
      <trkpt lat="45.07263" lon="2.7075">
        <ele>1300.32</ele>
        <time>2015-06-11T10:07:14Z</time>
      </trkpt>
      <trkpt lat="45.07264" lon="2.70747">
        <ele>1301.28</ele>
        <time>2015-06-11T10:07:16Z</time>
      </trkpt>
      <trkpt lat="45.07266" lon="2.70731">
        <ele>1303.2</ele>
        <time>2015-06-11T10:07:28Z</time>
      </trkpt>
      <trkpt lat="45.07268" lon="2.70717">
        <ele>1305.61</ele>
        <time>2015-06-11T10:07:39Z</time>
      </trkpt>
      <trkpt lat="45.07271" lon="2.70707">
        <ele>1304.17</ele>
        <time>2015-06-11T10:07:47Z</time>
      </trkpt>
      <trkpt lat="45.0727" lon="2.70703">
        <ele>1304.65</ele>
        <time>2015-06-11T10:07:51Z</time>
      </trkpt>
      <trkpt lat="45.0727" lon="2.70687">
        <ele>1305.61</ele>
        <time>2015-06-11T10:08:02Z</time>
      </trkpt>
      <trkpt lat="45.07265" lon="2.70672">
        <ele>1310.9</ele>
        <time>2015-06-11T10:08:17Z</time>
      </trkpt>
      <trkpt lat="45.07262" lon="2.70658">
        <ele>1312.34</ele>
        <time>2015-06-11T10:08:30Z</time>
      </trkpt>
      <trkpt lat="45.0726" lon="2.70647">
        <ele>1311.38</ele>
        <time>2015-06-11T10:08:41Z</time>
      </trkpt>
      <trkpt lat="45.07261" lon="2.70635">
        <ele>1312.34</ele>
        <time>2015-06-11T10:08:51Z</time>
      </trkpt>
      <trkpt lat="45.0726" lon="2.70619">
        <ele>1313.78</ele>
        <time>2015-06-11T10:09:05Z</time>
      </trkpt>
      <trkpt lat="45.0726" lon="2.70615">
        <ele>1313.78</ele>
        <time>2015-06-11T10:09:09Z</time>
      </trkpt>
      <trkpt lat="45.0726" lon="2.70599">
        <ele>1316.18</ele>
        <time>2015-06-11T10:09:22Z</time>
      </trkpt>
      <trkpt lat="45.07262" lon="2.70585">
        <ele>1318.1</ele>
        <time>2015-06-11T10:09:34Z</time>
      </trkpt>
      <trkpt lat="45.07265" lon="2.70576">
        <ele>1319.55</ele>
        <time>2015-06-11T10:09:45Z</time>
      </trkpt>
      <trkpt lat="45.0727" lon="2.70562">
        <ele>1322.43</ele>
        <time>2015-06-11T10:09:58Z</time>
      </trkpt>
      <trkpt lat="45.07277" lon="2.7055">
        <ele>1323.87</ele>
        <time>2015-06-11T10:10:11Z</time>
      </trkpt>
      <trkpt lat="45.07283" lon="2.70536">
        <ele>1327.24</ele>
        <time>2015-06-11T10:10:26Z</time>
      </trkpt>
      <trkpt lat="45.07288" lon="2.70526">
        <ele>1331.08</ele>
        <time>2015-06-11T10:10:40Z</time>
      </trkpt>
      <trkpt lat="45.07294" lon="2.70518">
        <ele>1333.01</ele>
        <time>2015-06-11T10:10:53Z</time>
      </trkpt>
      <trkpt lat="45.07303" lon="2.7051">
        <ele>1336.37</ele>
        <time>2015-06-11T10:11:05Z</time>
      </trkpt>
      <trkpt lat="45.07311" lon="2.70501">
        <ele>1339.25</ele>
        <time>2015-06-11T10:11:20Z</time>
      </trkpt>
      <trkpt lat="45.07321" lon="2.70494">
        <ele>1343.1</ele>
        <time>2015-06-11T10:11:33Z</time>
      </trkpt>
      <trkpt lat="45.07332" lon="2.70488">
        <ele>1345.98</ele>
        <time>2015-06-11T10:11:45Z</time>
      </trkpt>
      <trkpt lat="45.07338" lon="2.70484">
        <ele>1345.5</ele>
        <time>2015-06-11T10:11:52Z</time>
      </trkpt>
      <trkpt lat="45.07348" lon="2.70477">
        <ele>1343.58</ele>
        <time>2015-06-11T10:12:03Z</time>
      </trkpt>
      <trkpt lat="45.07357" lon="2.70475">
        <ele>1342.14</ele>
        <time>2015-06-11T10:12:14Z</time>
      </trkpt>
      <trkpt lat="45.07359" lon="2.70475">
        <ele>1342.14</ele>
        <time>2015-06-11T10:12:16Z</time>
      </trkpt>
      <trkpt lat="45.07372" lon="2.70473">
        <ele>1342.14</ele>
        <time>2015-06-11T10:12:29Z</time>
      </trkpt>
      <trkpt lat="45.07376" lon="2.70473">
        <ele>1342.14</ele>
        <time>2015-06-11T10:12:33Z</time>
      </trkpt>
      <trkpt lat="45.07385" lon="2.70476">
        <ele>1342.62</ele>
        <time>2015-06-11T10:12:45Z</time>
      </trkpt>
      <trkpt lat="45.07388" lon="2.70476">
        <ele>1342.14</ele>
        <time>2015-06-11T10:13:03Z</time>
      </trkpt>
      <trkpt lat="45.07389" lon="2.70478">
        <ele>1343.1</ele>
        <time>2015-06-11T10:13:24Z</time>
      </trkpt>
      <trkpt lat="45.07388" lon="2.70479">
        <ele>1342.14</ele>
        <time>2015-06-11T10:13:49Z</time>
      </trkpt>
      <trkpt lat="45.07394" lon="2.70482">
        <ele>1340.7</ele>
        <time>2015-06-11T10:14:03Z</time>
      </trkpt>
      <trkpt lat="45.074" lon="2.70483">
        <ele>1339.25</ele>
        <time>2015-06-11T10:14:10Z</time>
      </trkpt>
      <trkpt lat="45.0741" lon="2.70476">
        <ele>1341.18</ele>
        <time>2015-06-11T10:14:22Z</time>
      </trkpt>
      <trkpt lat="45.07413" lon="2.70472">
        <ele>1343.58</ele>
        <time>2015-06-11T10:14:27Z</time>
      </trkpt>
      <trkpt lat="45.07417" lon="2.70469">
        <ele>1345.5</ele>
        <time>2015-06-11T10:14:33Z</time>
      </trkpt>
      <trkpt lat="45.07428" lon="2.70472">
        <ele>1348.39</ele>
        <time>2015-06-11T10:14:46Z</time>
      </trkpt>
      <trkpt lat="45.07431" lon="2.70473">
        <ele>1348.87</ele>
        <time>2015-06-11T10:15:01Z</time>
      </trkpt>
      <trkpt lat="45.07431" lon="2.70473">
        <ele>1350.31</ele>
        <time>2015-06-11T10:15:13Z</time>
      </trkpt>
      <trkpt lat="45.07431" lon="2.70473">
        <ele>1350.79</ele>
        <time>2015-06-11T10:15:29Z</time>
      </trkpt>
      <trkpt lat="45.07431" lon="2.70474">
        <ele>1351.75</ele>
        <time>2015-06-11T10:15:56Z</time>
      </trkpt>
      <trkpt lat="45.07432" lon="2.70471">
        <ele>1354.15</ele>
        <time>2015-06-11T10:16:20Z</time>
      </trkpt>
      <trkpt lat="45.07435" lon="2.70471">
        <ele>1354.63</ele>
        <time>2015-06-11T10:16:34Z</time>
      </trkpt>
      <trkpt lat="45.07437" lon="2.70473">
        <ele>1355.12</ele>
        <time>2015-06-11T10:16:55Z</time>
      </trkpt>
      <trkpt lat="45.07442" lon="2.70473">
        <ele>1356.08</ele>
        <time>2015-06-11T10:17:07Z</time>
      </trkpt>
      <trkpt lat="45.07452" lon="2.70472">
        <ele>1357.52</ele>
        <time>2015-06-11T10:17:19Z</time>
      </trkpt>
      <trkpt lat="45.07459" lon="2.7047">
        <ele>1358.48</ele>
        <time>2015-06-11T10:17:30Z</time>
      </trkpt>
      <trkpt lat="45.07468" lon="2.70469">
        <ele>1358.96</ele>
        <time>2015-06-11T10:17:43Z</time>
      </trkpt>
      <trkpt lat="45.07475" lon="2.70471">
        <ele>1359.92</ele>
        <time>2015-06-11T10:17:58Z</time>
      </trkpt>
      <trkpt lat="45.07477" lon="2.70483">
        <ele>1362.81</ele>
        <time>2015-06-11T10:18:12Z</time>
      </trkpt>
      <trkpt lat="45.07477" lon="2.70494">
        <ele>1365.21</ele>
        <time>2015-06-11T10:18:30Z</time>
      </trkpt>
      <trkpt lat="45.07474" lon="2.70505">
        <ele>1367.61</ele>
        <time>2015-06-11T10:18:43Z</time>
      </trkpt>
      <trkpt lat="45.07473" lon="2.7052">
        <ele>1371.46</ele>
        <time>2015-06-11T10:19:00Z</time>
      </trkpt>
      <trkpt lat="45.07468" lon="2.70532">
        <ele>1370.98</ele>
        <time>2015-06-11T10:19:14Z</time>
      </trkpt>
      <trkpt lat="45.07463" lon="2.70539">
        <ele>1371.46</ele>
        <time>2015-06-11T10:19:29Z</time>
      </trkpt>
      <trkpt lat="45.07463" lon="2.70546">
        <ele>1372.42</ele>
        <time>2015-06-11T10:19:38Z</time>
      </trkpt>
      <trkpt lat="45.07471" lon="2.7055">
        <ele>1374.82</ele>
        <time>2015-06-11T10:19:50Z</time>
      </trkpt>
      <trkpt lat="45.07476" lon="2.70547">
        <ele>1376.26</ele>
        <time>2015-06-11T10:19:58Z</time>
      </trkpt>
      <trkpt lat="45.07484" lon="2.70542">
        <ele>1378.67</ele>
        <time>2015-06-11T10:20:09Z</time>
      </trkpt>
      <trkpt lat="45.0749" lon="2.70532">
        <ele>1381.55</ele>
        <time>2015-06-11T10:20:21Z</time>
      </trkpt>
      <trkpt lat="45.07498" lon="2.70528">
        <ele>1382.99</ele>
        <time>2015-06-11T10:20:33Z</time>
      </trkpt>
      <trkpt lat="45.07507" lon="2.70522">
        <ele>1385.88</ele>
        <time>2015-06-11T10:20:46Z</time>
      </trkpt>
      <trkpt lat="45.07509" lon="2.70522">
        <ele>1385.88</ele>
        <time>2015-06-11T10:20:49Z</time>
      </trkpt>
      <trkpt lat="45.07518" lon="2.70516">
        <ele>1387.32</ele>
        <time>2015-06-11T10:21:03Z</time>
      </trkpt>
      <trkpt lat="45.07525" lon="2.70522">
        <ele>1389.24</ele>
        <time>2015-06-11T10:21:17Z</time>
      </trkpt>
      <trkpt lat="45.07519" lon="2.70531">
        <ele>1391.17</ele>
        <time>2015-06-11T10:21:30Z</time>
      </trkpt>
      <trkpt lat="45.07517" lon="2.70538">
        <ele>1390.2</ele>
        <time>2015-06-11T10:21:42Z</time>
      </trkpt>
      <trkpt lat="45.07511" lon="2.70549">
        <ele>1387.32</ele>
        <time>2015-06-11T10:21:57Z</time>
      </trkpt>
      <trkpt lat="45.07507" lon="2.70573">
        <ele>1385.4</ele>
        <time>2015-06-11T10:22:11Z</time>
      </trkpt>
      <trkpt lat="45.07506" lon="2.70581">
        <ele>1385.4</ele>
        <time>2015-06-11T10:22:18Z</time>
      </trkpt>
      <trkpt lat="45.07497" lon="2.70597">
        <ele>1384.44</ele>
        <time>2015-06-11T10:22:32Z</time>
      </trkpt>
      <trkpt lat="45.07496" lon="2.70598">
        <ele>1384.44</ele>
        <time>2015-06-11T10:22:33Z</time>
      </trkpt>
      <trkpt lat="45.07483" lon="2.70606">
        <ele>1387.32</ele>
        <time>2015-06-11T10:22:47Z</time>
      </trkpt>
      <trkpt lat="45.07472" lon="2.70612">
        <ele>1386.36</ele>
        <time>2015-06-11T10:22:58Z</time>
      </trkpt>
      <trkpt lat="45.07461" lon="2.70618">
        <ele>1387.32</ele>
        <time>2015-06-11T10:23:09Z</time>
      </trkpt>
      <trkpt lat="45.07452" lon="2.70624">
        <ele>1390.2</ele>
        <time>2015-06-11T10:23:21Z</time>
      </trkpt>
      <trkpt lat="45.07443" lon="2.70628">
        <ele>1392.13</ele>
        <time>2015-06-11T10:23:35Z</time>
      </trkpt>
      <trkpt lat="45.07441" lon="2.7063">
        <ele>1393.09</ele>
        <time>2015-06-11T10:23:38Z</time>
      </trkpt>
      <trkpt lat="45.07443" lon="2.70634">
        <ele>1395.49</ele>
        <time>2015-06-11T10:23:49Z</time>
      </trkpt>
      <trkpt lat="45.07451" lon="2.7064">
        <ele>1395.49</ele>
        <time>2015-06-11T10:24:01Z</time>
      </trkpt>
      <trkpt lat="45.07454" lon="2.70641">
        <ele>1395.97</ele>
        <time>2015-06-11T10:24:20Z</time>
      </trkpt>
      <trkpt lat="45.07453" lon="2.70641">
        <ele>1395.49</ele>
        <time>2015-06-11T10:24:37Z</time>
      </trkpt>
      <trkpt lat="45.07453" lon="2.70642">
        <ele>1396.45</ele>
        <time>2015-06-11T10:24:54Z</time>
      </trkpt>
      <trkpt lat="45.07453" lon="2.70643">
        <ele>1396.93</ele>
        <time>2015-06-11T10:25:27Z</time>
      </trkpt>
      <trkpt lat="45.07453" lon="2.70643">
        <ele>1396.93</ele>
        <time>2015-06-11T10:25:58Z</time>
      </trkpt>
      <trkpt lat="45.07453" lon="2.70643">
        <ele>1396.93</ele>
        <time>2015-06-11T10:26:34Z</time>
      </trkpt>
      <trkpt lat="45.07453" lon="2.70642">
        <ele>1396.45</ele>
        <time>2015-06-11T10:27:12Z</time>
      </trkpt>
      <trkpt lat="45.07453" lon="2.70641">
        <ele>1397.89</ele>
        <time>2015-06-11T10:27:46Z</time>
      </trkpt>
      <trkpt lat="45.07453" lon="2.70642">
        <ele>1398.86</ele>
        <time>2015-06-11T10:28:22Z</time>
      </trkpt>
      <trkpt lat="45.07453" lon="2.70642">
        <ele>1399.82</ele>
        <time>2015-06-11T10:28:56Z</time>
      </trkpt>
      <trkpt lat="45.07453" lon="2.70642">
        <ele>1400.78</ele>
        <time>2015-06-11T10:29:30Z</time>
      </trkpt>
      <trkpt lat="45.07453" lon="2.70642">
        <ele>1401.26</ele>
        <time>2015-06-11T10:30:03Z</time>
      </trkpt>
      <trkpt lat="45.07453" lon="2.70642">
        <ele>1401.26</ele>
        <time>2015-06-11T10:30:35Z</time>
      </trkpt>
      <trkpt lat="45.07453" lon="2.70642">
        <ele>1400.3</ele>
        <time>2015-06-11T10:31:03Z</time>
      </trkpt>
      <trkpt lat="45.07453" lon="2.70642">
        <ele>1400.78</ele>
        <time>2015-06-11T10:31:34Z</time>
      </trkpt>
      <trkpt lat="45.07453" lon="2.70641">
        <ele>1400.3</ele>
        <time>2015-06-11T10:32:07Z</time>
      </trkpt>
      <trkpt lat="45.07454" lon="2.7064">
        <ele>1400.3</ele>
        <time>2015-06-11T10:32:39Z</time>
      </trkpt>
      <trkpt lat="45.07454" lon="2.7064">
        <ele>1400.3</ele>
        <time>2015-06-11T10:33:12Z</time>
      </trkpt>
      <trkpt lat="45.07454" lon="2.7064">
        <ele>1401.26</ele>
        <time>2015-06-11T10:33:43Z</time>
      </trkpt>
      <trkpt lat="45.07454" lon="2.70641">
        <ele>1401.74</ele>
        <time>2015-06-11T10:34:14Z</time>
      </trkpt>
      <trkpt lat="45.07454" lon="2.70641">
        <ele>1402.7</ele>
        <time>2015-06-11T10:34:44Z</time>
      </trkpt>
      <trkpt lat="45.07454" lon="2.70641">
        <ele>1402.7</ele>
        <time>2015-06-11T10:35:08Z</time>
      </trkpt>
      <trkpt lat="45.07454" lon="2.7064">
        <ele>1402.7</ele>
        <time>2015-06-11T10:35:38Z</time>
      </trkpt>
      <trkpt lat="45.07454" lon="2.7064">
        <ele>1402.22</ele>
        <time>2015-06-11T10:36:06Z</time>
      </trkpt>
      <trkpt lat="45.07454" lon="2.7064">
        <ele>1401.74</ele>
        <time>2015-06-11T10:36:35Z</time>
      </trkpt>
      <trkpt lat="45.07454" lon="2.7064">
        <ele>1401.74</ele>
        <time>2015-06-11T10:37:02Z</time>
      </trkpt>
      <trkpt lat="45.07454" lon="2.7064">
        <ele>1401.74</ele>
        <time>2015-06-11T10:37:35Z</time>
      </trkpt>
      <trkpt lat="45.07454" lon="2.7064">
        <ele>1402.22</ele>
        <time>2015-06-11T10:38:07Z</time>
      </trkpt>
      <trkpt lat="45.07454" lon="2.7064">
        <ele>1402.22</ele>
        <time>2015-06-11T10:38:37Z</time>
      </trkpt>
      <trkpt lat="45.07454" lon="2.7064">
        <ele>1402.22</ele>
        <time>2015-06-11T10:39:06Z</time>
      </trkpt>
      <trkpt lat="45.07454" lon="2.7064">
        <ele>1403.18</ele>
        <time>2015-06-11T10:39:36Z</time>
      </trkpt>
      <trkpt lat="45.07454" lon="2.70641">
        <ele>1401.74</ele>
        <time>2015-06-11T10:40:07Z</time>
      </trkpt>
      <trkpt lat="45.07454" lon="2.70641">
        <ele>1401.74</ele>
        <time>2015-06-11T10:40:37Z</time>
      </trkpt>
      <trkpt lat="45.07454" lon="2.70641">
        <ele>1402.7</ele>
        <time>2015-06-11T10:41:09Z</time>
      </trkpt>
      <trkpt lat="45.07454" lon="2.70641">
        <ele>1403.18</ele>
        <time>2015-06-11T10:41:48Z</time>
      </trkpt>
      <trkpt lat="45.07454" lon="2.70642">
        <ele>1403.18</ele>
        <time>2015-06-11T10:42:15Z</time>
      </trkpt>
      <trkpt lat="45.07454" lon="2.70642">
        <ele>1403.66</ele>
        <time>2015-06-11T10:42:43Z</time>
      </trkpt>
      <trkpt lat="45.07454" lon="2.70642">
        <ele>1404.14</ele>
        <time>2015-06-11T10:43:13Z</time>
      </trkpt>
      <trkpt lat="45.07454" lon="2.70641">
        <ele>1403.66</ele>
        <time>2015-06-11T10:43:43Z</time>
      </trkpt>
      <trkpt lat="45.07455" lon="2.70641">
        <ele>1403.18</ele>
        <time>2015-06-11T10:44:09Z</time>
      </trkpt>
      <trkpt lat="45.07455" lon="2.70641">
        <ele>1402.7</ele>
        <time>2015-06-11T10:44:44Z</time>
      </trkpt>
      <trkpt lat="45.07455" lon="2.70641">
        <ele>1401.74</ele>
        <time>2015-06-11T10:45:19Z</time>
      </trkpt>
      <trkpt lat="45.07455" lon="2.70641">
        <ele>1401.74</ele>
        <time>2015-06-11T10:45:54Z</time>
      </trkpt>
      <trkpt lat="45.07455" lon="2.70641">
        <ele>1401.74</ele>
        <time>2015-06-11T10:46:27Z</time>
      </trkpt>
      <trkpt lat="45.07455" lon="2.70641">
        <ele>1401.26</ele>
        <time>2015-06-11T10:47:02Z</time>
      </trkpt>
      <trkpt lat="45.07455" lon="2.7064">
        <ele>1400.78</ele>
        <time>2015-06-11T10:47:26Z</time>
      </trkpt>
      <trkpt lat="45.07455" lon="2.7064">
        <ele>1400.3</ele>
        <time>2015-06-11T10:48:00Z</time>
      </trkpt>
      <trkpt lat="45.07454" lon="2.70639">
        <ele>1400.3</ele>
        <time>2015-06-11T10:48:27Z</time>
      </trkpt>
      <trkpt lat="45.07454" lon="2.7064">
        <ele>1400.3</ele>
        <time>2015-06-11T10:48:52Z</time>
      </trkpt>
      <trkpt lat="45.07454" lon="2.7064">
        <ele>1399.82</ele>
        <time>2015-06-11T10:49:12Z</time>
      </trkpt>
      <trkpt lat="45.07454" lon="2.7064">
        <ele>1399.34</ele>
        <time>2015-06-11T10:49:45Z</time>
      </trkpt>
      <trkpt lat="45.07454" lon="2.7064">
        <ele>1398.86</ele>
        <time>2015-06-11T10:49:59Z</time>
      </trkpt>
      <trkpt lat="45.07454" lon="2.70641">
        <ele>1398.37</ele>
        <time>2015-06-11T10:50:14Z</time>
      </trkpt>
      <trkpt lat="45.07454" lon="2.70642">
        <ele>1397.89</ele>
        <time>2015-06-11T10:50:34Z</time>
      </trkpt>
      <trkpt lat="45.07454" lon="2.70643">
        <ele>1397.89</ele>
        <time>2015-06-11T10:50:57Z</time>
      </trkpt>
      <trkpt lat="45.07454" lon="2.70644">
        <ele>1397.41</ele>
        <time>2015-06-11T10:51:20Z</time>
      </trkpt>
      <trkpt lat="45.07454" lon="2.70644">
        <ele>1396.93</ele>
        <time>2015-06-11T10:51:47Z</time>
      </trkpt>
      <trkpt lat="45.0746" lon="2.70647">
        <ele>1397.89</ele>
        <time>2015-06-11T10:52:02Z</time>
      </trkpt>
      <trkpt lat="45.07468" lon="2.70651">
        <ele>1397.89</ele>
        <time>2015-06-11T10:52:17Z</time>
      </trkpt>
      <trkpt lat="45.07474" lon="2.70653">
        <ele>1400.78</ele>
        <time>2015-06-11T10:52:32Z</time>
      </trkpt>
      <trkpt lat="45.0748" lon="2.70656">
        <ele>1402.7</ele>
        <time>2015-06-11T10:52:47Z</time>
      </trkpt>
      <trkpt lat="45.07489" lon="2.70658">
        <ele>1406.07</ele>
        <time>2015-06-11T10:53:00Z</time>
      </trkpt>
      <trkpt lat="45.07494" lon="2.70658">
        <ele>1407.51</ele>
        <time>2015-06-11T10:53:14Z</time>
      </trkpt>
      <trkpt lat="45.07501" lon="2.70658">
        <ele>1409.91</ele>
        <time>2015-06-11T10:53:29Z</time>
      </trkpt>
      <trkpt lat="45.0751" lon="2.70657">
        <ele>1409.91</ele>
        <time>2015-06-11T10:53:42Z</time>
      </trkpt>
      <trkpt lat="45.07514" lon="2.70662">
        <ele>1412.31</ele>
        <time>2015-06-11T10:53:53Z</time>
      </trkpt>
      <trkpt lat="45.0752" lon="2.70663">
        <ele>1414.24</ele>
        <time>2015-06-11T10:54:05Z</time>
      </trkpt>
      <trkpt lat="45.07528" lon="2.70664">
        <ele>1416.16</ele>
        <time>2015-06-11T10:54:18Z</time>
      </trkpt>
      <trkpt lat="45.07533" lon="2.70668">
        <ele>1415.2</ele>
        <time>2015-06-11T10:54:30Z</time>
      </trkpt>
      <trkpt lat="45.07546" lon="2.70671">
        <ele>1419.04</ele>
        <time>2015-06-11T10:54:46Z</time>
      </trkpt>
      <trkpt lat="45.07553" lon="2.70672">
        <ele>1422.41</ele>
        <time>2015-06-11T10:54:59Z</time>
      </trkpt>
      <trkpt lat="45.07554" lon="2.70673">
        <ele>1422.41</ele>
        <time>2015-06-11T10:55:17Z</time>
      </trkpt>
      <trkpt lat="45.07555" lon="2.70674">
        <ele>1423.37</ele>
        <time>2015-06-11T10:55:33Z</time>
      </trkpt>
      <trkpt lat="45.07556" lon="2.70675">
        <ele>1423.37</ele>
        <time>2015-06-11T10:55:48Z</time>
      </trkpt>
      <trkpt lat="45.07556" lon="2.70675">
        <ele>1422.89</ele>
        <time>2015-06-11T10:56:11Z</time>
      </trkpt>
      <trkpt lat="45.07556" lon="2.70675">
        <ele>1422.89</ele>
        <time>2015-06-11T10:56:27Z</time>
      </trkpt>
      <trkpt lat="45.07556" lon="2.70675">
        <ele>1423.37</ele>
        <time>2015-06-11T10:56:42Z</time>
      </trkpt>
      <trkpt lat="45.07556" lon="2.70675">
        <ele>1423.37</ele>
        <time>2015-06-11T10:56:59Z</time>
      </trkpt>
      <trkpt lat="45.07556" lon="2.70675">
        <ele>1423.37</ele>
        <time>2015-06-11T10:57:14Z</time>
      </trkpt>
      <trkpt lat="45.07556" lon="2.70674">
        <ele>1423.37</ele>
        <time>2015-06-11T10:57:33Z</time>
      </trkpt>
      <trkpt lat="45.07558" lon="2.70673">
        <ele>1423.37</ele>
        <time>2015-06-11T10:57:49Z</time>
      </trkpt>
      <trkpt lat="45.07566" lon="2.70667">
        <ele>1423.37</ele>
        <time>2015-06-11T10:58:02Z</time>
      </trkpt>
      <trkpt lat="45.07577" lon="2.70665">
        <ele>1424.33</ele>
        <time>2015-06-11T10:58:15Z</time>
      </trkpt>
      <trkpt lat="45.07586" lon="2.70661">
        <ele>1426.25</ele>
        <time>2015-06-11T10:58:30Z</time>
      </trkpt>
      <trkpt lat="45.07594" lon="2.70657">
        <ele>1428.18</ele>
        <time>2015-06-11T10:58:43Z</time>
      </trkpt>
      <trkpt lat="45.07602" lon="2.70653">
        <ele>1430.1</ele>
        <time>2015-06-11T10:58:59Z</time>
      </trkpt>
      <trkpt lat="45.07612" lon="2.70651">
        <ele>1431.06</ele>
        <time>2015-06-11T10:59:14Z</time>
      </trkpt>
      <trkpt lat="45.07617" lon="2.70649">
        <ele>1432.5</ele>
        <time>2015-06-11T10:59:31Z</time>
      </trkpt>
      <trkpt lat="45.0762" lon="2.7065">
        <ele>1434.42</ele>
        <time>2015-06-11T10:59:47Z</time>
      </trkpt>
      <trkpt lat="45.07626" lon="2.70647">
        <ele>1435.87</ele>
        <time>2015-06-11T10:59:59Z</time>
      </trkpt>
      <trkpt lat="45.07634" lon="2.70644">
        <ele>1438.75</ele>
        <time>2015-06-11T11:00:14Z</time>
      </trkpt>
      <trkpt lat="45.07639" lon="2.70642">
        <ele>1440.67</ele>
        <time>2015-06-11T11:00:28Z</time>
      </trkpt>
      <trkpt lat="45.07642" lon="2.70643">
        <ele>1441.15</ele>
        <time>2015-06-11T11:00:33Z</time>
      </trkpt>
      <trkpt lat="45.07653" lon="2.70651">
        <ele>1442.6</ele>
        <time>2015-06-11T11:00:47Z</time>
      </trkpt>
      <trkpt lat="45.07657" lon="2.70655">
        <ele>1443.08</ele>
        <time>2015-06-11T11:00:53Z</time>
      </trkpt>
      <trkpt lat="45.0766" lon="2.70661">
        <ele>1443.08</ele>
        <time>2015-06-11T11:00:59Z</time>
      </trkpt>
      <trkpt lat="45.07668" lon="2.70675">
        <ele>1444.04</ele>
        <time>2015-06-11T11:01:16Z</time>
      </trkpt>
      <trkpt lat="45.07675" lon="2.70688">
        <ele>1444.52</ele>
        <time>2015-06-11T11:01:31Z</time>
      </trkpt>
      <trkpt lat="45.07679" lon="2.7069">
        <ele>1447.4</ele>
        <time>2015-06-11T11:01:39Z</time>
      </trkpt>
      <trkpt lat="45.07686" lon="2.70695">
        <ele>1450.29</ele>
        <time>2015-06-11T11:01:54Z</time>
      </trkpt>
      <trkpt lat="45.0769" lon="2.70697">
        <ele>1452.69</ele>
        <time>2015-06-11T11:02:08Z</time>
      </trkpt>
      <trkpt lat="45.07698" lon="2.70698">
        <ele>1454.61</ele>
        <time>2015-06-11T11:02:21Z</time>
      </trkpt>
      <trkpt lat="45.07705" lon="2.70702">
        <ele>1457.02</ele>
        <time>2015-06-11T11:02:36Z</time>
      </trkpt>
      <trkpt lat="45.07709" lon="2.70704">
        <ele>1457.98</ele>
        <time>2015-06-11T11:02:50Z</time>
      </trkpt>
      <trkpt lat="45.07718" lon="2.7071">
        <ele>1460.38</ele>
        <time>2015-06-11T11:03:02Z</time>
      </trkpt>
      <trkpt lat="45.07721" lon="2.70713">
        <ele>1459.9</ele>
        <time>2015-06-11T11:03:12Z</time>
      </trkpt>
      <trkpt lat="45.07731" lon="2.70716">
        <ele>1461.34</ele>
        <time>2015-06-11T11:03:27Z</time>
      </trkpt>
      <trkpt lat="45.07735" lon="2.7072">
        <ele>1461.82</ele>
        <time>2015-06-11T11:03:41Z</time>
      </trkpt>
      <trkpt lat="45.0774" lon="2.70724">
        <ele>1463.74</ele>
        <time>2015-06-11T11:03:52Z</time>
      </trkpt>
      <trkpt lat="45.07742" lon="2.70728">
        <ele>1463.26</ele>
        <time>2015-06-11T11:04:02Z</time>
      </trkpt>
      <trkpt lat="45.07743" lon="2.70734">
        <ele>1462.78</ele>
        <time>2015-06-11T11:04:14Z</time>
      </trkpt>
      <trkpt lat="45.07743" lon="2.70737">
        <ele>1462.3</ele>
        <time>2015-06-11T11:04:19Z</time>
      </trkpt>
      <trkpt lat="45.07748" lon="2.70747">
        <ele>1463.74</ele>
        <time>2015-06-11T11:04:31Z</time>
      </trkpt>
      <trkpt lat="45.07752" lon="2.70755">
        <ele>1463.26</ele>
        <time>2015-06-11T11:04:43Z</time>
      </trkpt>
      <trkpt lat="45.07757" lon="2.70763">
        <ele>1462.78</ele>
        <time>2015-06-11T11:04:57Z</time>
      </trkpt>
      <trkpt lat="45.07759" lon="2.70764">
        <ele>1463.26</ele>
        <time>2015-06-11T11:05:13Z</time>
      </trkpt>
      <trkpt lat="45.07763" lon="2.70764">
        <ele>1464.71</ele>
        <time>2015-06-11T11:05:31Z</time>
      </trkpt>
      <trkpt lat="45.07767" lon="2.70765">
        <ele>1466.15</ele>
        <time>2015-06-11T11:05:43Z</time>
      </trkpt>
      <trkpt lat="45.07773" lon="2.70764">
        <ele>1468.07</ele>
        <time>2015-06-11T11:05:57Z</time>
      </trkpt>
      <trkpt lat="45.07777" lon="2.70761">
        <ele>1470.47</ele>
        <time>2015-06-11T11:06:11Z</time>
      </trkpt>
      <trkpt lat="45.07781" lon="2.70765">
        <ele>1471.92</ele>
        <time>2015-06-11T11:06:26Z</time>
      </trkpt>
      <trkpt lat="45.07787" lon="2.70769">
        <ele>1474.32</ele>
        <time>2015-06-11T11:06:41Z</time>
      </trkpt>
      <trkpt lat="45.07791" lon="2.7077">
        <ele>1475.28</ele>
        <time>2015-06-11T11:06:55Z</time>
      </trkpt>
      <trkpt lat="45.07792" lon="2.70767">
        <ele>1478.65</ele>
        <time>2015-06-11T11:07:10Z</time>
      </trkpt>
      <trkpt lat="45.07792" lon="2.70767">
        <ele>1479.13</ele>
        <time>2015-06-11T11:07:27Z</time>
      </trkpt>
      <trkpt lat="45.07798" lon="2.70769">
        <ele>1480.09</ele>
        <time>2015-06-11T11:07:43Z</time>
      </trkpt>
      <trkpt lat="45.07807" lon="2.70773">
        <ele>1482.49</ele>
        <time>2015-06-11T11:07:57Z</time>
      </trkpt>
      <trkpt lat="45.07816" lon="2.70775">
        <ele>1486.34</ele>
        <time>2015-06-11T11:08:11Z</time>
      </trkpt>
      <trkpt lat="45.07821" lon="2.70779">
        <ele>1488.26</ele>
        <time>2015-06-11T11:08:26Z</time>
      </trkpt>
      <trkpt lat="45.07825" lon="2.70782">
        <ele>1489.7</ele>
        <time>2015-06-11T11:08:40Z</time>
      </trkpt>
      <trkpt lat="45.07831" lon="2.70788">
        <ele>1491.62</ele>
        <time>2015-06-11T11:08:55Z</time>
      </trkpt>
      <trkpt lat="45.07838" lon="2.70794">
        <ele>1492.1</ele>
        <time>2015-06-11T11:09:10Z</time>
      </trkpt>
      <trkpt lat="45.07844" lon="2.70799">
        <ele>1494.51</ele>
        <time>2015-06-11T11:09:21Z</time>
      </trkpt>
      <trkpt lat="45.07848" lon="2.70805">
        <ele>1494.51</ele>
        <time>2015-06-11T11:09:32Z</time>
      </trkpt>
      <trkpt lat="45.07854" lon="2.70806">
        <ele>1497.87</ele>
        <time>2015-06-11T11:09:49Z</time>
      </trkpt>
      <trkpt lat="45.07855" lon="2.70807">
        <ele>1499.31</ele>
        <time>2015-06-11T11:10:03Z</time>
      </trkpt>
      <trkpt lat="45.07856" lon="2.70806">
        <ele>1499.79</ele>
        <time>2015-06-11T11:10:19Z</time>
      </trkpt>
      <trkpt lat="45.07857" lon="2.70805">
        <ele>1501.72</ele>
        <time>2015-06-11T11:10:34Z</time>
      </trkpt>
      <trkpt lat="45.07862" lon="2.70802">
        <ele>1502.68</ele>
        <time>2015-06-11T11:10:48Z</time>
      </trkpt>
      <trkpt lat="45.07865" lon="2.70805">
        <ele>1505.08</ele>
        <time>2015-06-11T11:11:04Z</time>
      </trkpt>
      <trkpt lat="45.07866" lon="2.70807">
        <ele>1506.04</ele>
        <time>2015-06-11T11:11:21Z</time>
      </trkpt>
      <trkpt lat="45.07866" lon="2.70806">
        <ele>1506.52</ele>
        <time>2015-06-11T11:11:43Z</time>
      </trkpt>
      <trkpt lat="45.07869" lon="2.70806">
        <ele>1506.52</ele>
        <time>2015-06-11T11:12:09Z</time>
      </trkpt>
      <trkpt lat="45.07871" lon="2.70809">
        <ele>1506.52</ele>
        <time>2015-06-11T11:12:25Z</time>
      </trkpt>
      <trkpt lat="45.07876" lon="2.70814">
        <ele>1507.48</ele>
        <time>2015-06-11T11:12:43Z</time>
      </trkpt>
      <trkpt lat="45.07883" lon="2.70817">
        <ele>1508.93</ele>
        <time>2015-06-11T11:12:57Z</time>
      </trkpt>
      <trkpt lat="45.0789" lon="2.70819">
        <ele>1513.25</ele>
        <time>2015-06-11T11:13:12Z</time>
      </trkpt>
      <trkpt lat="45.07899" lon="2.70829">
        <ele>1513.25</ele>
        <time>2015-06-11T11:13:27Z</time>
      </trkpt>
      <trkpt lat="45.07904" lon="2.70832">
        <ele>1515.18</ele>
        <time>2015-06-11T11:13:41Z</time>
      </trkpt>
      <trkpt lat="45.07911" lon="2.70837">
        <ele>1516.14</ele>
        <time>2015-06-11T11:13:57Z</time>
      </trkpt>
      <trkpt lat="45.07915" lon="2.70843">
        <ele>1517.58</ele>
        <time>2015-06-11T11:14:10Z</time>
      </trkpt>
      <trkpt lat="45.07923" lon="2.70847">
        <ele>1519.98</ele>
        <time>2015-06-11T11:14:24Z</time>
      </trkpt>
      <trkpt lat="45.07928" lon="2.70848">
        <ele>1519.98</ele>
        <time>2015-06-11T11:14:40Z</time>
      </trkpt>
      <trkpt lat="45.07932" lon="2.7085">
        <ele>1522.39</ele>
        <time>2015-06-11T11:14:56Z</time>
      </trkpt>
      <trkpt lat="45.07937" lon="2.70852">
        <ele>1523.83</ele>
        <time>2015-06-11T11:15:11Z</time>
      </trkpt>
      <trkpt lat="45.07942" lon="2.70853">
        <ele>1525.75</ele>
        <time>2015-06-11T11:15:24Z</time>
      </trkpt>
      <trkpt lat="45.07949" lon="2.70855">
        <ele>1526.71</ele>
        <time>2015-06-11T11:15:36Z</time>
      </trkpt>
      <trkpt lat="45.07956" lon="2.70861">
        <ele>1526.23</ele>
        <time>2015-06-11T11:15:48Z</time>
      </trkpt>
      <trkpt lat="45.07963" lon="2.70861">
        <ele>1527.67</ele>
        <time>2015-06-11T11:16:00Z</time>
      </trkpt>
      <trkpt lat="45.0797" lon="2.70864">
        <ele>1530.56</ele>
        <time>2015-06-11T11:16:17Z</time>
      </trkpt>
      <trkpt lat="45.07975" lon="2.70864">
        <ele>1532.48</ele>
        <time>2015-06-11T11:16:28Z</time>
      </trkpt>
      <trkpt lat="45.07979" lon="2.70862">
        <ele>1533.44</ele>
        <time>2015-06-11T11:16:41Z</time>
      </trkpt>
      <trkpt lat="45.07983" lon="2.70864">
        <ele>1533.44</ele>
        <time>2015-06-11T11:16:46Z</time>
      </trkpt>
      <trkpt lat="45.07987" lon="2.70867">
        <ele>1533.92</ele>
        <time>2015-06-11T11:16:59Z</time>
      </trkpt>
      <trkpt lat="45.0799" lon="2.70868">
        <ele>1532.96</ele>
        <time>2015-06-11T11:17:11Z</time>
      </trkpt>
      <trkpt lat="45.07991" lon="2.70869">
        <ele>1533.44</ele>
        <time>2015-06-11T11:17:15Z</time>
      </trkpt>
      <trkpt lat="45.07997" lon="2.7088">
        <ele>1534.4</ele>
        <time>2015-06-11T11:17:28Z</time>
      </trkpt>
      <trkpt lat="45.07998" lon="2.70879">
        <ele>1533.92</ele>
        <time>2015-06-11T11:17:50Z</time>
      </trkpt>
      <trkpt lat="45.07998" lon="2.70879">
        <ele>1533.44</ele>
        <time>2015-06-11T11:18:14Z</time>
      </trkpt>
      <trkpt lat="45.07998" lon="2.7088">
        <ele>1534.88</ele>
        <time>2015-06-11T11:18:47Z</time>
      </trkpt>
      <trkpt lat="45.08002" lon="2.70884">
        <ele>1534.88</ele>
        <time>2015-06-11T11:19:01Z</time>
      </trkpt>
      <trkpt lat="45.08002" lon="2.70885">
        <ele>1534.88</ele>
        <time>2015-06-11T11:19:17Z</time>
      </trkpt>
      <trkpt lat="45.08002" lon="2.70886">
        <ele>1535.36</ele>
        <time>2015-06-11T11:19:37Z</time>
      </trkpt>
      <trkpt lat="45.08007" lon="2.7089">
        <ele>1535.84</ele>
        <time>2015-06-11T11:19:49Z</time>
      </trkpt>
      <trkpt lat="45.0801" lon="2.70895">
        <ele>1536.8</ele>
        <time>2015-06-11T11:20:04Z</time>
      </trkpt>
      <trkpt lat="45.08014" lon="2.70897">
        <ele>1535.84</ele>
        <time>2015-06-11T11:20:19Z</time>
      </trkpt>
      <trkpt lat="45.08018" lon="2.70904">
        <ele>1534.88</ele>
        <time>2015-06-11T11:20:30Z</time>
      </trkpt>
      <trkpt lat="45.08022" lon="2.70906">
        <ele>1535.84</ele>
        <time>2015-06-11T11:20:47Z</time>
      </trkpt>
      <trkpt lat="45.08031" lon="2.7091">
        <ele>1535.84</ele>
        <time>2015-06-11T11:21:00Z</time>
      </trkpt>
      <trkpt lat="45.0804" lon="2.70918">
        <ele>1538.73</ele>
        <time>2015-06-11T11:21:15Z</time>
      </trkpt>
      <trkpt lat="45.08047" lon="2.7092">
        <ele>1538.25</ele>
        <time>2015-06-11T11:21:28Z</time>
      </trkpt>
      <trkpt lat="45.08052" lon="2.70923">
        <ele>1539.69</ele>
        <time>2015-06-11T11:21:43Z</time>
      </trkpt>
      <trkpt lat="45.08059" lon="2.70922">
        <ele>1543.05</ele>
        <time>2015-06-11T11:21:58Z</time>
      </trkpt>
      <trkpt lat="45.08063" lon="2.70923">
        <ele>1544.98</ele>
        <time>2015-06-11T11:22:15Z</time>
      </trkpt>
      <trkpt lat="45.08069" lon="2.70925">
        <ele>1546.9</ele>
        <time>2015-06-11T11:22:30Z</time>
      </trkpt>
      <trkpt lat="45.08074" lon="2.70926">
        <ele>1547.86</ele>
        <time>2015-06-11T11:22:43Z</time>
      </trkpt>
      <trkpt lat="45.08078" lon="2.70927">
        <ele>1549.3</ele>
        <time>2015-06-11T11:22:57Z</time>
      </trkpt>
      <trkpt lat="45.08086" lon="2.70928">
        <ele>1551.71</ele>
        <time>2015-06-11T11:23:14Z</time>
      </trkpt>
      <trkpt lat="45.0809" lon="2.70929">
        <ele>1553.15</ele>
        <time>2015-06-11T11:23:28Z</time>
      </trkpt>
      <trkpt lat="45.08098" lon="2.70929">
        <ele>1555.07</ele>
        <time>2015-06-11T11:23:45Z</time>
      </trkpt>
      <trkpt lat="45.08106" lon="2.70933">
        <ele>1557.95</ele>
        <time>2015-06-11T11:23:59Z</time>
      </trkpt>
      <trkpt lat="45.08111" lon="2.70934">
        <ele>1558.92</ele>
        <time>2015-06-11T11:24:13Z</time>
      </trkpt>
      <trkpt lat="45.0812" lon="2.7094">
        <ele>1561.32</ele>
        <time>2015-06-11T11:24:28Z</time>
      </trkpt>
      <trkpt lat="45.08124" lon="2.70943">
        <ele>1562.76</ele>
        <time>2015-06-11T11:24:42Z</time>
      </trkpt>
      <trkpt lat="45.08134" lon="2.70949">
        <ele>1564.68</ele>
        <time>2015-06-11T11:24:57Z</time>
      </trkpt>
      <trkpt lat="45.08139" lon="2.70951">
        <ele>1566.61</ele>
        <time>2015-06-11T11:25:13Z</time>
      </trkpt>
      <trkpt lat="45.08143" lon="2.7095">
        <ele>1568.53</ele>
        <time>2015-06-11T11:25:27Z</time>
      </trkpt>
      <trkpt lat="45.08151" lon="2.70943">
        <ele>1570.93</ele>
        <time>2015-06-11T11:25:44Z</time>
      </trkpt>
      <trkpt lat="45.08155" lon="2.70936">
        <ele>1574.78</ele>
        <time>2015-06-11T11:26:00Z</time>
      </trkpt>
      <trkpt lat="45.08161" lon="2.70929">
        <ele>1575.74</ele>
        <time>2015-06-11T11:26:18Z</time>
      </trkpt>
      <trkpt lat="45.08166" lon="2.70921">
        <ele>1576.7</ele>
        <time>2015-06-11T11:26:32Z</time>
      </trkpt>
      <trkpt lat="45.08168" lon="2.70906">
        <ele>1577.66</ele>
        <time>2015-06-11T11:26:46Z</time>
      </trkpt>
      <trkpt lat="45.08169" lon="2.70902">
        <ele>1578.14</ele>
        <time>2015-06-11T11:26:51Z</time>
      </trkpt>
      <trkpt lat="45.08175" lon="2.70897">
        <ele>1580.06</ele>
        <time>2015-06-11T11:27:06Z</time>
      </trkpt>
      <trkpt lat="45.08175" lon="2.70895">
        <ele>1580.06</ele>
        <time>2015-06-11T11:27:19Z</time>
      </trkpt>
      <trkpt lat="45.08175" lon="2.70895">
        <ele>1580.06</ele>
        <time>2015-06-11T11:27:21Z</time>
      </trkpt>
      <trkpt lat="45.08171" lon="2.70881">
        <ele>1581.51</ele>
        <time>2015-06-11T11:27:34Z</time>
      </trkpt>
      <trkpt lat="45.0817" lon="2.70879">
        <ele>1581.51</ele>
        <time>2015-06-11T11:27:36Z</time>
      </trkpt>
      <trkpt lat="45.08169" lon="2.70868">
        <ele>1583.43</ele>
        <time>2015-06-11T11:27:49Z</time>
      </trkpt>
      <trkpt lat="45.08168" lon="2.70859">
        <ele>1582.47</ele>
        <time>2015-06-11T11:28:02Z</time>
      </trkpt>
      <trkpt lat="45.08167" lon="2.70856">
        <ele>1582.95</ele>
        <time>2015-06-11T11:28:06Z</time>
      </trkpt>
      <trkpt lat="45.08169" lon="2.70851">
        <ele>1583.43</ele>
        <time>2015-06-11T11:28:19Z</time>
      </trkpt>
      <trkpt lat="45.0817" lon="2.70847">
        <ele>1583.43</ele>
        <time>2015-06-11T11:28:34Z</time>
      </trkpt>
      <trkpt lat="45.08172" lon="2.70848">
        <ele>1582.95</ele>
        <time>2015-06-11T11:28:48Z</time>
      </trkpt>
      <trkpt lat="45.08173" lon="2.70848">
        <ele>1581.99</ele>
        <time>2015-06-11T11:29:00Z</time>
      </trkpt>
      <trkpt lat="45.08174" lon="2.70848">
        <ele>1581.99</ele>
        <time>2015-06-11T11:29:25Z</time>
      </trkpt>
      <trkpt lat="45.08175" lon="2.70848">
        <ele>1581.51</ele>
        <time>2015-06-11T11:29:42Z</time>
      </trkpt>
      <trkpt lat="45.08175" lon="2.7085">
        <ele>1581.51</ele>
        <time>2015-06-11T11:29:57Z</time>
      </trkpt>
      <trkpt lat="45.08176" lon="2.7085">
        <ele>1581.51</ele>
        <time>2015-06-11T11:30:25Z</time>
      </trkpt>
      <trkpt lat="45.08176" lon="2.7085">
        <ele>1581.51</ele>
        <time>2015-06-11T11:30:46Z</time>
      </trkpt>
      <trkpt lat="45.08176" lon="2.7085">
        <ele>1581.51</ele>
        <time>2015-06-11T11:31:12Z</time>
      </trkpt>
      <trkpt lat="45.08177" lon="2.7085">
        <ele>1581.51</ele>
        <time>2015-06-11T11:31:39Z</time>
      </trkpt>
      <trkpt lat="45.08177" lon="2.7085">
        <ele>1581.03</ele>
        <time>2015-06-11T11:32:10Z</time>
      </trkpt>
      <trkpt lat="45.08177" lon="2.70851">
        <ele>1581.03</ele>
        <time>2015-06-11T11:32:37Z</time>
      </trkpt>
      <trkpt lat="45.08177" lon="2.70851">
        <ele>1581.03</ele>
        <time>2015-06-11T11:33:07Z</time>
      </trkpt>
      <trkpt lat="45.08177" lon="2.70851">
        <ele>1581.03</ele>
        <time>2015-06-11T11:33:36Z</time>
      </trkpt>
      <trkpt lat="45.08177" lon="2.70851">
        <ele>1580.54</ele>
        <time>2015-06-11T11:34:06Z</time>
      </trkpt>
      <trkpt lat="45.08177" lon="2.7085">
        <ele>1580.54</ele>
        <time>2015-06-11T11:34:35Z</time>
      </trkpt>
      <trkpt lat="45.08178" lon="2.70851">
        <ele>1580.54</ele>
        <time>2015-06-11T11:34:58Z</time>
      </trkpt>
      <trkpt lat="45.08178" lon="2.70851">
        <ele>1581.03</ele>
        <time>2015-06-11T11:35:28Z</time>
      </trkpt>
      <trkpt lat="45.08178" lon="2.7085">
        <ele>1581.03</ele>
        <time>2015-06-11T11:35:52Z</time>
      </trkpt>
      <trkpt lat="45.08178" lon="2.70851">
        <ele>1581.03</ele>
        <time>2015-06-11T11:36:22Z</time>
      </trkpt>
      <trkpt lat="45.08176" lon="2.70848">
        <ele>1579.58</ele>
        <time>2015-06-11T11:36:35Z</time>
      </trkpt>
      <trkpt lat="45.08174" lon="2.70847">
        <ele>1580.06</ele>
        <time>2015-06-11T11:36:54Z</time>
      </trkpt>
      <trkpt lat="45.08173" lon="2.70849">
        <ele>1581.03</ele>
        <time>2015-06-11T11:37:05Z</time>
      </trkpt>
      <trkpt lat="45.08173" lon="2.7085">
        <ele>1581.03</ele>
        <time>2015-06-11T11:37:06Z</time>
      </trkpt>
      <trkpt lat="45.0817" lon="2.70856">
        <ele>1581.51</ele>
        <time>2015-06-11T11:37:12Z</time>
      </trkpt>
      <trkpt lat="45.08167" lon="2.70871">
        <ele>1581.99</ele>
        <time>2015-06-11T11:37:24Z</time>
      </trkpt>
      <trkpt lat="45.08171" lon="2.7088">
        <ele>1581.03</ele>
        <time>2015-06-11T11:37:32Z</time>
      </trkpt>
      <trkpt lat="45.08177" lon="2.70898">
        <ele>1579.58</ele>
        <time>2015-06-11T11:37:45Z</time>
      </trkpt>
      <trkpt lat="45.08178" lon="2.70908">
        <ele>1580.06</ele>
        <time>2015-06-11T11:37:51Z</time>
      </trkpt>
      <trkpt lat="45.08182" lon="2.7092">
        <ele>1581.03</ele>
        <time>2015-06-11T11:37:59Z</time>
      </trkpt>
      <trkpt lat="45.08186" lon="2.70937">
        <ele>1579.58</ele>
        <time>2015-06-11T11:38:12Z</time>
      </trkpt>
      <trkpt lat="45.08192" lon="2.70957">
        <ele>1579.1</ele>
        <time>2015-06-11T11:38:27Z</time>
      </trkpt>
      <trkpt lat="45.08197" lon="2.70975">
        <ele>1580.06</ele>
        <time>2015-06-11T11:38:40Z</time>
      </trkpt>
      <trkpt lat="45.082" lon="2.70983">
        <ele>1581.03</ele>
        <time>2015-06-11T11:38:47Z</time>
      </trkpt>
      <trkpt lat="45.08205" lon="2.70999">
        <ele>1581.99</ele>
        <time>2015-06-11T11:38:58Z</time>
      </trkpt>
      <trkpt lat="45.08209" lon="2.71017">
        <ele>1582.47</ele>
        <time>2015-06-11T11:39:11Z</time>
      </trkpt>
      <trkpt lat="45.08209" lon="2.71018">
        <ele>1582.95</ele>
        <time>2015-06-11T11:39:12Z</time>
      </trkpt>
      <trkpt lat="45.08213" lon="2.71025">
        <ele>1582.95</ele>
        <time>2015-06-11T11:39:18Z</time>
      </trkpt>
      <trkpt lat="45.08213" lon="2.71028">
        <ele>1582.95</ele>
        <time>2015-06-11T11:39:20Z</time>
      </trkpt>
      <trkpt lat="45.08215" lon="2.71034">
        <ele>1584.39</ele>
        <time>2015-06-11T11:39:25Z</time>
      </trkpt>
      <trkpt lat="45.08216" lon="2.7104">
        <ele>1583.43</ele>
        <time>2015-06-11T11:39:35Z</time>
      </trkpt>
      <trkpt lat="45.08222" lon="2.71054">
        <ele>1583.43</ele>
        <time>2015-06-11T11:39:49Z</time>
      </trkpt>
      <trkpt lat="45.08226" lon="2.71067">
        <ele>1583.91</ele>
        <time>2015-06-11T11:40:03Z</time>
      </trkpt>
      <trkpt lat="45.08229" lon="2.71078">
        <ele>1586.31</ele>
        <time>2015-06-11T11:40:16Z</time>
      </trkpt>
      <trkpt lat="45.08233" lon="2.71085">
        <ele>1589.68</ele>
        <time>2015-06-11T11:40:32Z</time>
      </trkpt>
      <trkpt lat="45.08236" lon="2.71094">
        <ele>1591.12</ele>
        <time>2015-06-11T11:40:48Z</time>
      </trkpt>
      <trkpt lat="45.08241" lon="2.71103">
        <ele>1593.04</ele>
        <time>2015-06-11T11:41:04Z</time>
      </trkpt>
      <trkpt lat="45.08242" lon="2.7111">
        <ele>1594.96</ele>
        <time>2015-06-11T11:41:20Z</time>
      </trkpt>
      <trkpt lat="45.08245" lon="2.71118">
        <ele>1597.85</ele>
        <time>2015-06-11T11:41:33Z</time>
      </trkpt>
      <trkpt lat="45.08245" lon="2.71121">
        <ele>1597.37</ele>
        <time>2015-06-11T11:41:47Z</time>
      </trkpt>
      <trkpt lat="45.0825" lon="2.7113">
        <ele>1599.77</ele>
        <time>2015-06-11T11:42:02Z</time>
      </trkpt>
      <trkpt lat="45.08254" lon="2.71139">
        <ele>1602.66</ele>
        <time>2015-06-11T11:42:18Z</time>
      </trkpt>
      <trkpt lat="45.08258" lon="2.71146">
        <ele>1604.58</ele>
        <time>2015-06-11T11:42:35Z</time>
      </trkpt>
      <trkpt lat="45.08261" lon="2.71148">
        <ele>1605.06</ele>
        <time>2015-06-11T11:42:49Z</time>
      </trkpt>
      <trkpt lat="45.08263" lon="2.71148">
        <ele>1605.54</ele>
        <time>2015-06-11T11:42:52Z</time>
      </trkpt>
      <trkpt lat="45.0827" lon="2.71159">
        <ele>1608.42</ele>
        <time>2015-06-11T11:43:07Z</time>
      </trkpt>
      <trkpt lat="45.08271" lon="2.7116">
        <ele>1608.9</ele>
        <time>2015-06-11T11:43:09Z</time>
      </trkpt>
      <trkpt lat="45.08279" lon="2.7117">
        <ele>1613.71</ele>
        <time>2015-06-11T11:43:25Z</time>
      </trkpt>
      <trkpt lat="45.08283" lon="2.71178">
        <ele>1617.07</ele>
        <time>2015-06-11T11:43:40Z</time>
      </trkpt>
      <trkpt lat="45.08287" lon="2.7118">
        <ele>1618.52</ele>
        <time>2015-06-11T11:43:55Z</time>
      </trkpt>
      <trkpt lat="45.08286" lon="2.71181">
        <ele>1618.52</ele>
        <time>2015-06-11T11:44:17Z</time>
      </trkpt>
      <trkpt lat="45.08286" lon="2.7118">
        <ele>1618.52</ele>
        <time>2015-06-11T11:44:47Z</time>
      </trkpt>
      <trkpt lat="45.08292" lon="2.71181">
        <ele>1618.04</ele>
        <time>2015-06-11T11:45:02Z</time>
      </trkpt>
      <trkpt lat="45.08294" lon="2.71181">
        <ele>1618.04</ele>
        <time>2015-06-11T11:45:04Z</time>
      </trkpt>
      <trkpt lat="45.08304" lon="2.71187">
        <ele>1616.59</ele>
        <time>2015-06-11T11:45:15Z</time>
      </trkpt>
      <trkpt lat="45.08307" lon="2.71188">
        <ele>1616.11</ele>
        <time>2015-06-11T11:45:18Z</time>
      </trkpt>
      <trkpt lat="45.08317" lon="2.71193">
        <ele>1616.11</ele>
        <time>2015-06-11T11:45:28Z</time>
      </trkpt>
      <trkpt lat="45.08322" lon="2.71193">
        <ele>1615.63</ele>
        <time>2015-06-11T11:45:32Z</time>
      </trkpt>
      <trkpt lat="45.08331" lon="2.71197">
        <ele>1615.15</ele>
        <time>2015-06-11T11:45:42Z</time>
      </trkpt>
      <trkpt lat="45.08344" lon="2.71204">
        <ele>1614.19</ele>
        <time>2015-06-11T11:45:55Z</time>
      </trkpt>
      <trkpt lat="45.08355" lon="2.71215">
        <ele>1614.19</ele>
        <time>2015-06-11T11:46:08Z</time>
      </trkpt>
      <trkpt lat="45.08366" lon="2.71225">
        <ele>1614.67</ele>
        <time>2015-06-11T11:46:20Z</time>
      </trkpt>
      <trkpt lat="45.08377" lon="2.71232">
        <ele>1611.79</ele>
        <time>2015-06-11T11:46:33Z</time>
      </trkpt>
      <trkpt lat="45.08379" lon="2.71233">
        <ele>1611.79</ele>
        <time>2015-06-11T11:46:35Z</time>
      </trkpt>
      <trkpt lat="45.08389" lon="2.71236">
        <ele>1610.35</ele>
        <time>2015-06-11T11:46:48Z</time>
      </trkpt>
      <trkpt lat="45.08398" lon="2.71238">
        <ele>1608.9</ele>
        <time>2015-06-11T11:46:57Z</time>
      </trkpt>
      <trkpt lat="45.08406" lon="2.71244">
        <ele>1608.9</ele>
        <time>2015-06-11T11:47:09Z</time>
      </trkpt>
      <trkpt lat="45.08412" lon="2.71247">
        <ele>1606.02</ele>
        <time>2015-06-11T11:47:20Z</time>
      </trkpt>
      <trkpt lat="45.08418" lon="2.71253">
        <ele>1604.1</ele>
        <time>2015-06-11T11:47:29Z</time>
      </trkpt>
      <trkpt lat="45.08426" lon="2.71258">
        <ele>1601.21</ele>
        <time>2015-06-11T11:47:42Z</time>
      </trkpt>
      <trkpt lat="45.08431" lon="2.71264">
        <ele>1600.73</ele>
        <time>2015-06-11T11:47:55Z</time>
      </trkpt>
      <trkpt lat="45.08434" lon="2.71267">
        <ele>1599.77</ele>
        <time>2015-06-11T11:48:08Z</time>
      </trkpt>
      <trkpt lat="45.08433" lon="2.71267">
        <ele>1598.81</ele>
        <time>2015-06-11T11:48:30Z</time>
      </trkpt>
      <trkpt lat="45.08432" lon="2.71268">
        <ele>1597.85</ele>
        <time>2015-06-11T11:49:01Z</time>
      </trkpt>
      <trkpt lat="45.08432" lon="2.71269">
        <ele>1597.85</ele>
        <time>2015-06-11T11:49:33Z</time>
      </trkpt>
      <trkpt lat="45.08432" lon="2.71268">
        <ele>1597.85</ele>
        <time>2015-06-11T11:50:01Z</time>
      </trkpt>
      <trkpt lat="45.0844" lon="2.71273">
        <ele>1598.33</ele>
        <time>2015-06-11T11:50:14Z</time>
      </trkpt>
      <trkpt lat="45.08445" lon="2.71278">
        <ele>1597.37</ele>
        <time>2015-06-11T11:50:22Z</time>
      </trkpt>
      <trkpt lat="45.08448" lon="2.7128">
        <ele>1596.41</ele>
        <time>2015-06-11T11:50:26Z</time>
      </trkpt>
      <trkpt lat="45.08453" lon="2.71292">
        <ele>1595.45</ele>
        <time>2015-06-11T11:50:36Z</time>
      </trkpt>
      <trkpt lat="45.08458" lon="2.71295">
        <ele>1594.96</ele>
        <time>2015-06-11T11:50:40Z</time>
      </trkpt>
      <trkpt lat="45.08461" lon="2.71299">
        <ele>1593.52</ele>
        <time>2015-06-11T11:50:44Z</time>
      </trkpt>
      <trkpt lat="45.08474" lon="2.71311">
        <ele>1590.64</ele>
        <time>2015-06-11T11:50:58Z</time>
      </trkpt>
      <trkpt lat="45.08475" lon="2.71312">
        <ele>1590.64</ele>
        <time>2015-06-11T11:50:59Z</time>
      </trkpt>
      <trkpt lat="45.08478" lon="2.71313">
        <ele>1591.12</ele>
        <time>2015-06-11T11:51:02Z</time>
      </trkpt>
      <trkpt lat="45.08483" lon="2.71316">
        <ele>1592.56</ele>
        <time>2015-06-11T11:51:13Z</time>
      </trkpt>
      <trkpt lat="45.08494" lon="2.71326">
        <ele>1591.12</ele>
        <time>2015-06-11T11:51:25Z</time>
      </trkpt>
      <trkpt lat="45.08505" lon="2.7134">
        <ele>1592.56</ele>
        <time>2015-06-11T11:51:38Z</time>
      </trkpt>
      <trkpt lat="45.08517" lon="2.7135">
        <ele>1592.56</ele>
        <time>2015-06-11T11:51:51Z</time>
      </trkpt>
      <trkpt lat="45.08528" lon="2.71357">
        <ele>1591.12</ele>
        <time>2015-06-11T11:52:04Z</time>
      </trkpt>
      <trkpt lat="45.08531" lon="2.71358">
        <ele>1590.64</ele>
        <time>2015-06-11T11:52:22Z</time>
      </trkpt>
      <trkpt lat="45.0854" lon="2.71369">
        <ele>1589.68</ele>
        <time>2015-06-11T11:52:33Z</time>
      </trkpt>
      <trkpt lat="45.08554" lon="2.71383">
        <ele>1589.68</ele>
        <time>2015-06-11T11:52:48Z</time>
      </trkpt>
      <trkpt lat="45.08559" lon="2.7139">
        <ele>1589.2</ele>
        <time>2015-06-11T11:52:55Z</time>
      </trkpt>
      <trkpt lat="45.08569" lon="2.71405">
        <ele>1586.31</ele>
        <time>2015-06-11T11:53:08Z</time>
      </trkpt>
      <trkpt lat="45.0857" lon="2.71406">
        <ele>1586.31</ele>
        <time>2015-06-11T11:53:09Z</time>
      </trkpt>
      <trkpt lat="45.08571" lon="2.71409">
        <ele>1586.31</ele>
        <time>2015-06-11T11:53:11Z</time>
      </trkpt>
      <trkpt lat="45.08578" lon="2.71418">
        <ele>1587.75</ele>
        <time>2015-06-11T11:53:21Z</time>
      </trkpt>
      <trkpt lat="45.08583" lon="2.71422">
        <ele>1587.27</ele>
        <time>2015-06-11T11:53:36Z</time>
      </trkpt>
      <trkpt lat="45.08583" lon="2.71422">
        <ele>1586.79</ele>
        <time>2015-06-11T11:54:03Z</time>
      </trkpt>
      <trkpt lat="45.0859" lon="2.71431">
        <ele>1585.83</ele>
        <time>2015-06-11T11:54:18Z</time>
      </trkpt>
      <trkpt lat="45.08601" lon="2.7144">
        <ele>1586.79</ele>
        <time>2015-06-11T11:54:31Z</time>
      </trkpt>
      <trkpt lat="45.08608" lon="2.71448">
        <ele>1587.75</ele>
        <time>2015-06-11T11:54:42Z</time>
      </trkpt>
      <trkpt lat="45.08617" lon="2.71458">
        <ele>1589.2</ele>
        <time>2015-06-11T11:54:55Z</time>
      </trkpt>
      <trkpt lat="45.08626" lon="2.71464">
        <ele>1591.6</ele>
        <time>2015-06-11T11:55:09Z</time>
      </trkpt>
      <trkpt lat="45.08631" lon="2.71472">
        <ele>1591.6</ele>
        <time>2015-06-11T11:55:26Z</time>
      </trkpt>
      <trkpt lat="45.08632" lon="2.71473">
        <ele>1592.08</ele>
        <time>2015-06-11T11:55:35Z</time>
      </trkpt>
      <trkpt lat="45.08641" lon="2.71481">
        <ele>1590.64</ele>
        <time>2015-06-11T11:55:49Z</time>
      </trkpt>
      <trkpt lat="45.0865" lon="2.71492">
        <ele>1592.56</ele>
        <time>2015-06-11T11:56:04Z</time>
      </trkpt>
      <trkpt lat="45.08659" lon="2.71503">
        <ele>1595.93</ele>
        <time>2015-06-11T11:56:18Z</time>
      </trkpt>
      <trkpt lat="45.08666" lon="2.71513">
        <ele>1597.37</ele>
        <time>2015-06-11T11:56:30Z</time>
      </trkpt>
      <trkpt lat="45.08667" lon="2.71515">
        <ele>1597.37</ele>
        <time>2015-06-11T11:56:32Z</time>
      </trkpt>
      <trkpt lat="45.08679" lon="2.71522">
        <ele>1598.81</ele>
        <time>2015-06-11T11:56:49Z</time>
      </trkpt>
      <trkpt lat="45.08687" lon="2.71532">
        <ele>1600.73</ele>
        <time>2015-06-11T11:57:02Z</time>
      </trkpt>
      <trkpt lat="45.08695" lon="2.7154">
        <ele>1602.17</ele>
        <time>2015-06-11T11:57:15Z</time>
      </trkpt>
      <trkpt lat="45.08704" lon="2.7155">
        <ele>1603.62</ele>
        <time>2015-06-11T11:57:30Z</time>
      </trkpt>
      <trkpt lat="45.08711" lon="2.71562">
        <ele>1606.02</ele>
        <time>2015-06-11T11:57:43Z</time>
      </trkpt>
      <trkpt lat="45.08716" lon="2.71571">
        <ele>1606.5</ele>
        <time>2015-06-11T11:57:56Z</time>
      </trkpt>
      <trkpt lat="45.0872" lon="2.71584">
        <ele>1607.46</ele>
        <time>2015-06-11T11:58:09Z</time>
      </trkpt>
      <trkpt lat="45.08726" lon="2.71596">
        <ele>1609.38</ele>
        <time>2015-06-11T11:58:21Z</time>
      </trkpt>
      <trkpt lat="45.08729" lon="2.71609">
        <ele>1612.75</ele>
        <time>2015-06-11T11:58:34Z</time>
      </trkpt>
      <trkpt lat="45.08736" lon="2.71625">
        <ele>1613.23</ele>
        <time>2015-06-11T11:58:47Z</time>
      </trkpt>
      <trkpt lat="45.08737" lon="2.71629">
        <ele>1613.23</ele>
        <time>2015-06-11T11:58:51Z</time>
      </trkpt>
      <trkpt lat="45.0874" lon="2.71632">
        <ele>1613.23</ele>
        <time>2015-06-11T11:58:55Z</time>
      </trkpt>
      <trkpt lat="45.08746" lon="2.71647">
        <ele>1613.23</ele>
        <time>2015-06-11T11:59:09Z</time>
      </trkpt>
      <trkpt lat="45.08751" lon="2.71663">
        <ele>1613.23</ele>
        <time>2015-06-11T11:59:21Z</time>
      </trkpt>
      <trkpt lat="45.08756" lon="2.71677">
        <ele>1616.11</ele>
        <time>2015-06-11T11:59:34Z</time>
      </trkpt>
      <trkpt lat="45.08757" lon="2.71683">
        <ele>1616.11</ele>
        <time>2015-06-11T11:59:39Z</time>
      </trkpt>
      <trkpt lat="45.0876" lon="2.71686">
        <ele>1616.11</ele>
        <time>2015-06-11T11:59:43Z</time>
      </trkpt>
      <trkpt lat="45.08763" lon="2.71689">
        <ele>1616.11</ele>
        <time>2015-06-11T11:59:46Z</time>
      </trkpt>
      <trkpt lat="45.08771" lon="2.71701">
        <ele>1616.11</ele>
        <time>2015-06-11T11:59:58Z</time>
      </trkpt>
      <trkpt lat="45.08775" lon="2.71711">
        <ele>1617.07</ele>
        <time>2015-06-11T12:00:07Z</time>
      </trkpt>
      <trkpt lat="45.08776" lon="2.71713">
        <ele>1617.56</ele>
        <time>2015-06-11T12:00:09Z</time>
      </trkpt>
      <trkpt lat="45.08777" lon="2.71715">
        <ele>1617.56</ele>
        <time>2015-06-11T12:00:11Z</time>
      </trkpt>
      <trkpt lat="45.0879" lon="2.71731">
        <ele>1618.52</ele>
        <time>2015-06-11T12:00:26Z</time>
      </trkpt>
      <trkpt lat="45.088" lon="2.71741">
        <ele>1618.04</ele>
        <time>2015-06-11T12:00:40Z</time>
      </trkpt>
      <trkpt lat="45.08806" lon="2.71742">
        <ele>1618.04</ele>
        <time>2015-06-11T12:00:53Z</time>
      </trkpt>
      <trkpt lat="45.08816" lon="2.71749">
        <ele>1616.59</ele>
        <time>2015-06-11T12:01:04Z</time>
      </trkpt>
      <trkpt lat="45.08817" lon="2.7175">
        <ele>1616.11</ele>
        <time>2015-06-11T12:01:05Z</time>
      </trkpt>
      <trkpt lat="45.08826" lon="2.71753">
        <ele>1614.19</ele>
        <time>2015-06-11T12:01:17Z</time>
      </trkpt>
      <trkpt lat="45.08827" lon="2.71754">
        <ele>1613.71</ele>
        <time>2015-06-11T12:01:18Z</time>
      </trkpt>
      <trkpt lat="45.08837" lon="2.71755">
        <ele>1613.23</ele>
        <time>2015-06-11T12:01:31Z</time>
      </trkpt>
      <trkpt lat="45.08835" lon="2.71756">
        <ele>1612.27</ele>
        <time>2015-06-11T12:01:45Z</time>
      </trkpt>
      <trkpt lat="45.08836" lon="2.71754">
        <ele>1612.27</ele>
        <time>2015-06-11T12:01:56Z</time>
      </trkpt>
      <trkpt lat="45.0884" lon="2.71742">
        <ele>1614.19</ele>
        <time>2015-06-11T12:02:09Z</time>
      </trkpt>
      <trkpt lat="45.0884" lon="2.71742">
        <ele>1614.19</ele>
        <time>2015-06-11T12:02:10Z</time>
      </trkpt>
      <trkpt lat="45.08846" lon="2.71727">
        <ele>1614.67</ele>
        <time>2015-06-11T12:02:24Z</time>
      </trkpt>
      <trkpt lat="45.0885" lon="2.71721">
        <ele>1615.63</ele>
        <time>2015-06-11T12:02:36Z</time>
      </trkpt>
      <trkpt lat="45.08852" lon="2.71714">
        <ele>1616.11</ele>
        <time>2015-06-11T12:02:47Z</time>
      </trkpt>
      <trkpt lat="45.08854" lon="2.71698">
        <ele>1616.59</ele>
        <time>2015-06-11T12:03:00Z</time>
      </trkpt>
      <trkpt lat="45.08855" lon="2.7169">
        <ele>1618.52</ele>
        <time>2015-06-11T12:03:07Z</time>
      </trkpt>
      <trkpt lat="45.0885" lon="2.71675">
        <ele>1619.48</ele>
        <time>2015-06-11T12:03:21Z</time>
      </trkpt>
      <trkpt lat="45.08848" lon="2.71663">
        <ele>1619</ele>
        <time>2015-06-11T12:03:34Z</time>
      </trkpt>
      <trkpt lat="45.08851" lon="2.71664">
        <ele>1618.04</ele>
        <time>2015-06-11T12:03:50Z</time>
      </trkpt>
      <trkpt lat="45.08854" lon="2.71666">
        <ele>1615.63</ele>
        <time>2015-06-11T12:03:59Z</time>
      </trkpt>
      <trkpt lat="45.08856" lon="2.71665">
        <ele>1614.19</ele>
        <time>2015-06-11T12:04:14Z</time>
      </trkpt>
      <trkpt lat="45.08856" lon="2.71665">
        <ele>1614.67</ele>
        <time>2015-06-11T12:04:17Z</time>
      </trkpt>
      <trkpt lat="45.08846" lon="2.71662">
        <ele>1615.15</ele>
        <time>2015-06-11T12:04:29Z</time>
      </trkpt>
      <trkpt lat="45.08839" lon="2.71656">
        <ele>1617.56</ele>
        <time>2015-06-11T12:04:40Z</time>
      </trkpt>
      <trkpt lat="45.08834" lon="2.71653">
        <ele>1620.44</ele>
        <time>2015-06-11T12:04:51Z</time>
      </trkpt>
      <trkpt lat="45.08834" lon="2.71653">
        <ele>1620.92</ele>
        <time>2015-06-11T12:04:52Z</time>
      </trkpt>
      <trkpt lat="45.08826" lon="2.71652">
        <ele>1621.4</ele>
        <time>2015-06-11T12:05:01Z</time>
      </trkpt>
      <trkpt lat="45.08822" lon="2.71649">
        <ele>1621.4</ele>
        <time>2015-06-11T12:05:06Z</time>
      </trkpt>
      <trkpt lat="45.08819" lon="2.71647">
        <ele>1620.92</ele>
        <time>2015-06-11T12:05:09Z</time>
      </trkpt>
      <trkpt lat="45.08816" lon="2.71645">
        <ele>1620.92</ele>
        <time>2015-06-11T12:05:12Z</time>
      </trkpt>
      <trkpt lat="45.08815" lon="2.71641">
        <ele>1621.4</ele>
        <time>2015-06-11T12:05:15Z</time>
      </trkpt>
      <trkpt lat="45.08808" lon="2.71633">
        <ele>1620.92</ele>
        <time>2015-06-11T12:05:22Z</time>
      </trkpt>
      <trkpt lat="45.08807" lon="2.71632">
        <ele>1621.4</ele>
        <time>2015-06-11T12:05:24Z</time>
      </trkpt>
      <trkpt lat="45.08806" lon="2.71626">
        <ele>1621.88</ele>
        <time>2015-06-11T12:05:29Z</time>
      </trkpt>
      <trkpt lat="45.08801" lon="2.71623">
        <ele>1621.88</ele>
        <time>2015-06-11T12:05:34Z</time>
      </trkpt>
      <trkpt lat="45.08799" lon="2.71619">
        <ele>1620.92</ele>
        <time>2015-06-11T12:05:41Z</time>
      </trkpt>
      <trkpt lat="45.08795" lon="2.71613">
        <ele>1620.92</ele>
        <time>2015-06-11T12:05:46Z</time>
      </trkpt>
      <trkpt lat="45.08788" lon="2.71602">
        <ele>1620.44</ele>
        <time>2015-06-11T12:05:57Z</time>
      </trkpt>
      <trkpt lat="45.08778" lon="2.71583">
        <ele>1618.52</ele>
        <time>2015-06-11T12:06:13Z</time>
      </trkpt>
      <trkpt lat="45.0877" lon="2.71569">
        <ele>1618.52</ele>
        <time>2015-06-11T12:06:25Z</time>
      </trkpt>
      <trkpt lat="45.08763" lon="2.71548">
        <ele>1616.11</ele>
        <time>2015-06-11T12:06:42Z</time>
      </trkpt>
      <trkpt lat="45.08762" lon="2.71547">
        <ele>1616.11</ele>
        <time>2015-06-11T12:06:43Z</time>
      </trkpt>
      <trkpt lat="45.08756" lon="2.71527">
        <ele>1613.71</ele>
        <time>2015-06-11T12:06:59Z</time>
      </trkpt>
      <trkpt lat="45.08753" lon="2.71518">
        <ele>1612.75</ele>
        <time>2015-06-11T12:07:05Z</time>
      </trkpt>
      <trkpt lat="45.08753" lon="2.71515">
        <ele>1612.75</ele>
        <time>2015-06-11T12:07:09Z</time>
      </trkpt>
      <trkpt lat="45.0875" lon="2.71501">
        <ele>1608.9</ele>
        <time>2015-06-11T12:07:21Z</time>
      </trkpt>
      <trkpt lat="45.08748" lon="2.71494">
        <ele>1606.5</ele>
        <time>2015-06-11T12:07:27Z</time>
      </trkpt>
      <trkpt lat="45.08742" lon="2.71475">
        <ele>1603.62</ele>
        <time>2015-06-11T12:07:41Z</time>
      </trkpt>
      <trkpt lat="45.08737" lon="2.71454">
        <ele>1602.17</ele>
        <time>2015-06-11T12:07:57Z</time>
      </trkpt>
      <trkpt lat="45.0873" lon="2.7144">
        <ele>1601.21</ele>
        <time>2015-06-11T12:08:09Z</time>
      </trkpt>
      <trkpt lat="45.08723" lon="2.71421">
        <ele>1599.29</ele>
        <time>2015-06-11T12:08:23Z</time>
      </trkpt>
      <trkpt lat="45.0872" lon="2.71408">
        <ele>1596.89</ele>
        <time>2015-06-11T12:08:35Z</time>
      </trkpt>
      <trkpt lat="45.0872" lon="2.71399">
        <ele>1594.96</ele>
        <time>2015-06-11T12:08:45Z</time>
      </trkpt>
      <trkpt lat="45.08718" lon="2.7139">
        <ele>1594.48</ele>
        <time>2015-06-11T12:08:55Z</time>
      </trkpt>
      <trkpt lat="45.0872" lon="2.71389">
        <ele>1594.96</ele>
        <time>2015-06-11T12:09:08Z</time>
      </trkpt>
      <trkpt lat="45.08716" lon="2.7138">
        <ele>1594.48</ele>
        <time>2015-06-11T12:09:22Z</time>
      </trkpt>
      <trkpt lat="45.08713" lon="2.71374">
        <ele>1594.48</ele>
        <time>2015-06-11T12:09:34Z</time>
      </trkpt>
      <trkpt lat="45.08713" lon="2.71371">
        <ele>1593.52</ele>
        <time>2015-06-11T12:09:54Z</time>
      </trkpt>
      <trkpt lat="45.08713" lon="2.71363">
        <ele>1591.12</ele>
        <time>2015-06-11T12:10:05Z</time>
      </trkpt>
      <trkpt lat="45.0871" lon="2.71356">
        <ele>1587.75</ele>
        <time>2015-06-11T12:10:16Z</time>
      </trkpt>
      <trkpt lat="45.08712" lon="2.71344">
        <ele>1581.03</ele>
        <time>2015-06-11T12:10:29Z</time>
      </trkpt>
      <trkpt lat="45.08713" lon="2.71336">
        <ele>1578.62</ele>
        <time>2015-06-11T12:10:40Z</time>
      </trkpt>
      <trkpt lat="45.08715" lon="2.71333">
        <ele>1577.66</ele>
        <time>2015-06-11T12:10:44Z</time>
      </trkpt>
      <trkpt lat="45.08721" lon="2.71328">
        <ele>1575.26</ele>
        <time>2015-06-11T12:10:50Z</time>
      </trkpt>
      <trkpt lat="45.08728" lon="2.71317">
        <ele>1572.37</ele>
        <time>2015-06-11T12:11:03Z</time>
      </trkpt>
      <trkpt lat="45.08734" lon="2.71306">
        <ele>1571.41</ele>
        <time>2015-06-11T12:11:16Z</time>
      </trkpt>
      <trkpt lat="45.08733" lon="2.71304">
        <ele>1571.41</ele>
        <time>2015-06-11T12:11:18Z</time>
      </trkpt>
      <trkpt lat="45.08729" lon="2.7129">
        <ele>1569.97</ele>
        <time>2015-06-11T12:11:30Z</time>
      </trkpt>
      <trkpt lat="45.08725" lon="2.71282">
        <ele>1571.41</ele>
        <time>2015-06-11T12:11:44Z</time>
      </trkpt>
      <trkpt lat="45.08718" lon="2.7128">
        <ele>1570.93</ele>
        <time>2015-06-11T12:11:55Z</time>
      </trkpt>
      <trkpt lat="45.08717" lon="2.7128">
        <ele>1570.93</ele>
        <time>2015-06-11T12:12:13Z</time>
      </trkpt>
      <trkpt lat="45.08709" lon="2.71278">
        <ele>1569.97</ele>
        <time>2015-06-11T12:12:27Z</time>
      </trkpt>
      <trkpt lat="45.08708" lon="2.71272">
        <ele>1568.05</ele>
        <time>2015-06-11T12:12:40Z</time>
      </trkpt>
      <trkpt lat="45.087" lon="2.7127">
        <ele>1569.01</ele>
        <time>2015-06-11T12:12:51Z</time>
      </trkpt>
      <trkpt lat="45.08696" lon="2.71264">
        <ele>1564.68</ele>
        <time>2015-06-11T12:13:04Z</time>
      </trkpt>
      <trkpt lat="45.08695" lon="2.71258">
        <ele>1561.32</ele>
        <time>2015-06-11T12:13:15Z</time>
      </trkpt>
      <trkpt lat="45.08696" lon="2.71258">
        <ele>1561.8</ele>
        <time>2015-06-11T12:13:18Z</time>
      </trkpt>
      <trkpt lat="45.08697" lon="2.71256">
        <ele>1561.8</ele>
        <time>2015-06-11T12:13:20Z</time>
      </trkpt>
      <trkpt lat="45.08704" lon="2.71247">
        <ele>1562.76</ele>
        <time>2015-06-11T12:13:29Z</time>
      </trkpt>
      <trkpt lat="45.08707" lon="2.71239">
        <ele>1561.8</ele>
        <time>2015-06-11T12:13:34Z</time>
      </trkpt>
      <trkpt lat="45.08714" lon="2.71231">
        <ele>1563.72</ele>
        <time>2015-06-11T12:13:43Z</time>
      </trkpt>
      <trkpt lat="45.08716" lon="2.71227">
        <ele>1566.12</ele>
        <time>2015-06-11T12:13:48Z</time>
      </trkpt>
      <trkpt lat="45.08721" lon="2.71221">
        <ele>1569.97</ele>
        <time>2015-06-11T12:13:55Z</time>
      </trkpt>
      <trkpt lat="45.08728" lon="2.71216">
        <ele>1570.93</ele>
        <time>2015-06-11T12:14:04Z</time>
      </trkpt>
      <trkpt lat="45.08742" lon="2.71215">
        <ele>1563.24</ele>
        <time>2015-06-11T12:14:17Z</time>
      </trkpt>
      <trkpt lat="45.08745" lon="2.71216">
        <ele>1562.76</ele>
        <time>2015-06-11T12:14:22Z</time>
      </trkpt>
      <trkpt lat="45.08754" lon="2.71228">
        <ele>1560.36</ele>
        <time>2015-06-11T12:14:35Z</time>
      </trkpt>
      <trkpt lat="45.08757" lon="2.71234">
        <ele>1557.95</ele>
        <time>2015-06-11T12:14:41Z</time>
      </trkpt>
      <trkpt lat="45.08762" lon="2.71243">
        <ele>1556.51</ele>
        <time>2015-06-11T12:14:56Z</time>
      </trkpt>
      <trkpt lat="45.08763" lon="2.71244">
        <ele>1556.03</ele>
        <time>2015-06-11T12:15:19Z</time>
      </trkpt>
      <trkpt lat="45.08766" lon="2.71251">
        <ele>1556.03</ele>
        <time>2015-06-11T12:15:44Z</time>
      </trkpt>
      <trkpt lat="45.08767" lon="2.71254">
        <ele>1555.55</ele>
        <time>2015-06-11T12:15:46Z</time>
      </trkpt>
      <trkpt lat="45.08777" lon="2.71268">
        <ele>1551.71</ele>
        <time>2015-06-11T12:16:00Z</time>
      </trkpt>
      <trkpt lat="45.08785" lon="2.71282">
        <ele>1549.78</ele>
        <time>2015-06-11T12:16:12Z</time>
      </trkpt>
      <trkpt lat="45.0879" lon="2.7129">
        <ele>1546.42</ele>
        <time>2015-06-11T12:16:22Z</time>
      </trkpt>
      <trkpt lat="45.08798" lon="2.713">
        <ele>1543.53</ele>
        <time>2015-06-11T12:16:33Z</time>
      </trkpt>
      <trkpt lat="45.08807" lon="2.71309">
        <ele>1541.61</ele>
        <time>2015-06-11T12:16:44Z</time>
      </trkpt>
      <trkpt lat="45.08808" lon="2.7131">
        <ele>1541.61</ele>
        <time>2015-06-11T12:16:45Z</time>
      </trkpt>
      <trkpt lat="45.08818" lon="2.71326">
        <ele>1540.17</ele>
        <time>2015-06-11T12:16:58Z</time>
      </trkpt>
      <trkpt lat="45.08821" lon="2.71329">
        <ele>1539.69</ele>
        <time>2015-06-11T12:17:01Z</time>
      </trkpt>
      <trkpt lat="45.08822" lon="2.71333">
        <ele>1539.21</ele>
        <time>2015-06-11T12:17:04Z</time>
      </trkpt>
      <trkpt lat="45.08826" lon="2.71342">
        <ele>1538.73</ele>
        <time>2015-06-11T12:17:11Z</time>
      </trkpt>
      <trkpt lat="45.08834" lon="2.7136">
        <ele>1536.32</ele>
        <time>2015-06-11T12:17:25Z</time>
      </trkpt>
      <trkpt lat="45.08839" lon="2.71375">
        <ele>1537.77</ele>
        <time>2015-06-11T12:17:37Z</time>
      </trkpt>
      <trkpt lat="45.08842" lon="2.71386">
        <ele>1535.84</ele>
        <time>2015-06-11T12:17:45Z</time>
      </trkpt>
      <trkpt lat="45.08848" lon="2.71406">
        <ele>1531.04</ele>
        <time>2015-06-11T12:18:01Z</time>
      </trkpt>
      <trkpt lat="45.08861" lon="2.71422">
        <ele>1530.56</ele>
        <time>2015-06-11T12:18:14Z</time>
      </trkpt>
      <trkpt lat="45.08861" lon="2.71423">
        <ele>1530.56</ele>
        <time>2015-06-11T12:18:15Z</time>
      </trkpt>
      <trkpt lat="45.08869" lon="2.71438">
        <ele>1530.56</ele>
        <time>2015-06-11T12:18:27Z</time>
      </trkpt>
      <trkpt lat="45.08879" lon="2.7145">
        <ele>1529.11</ele>
        <time>2015-06-11T12:18:39Z</time>
      </trkpt>
      <trkpt lat="45.08882" lon="2.71458">
        <ele>1530.56</ele>
        <time>2015-06-11T12:18:45Z</time>
      </trkpt>
      <trkpt lat="45.08887" lon="2.7146">
        <ele>1529.59</ele>
        <time>2015-06-11T12:18:49Z</time>
      </trkpt>
      <trkpt lat="45.08896" lon="2.71469">
        <ele>1528.15</ele>
        <time>2015-06-11T12:19:02Z</time>
      </trkpt>
      <trkpt lat="45.08909" lon="2.71485">
        <ele>1528.63</ele>
        <time>2015-06-11T12:19:16Z</time>
      </trkpt>
      <trkpt lat="45.08909" lon="2.71486">
        <ele>1528.63</ele>
        <time>2015-06-11T12:19:17Z</time>
      </trkpt>
      <trkpt lat="45.08914" lon="2.71502">
        <ele>1527.19</ele>
        <time>2015-06-11T12:19:31Z</time>
      </trkpt>
      <trkpt lat="45.08922" lon="2.71511">
        <ele>1527.67</ele>
        <time>2015-06-11T12:19:39Z</time>
      </trkpt>
      <trkpt lat="45.08925" lon="2.71512">
        <ele>1527.67</ele>
        <time>2015-06-11T12:19:41Z</time>
      </trkpt>
      <trkpt lat="45.0893" lon="2.71516">
        <ele>1528.15</ele>
        <time>2015-06-11T12:19:46Z</time>
      </trkpt>
      <trkpt lat="45.08935" lon="2.71523">
        <ele>1529.11</ele>
        <time>2015-06-11T12:19:52Z</time>
      </trkpt>
      <trkpt lat="45.08937" lon="2.71533">
        <ele>1530.08</ele>
        <time>2015-06-11T12:20:00Z</time>
      </trkpt>
      <trkpt lat="45.08943" lon="2.71539">
        <ele>1529.59</ele>
        <time>2015-06-11T12:20:08Z</time>
      </trkpt>
      <trkpt lat="45.08953" lon="2.71545">
        <ele>1529.11</ele>
        <time>2015-06-11T12:20:16Z</time>
      </trkpt>
      <trkpt lat="45.08955" lon="2.71547">
        <ele>1529.11</ele>
        <time>2015-06-11T12:20:18Z</time>
      </trkpt>
      <trkpt lat="45.08958" lon="2.71551">
        <ele>1528.63</ele>
        <time>2015-06-11T12:20:22Z</time>
      </trkpt>
      <trkpt lat="45.08963" lon="2.71556">
        <ele>1527.67</ele>
        <time>2015-06-11T12:20:27Z</time>
      </trkpt>
      <trkpt lat="45.08969" lon="2.71565">
        <ele>1527.67</ele>
        <time>2015-06-11T12:20:36Z</time>
      </trkpt>
      <trkpt lat="45.08973" lon="2.7157">
        <ele>1527.19</ele>
        <time>2015-06-11T12:20:42Z</time>
      </trkpt>
      <trkpt lat="45.08983" lon="2.71579">
        <ele>1527.67</ele>
        <time>2015-06-11T12:20:51Z</time>
      </trkpt>
      <trkpt lat="45.08987" lon="2.71585">
        <ele>1527.19</ele>
        <time>2015-06-11T12:20:57Z</time>
      </trkpt>
      <trkpt lat="45.08991" lon="2.7159">
        <ele>1526.71</ele>
        <time>2015-06-11T12:21:01Z</time>
      </trkpt>
      <trkpt lat="45.08994" lon="2.71598">
        <ele>1526.23</ele>
        <time>2015-06-11T12:21:08Z</time>
      </trkpt>
      <trkpt lat="45.09002" lon="2.71606">
        <ele>1524.31</ele>
        <time>2015-06-11T12:21:17Z</time>
      </trkpt>
      <trkpt lat="45.09013" lon="2.71617">
        <ele>1523.83</ele>
        <time>2015-06-11T12:21:28Z</time>
      </trkpt>
      <trkpt lat="45.09021" lon="2.71636">
        <ele>1524.79</ele>
        <time>2015-06-11T12:21:41Z</time>
      </trkpt>
      <trkpt lat="45.09031" lon="2.71653">
        <ele>1525.75</ele>
        <time>2015-06-11T12:21:56Z</time>
      </trkpt>
      <trkpt lat="45.09039" lon="2.71662">
        <ele>1525.75</ele>
        <time>2015-06-11T12:22:07Z</time>
      </trkpt>
      <trkpt lat="45.09048" lon="2.7167">
        <ele>1525.27</ele>
        <time>2015-06-11T12:22:19Z</time>
      </trkpt>
      <trkpt lat="45.09061" lon="2.71675">
        <ele>1526.23</ele>
        <time>2015-06-11T12:22:32Z</time>
      </trkpt>
      <trkpt lat="45.09063" lon="2.71678">
        <ele>1527.19</ele>
        <time>2015-06-11T12:22:44Z</time>
      </trkpt>
      <trkpt lat="45.09064" lon="2.71682">
        <ele>1526.71</ele>
        <time>2015-06-11T12:22:57Z</time>
      </trkpt>
      <trkpt lat="45.09065" lon="2.71685">
        <ele>1526.71</ele>
        <time>2015-06-11T12:23:13Z</time>
      </trkpt>
      <trkpt lat="45.09065" lon="2.71685">
        <ele>1525.75</ele>
        <time>2015-06-11T12:23:28Z</time>
      </trkpt>
      <trkpt lat="45.09069" lon="2.71687">
        <ele>1526.71</ele>
        <time>2015-06-11T12:23:45Z</time>
      </trkpt>
      <trkpt lat="45.0907" lon="2.71688">
        <ele>1526.71</ele>
        <time>2015-06-11T12:24:02Z</time>
      </trkpt>
      <trkpt lat="45.09071" lon="2.71691">
        <ele>1526.23</ele>
        <time>2015-06-11T12:24:09Z</time>
      </trkpt>
      <trkpt lat="45.0907" lon="2.71705">
        <ele>1524.31</ele>
        <time>2015-06-11T12:24:21Z</time>
      </trkpt>
      <trkpt lat="45.09068" lon="2.71711">
        <ele>1522.87</ele>
        <time>2015-06-11T12:24:34Z</time>
      </trkpt>
      <trkpt lat="45.09068" lon="2.71709">
        <ele>1521.9</ele>
        <time>2015-06-11T12:24:53Z</time>
      </trkpt>
      <trkpt lat="45.09069" lon="2.71711">
        <ele>1521.42</ele>
        <time>2015-06-11T12:25:11Z</time>
      </trkpt>
      <trkpt lat="45.09069" lon="2.71715">
        <ele>1519.98</ele>
        <time>2015-06-11T12:25:26Z</time>
      </trkpt>
      <trkpt lat="45.09071" lon="2.71716">
        <ele>1519.98</ele>
        <time>2015-06-11T12:25:44Z</time>
      </trkpt>
      <trkpt lat="45.09072" lon="2.71717">
        <ele>1519.02</ele>
        <time>2015-06-11T12:25:58Z</time>
      </trkpt>
      <trkpt lat="45.09075" lon="2.71718">
        <ele>1519.5</ele>
        <time>2015-06-11T12:26:11Z</time>
      </trkpt>
      <trkpt lat="45.09083" lon="2.71719">
        <ele>1519.02</ele>
        <time>2015-06-11T12:26:24Z</time>
      </trkpt>
      <trkpt lat="45.09083" lon="2.71719">
        <ele>1517.58</ele>
        <time>2015-06-11T12:26:37Z</time>
      </trkpt>
      <trkpt lat="45.09084" lon="2.71721">
        <ele>1519.02</ele>
        <time>2015-06-11T12:26:55Z</time>
      </trkpt>
      <trkpt lat="45.09075" lon="2.7173">
        <ele>1516.62</ele>
        <time>2015-06-11T12:27:06Z</time>
      </trkpt>
      <trkpt lat="45.09074" lon="2.71731">
        <ele>1516.14</ele>
        <time>2015-06-11T12:27:08Z</time>
      </trkpt>
      <trkpt lat="45.09072" lon="2.7174">
        <ele>1516.62</ele>
        <time>2015-06-11T12:27:14Z</time>
      </trkpt>
      <trkpt lat="45.0907" lon="2.71745">
        <ele>1517.1</ele>
        <time>2015-06-11T12:27:18Z</time>
      </trkpt>
      <trkpt lat="45.09067" lon="2.71756">
        <ele>1514.69</ele>
        <time>2015-06-11T12:27:26Z</time>
      </trkpt>
      <trkpt lat="45.09057" lon="2.71767">
        <ele>1511.33</ele>
        <time>2015-06-11T12:27:39Z</time>
      </trkpt>
      <trkpt lat="45.09049" lon="2.7178">
        <ele>1511.33</ele>
        <time>2015-06-11T12:27:51Z</time>
      </trkpt>
      <trkpt lat="45.09047" lon="2.71782">
        <ele>1510.37</ele>
        <time>2015-06-11T12:27:58Z</time>
      </trkpt>
      <trkpt lat="45.09045" lon="2.71785">
        <ele>1509.89</ele>
        <time>2015-06-11T12:28:01Z</time>
      </trkpt>
      <trkpt lat="45.09045" lon="2.71788">
        <ele>1509.41</ele>
        <time>2015-06-11T12:28:03Z</time>
      </trkpt>
      <trkpt lat="45.09039" lon="2.71806">
        <ele>1507.97</ele>
        <time>2015-06-11T12:28:16Z</time>
      </trkpt>
      <trkpt lat="45.09032" lon="2.71824">
        <ele>1504.12</ele>
        <time>2015-06-11T12:28:28Z</time>
      </trkpt>
      <trkpt lat="45.09028" lon="2.71841">
        <ele>1501.72</ele>
        <time>2015-06-11T12:28:41Z</time>
      </trkpt>
      <trkpt lat="45.09023" lon="2.71847">
        <ele>1502.2</ele>
        <time>2015-06-11T12:28:52Z</time>
      </trkpt>
      <trkpt lat="45.09023" lon="2.71853">
        <ele>1501.72</ele>
        <time>2015-06-11T12:29:03Z</time>
      </trkpt>
      <trkpt lat="45.09022" lon="2.71858">
        <ele>1502.2</ele>
        <time>2015-06-11T12:29:14Z</time>
      </trkpt>
      <trkpt lat="45.09022" lon="2.7186">
        <ele>1502.2</ele>
        <time>2015-06-11T12:29:16Z</time>
      </trkpt>
      <trkpt lat="45.09017" lon="2.71875">
        <ele>1503.64</ele>
        <time>2015-06-11T12:29:27Z</time>
      </trkpt>
      <trkpt lat="45.09016" lon="2.7188">
        <ele>1503.64</ele>
        <time>2015-06-11T12:29:30Z</time>
      </trkpt>
      <trkpt lat="45.09013" lon="2.7189">
        <ele>1502.2</ele>
        <time>2015-06-11T12:29:37Z</time>
      </trkpt>
      <trkpt lat="45.09011" lon="2.71895">
        <ele>1503.16</ele>
        <time>2015-06-11T12:29:54Z</time>
      </trkpt>
      <trkpt lat="45.09011" lon="2.719">
        <ele>1503.64</ele>
        <time>2015-06-11T12:30:09Z</time>
      </trkpt>
      <trkpt lat="45.09001" lon="2.71915">
        <ele>1504.12</ele>
        <time>2015-06-11T12:30:23Z</time>
      </trkpt>
      <trkpt lat="45.08997" lon="2.71921">
        <ele>1504.6</ele>
        <time>2015-06-11T12:30:29Z</time>
      </trkpt>
      <trkpt lat="45.08993" lon="2.71926">
        <ele>1504.6</ele>
        <time>2015-06-11T12:30:34Z</time>
      </trkpt>
      <trkpt lat="45.08992" lon="2.71929">
        <ele>1504.12</ele>
        <time>2015-06-11T12:30:36Z</time>
      </trkpt>
      <trkpt lat="45.0899" lon="2.71929">
        <ele>1502.68</ele>
        <time>2015-06-11T12:30:50Z</time>
      </trkpt>
      <trkpt lat="45.0899" lon="2.7193">
        <ele>1502.68</ele>
        <time>2015-06-11T12:31:07Z</time>
      </trkpt>
      <trkpt lat="45.08989" lon="2.7193">
        <ele>1503.16</ele>
        <time>2015-06-11T12:31:41Z</time>
      </trkpt>
      <trkpt lat="45.08989" lon="2.7193">
        <ele>1503.64</ele>
        <time>2015-06-11T12:32:08Z</time>
      </trkpt>
      <trkpt lat="45.08989" lon="2.71931">
        <ele>1503.16</ele>
        <time>2015-06-11T12:32:43Z</time>
      </trkpt>
      <trkpt lat="45.0899" lon="2.71931">
        <ele>1502.68</ele>
        <time>2015-06-11T12:33:15Z</time>
      </trkpt>
      <trkpt lat="45.08991" lon="2.71931">
        <ele>1502.68</ele>
        <time>2015-06-11T12:33:24Z</time>
      </trkpt>
      <trkpt lat="45.0899" lon="2.7193">
        <ele>1503.16</ele>
        <time>2015-06-11T12:33:41Z</time>
      </trkpt>
      <trkpt lat="45.08991" lon="2.71931">
        <ele>1502.68</ele>
        <time>2015-06-11T12:34:00Z</time>
      </trkpt>
      <trkpt lat="45.0899" lon="2.71932">
        <ele>1502.2</ele>
        <time>2015-06-11T12:34:13Z</time>
      </trkpt>
      <trkpt lat="45.0899" lon="2.71931">
        <ele>1501.72</ele>
        <time>2015-06-11T12:34:29Z</time>
      </trkpt>
      <trkpt lat="45.0899" lon="2.71931">
        <ele>1502.2</ele>
        <time>2015-06-11T12:34:48Z</time>
      </trkpt>
      <trkpt lat="45.0899" lon="2.71931">
        <ele>1502.2</ele>
        <time>2015-06-11T12:35:09Z</time>
      </trkpt>
      <trkpt lat="45.08989" lon="2.7193">
        <ele>1502.2</ele>
        <time>2015-06-11T12:35:34Z</time>
      </trkpt>
      <trkpt lat="45.0899" lon="2.7193">
        <ele>1502.2</ele>
        <time>2015-06-11T12:35:48Z</time>
      </trkpt>
      <trkpt lat="45.0899" lon="2.71929">
        <ele>1502.2</ele>
        <time>2015-06-11T12:35:56Z</time>
      </trkpt>
      <trkpt lat="45.08996" lon="2.71919">
        <ele>1502.68</ele>
        <time>2015-06-11T12:36:09Z</time>
      </trkpt>
      <trkpt lat="45.09001" lon="2.71911">
        <ele>1505.08</ele>
        <time>2015-06-11T12:36:22Z</time>
      </trkpt>
      <trkpt lat="45.09008" lon="2.71903">
        <ele>1505.56</ele>
        <time>2015-06-11T12:36:35Z</time>
      </trkpt>
      <trkpt lat="45.0901" lon="2.71897">
        <ele>1505.56</ele>
        <time>2015-06-11T12:36:40Z</time>
      </trkpt>
      <trkpt lat="45.09013" lon="2.71887">
        <ele>1506.04</ele>
        <time>2015-06-11T12:36:47Z</time>
      </trkpt>
      <trkpt lat="45.09015" lon="2.7188">
        <ele>1506.52</ele>
        <time>2015-06-11T12:36:53Z</time>
      </trkpt>
      <trkpt lat="45.09016" lon="2.7187">
        <ele>1506.52</ele>
        <time>2015-06-11T12:37:00Z</time>
      </trkpt>
      <trkpt lat="45.09018" lon="2.71865">
        <ele>1506.52</ele>
        <time>2015-06-11T12:37:04Z</time>
      </trkpt>
      <trkpt lat="45.09021" lon="2.71848">
        <ele>1504.12</ele>
        <time>2015-06-11T12:37:15Z</time>
      </trkpt>
      <trkpt lat="45.09023" lon="2.71842">
        <ele>1501.24</ele>
        <time>2015-06-11T12:37:27Z</time>
      </trkpt>
      <trkpt lat="45.09025" lon="2.71838">
        <ele>1501.24</ele>
        <time>2015-06-11T12:37:30Z</time>
      </trkpt>
      <trkpt lat="45.09027" lon="2.71831">
        <ele>1501.72</ele>
        <time>2015-06-11T12:37:36Z</time>
      </trkpt>
      <trkpt lat="45.09031" lon="2.71816">
        <ele>1501.72</ele>
        <time>2015-06-11T12:37:48Z</time>
      </trkpt>
      <trkpt lat="45.09035" lon="2.7181">
        <ele>1502.2</ele>
        <time>2015-06-11T12:37:53Z</time>
      </trkpt>
      <trkpt lat="45.09041" lon="2.71795">
        <ele>1502.68</ele>
        <time>2015-06-11T12:38:07Z</time>
      </trkpt>
      <trkpt lat="45.09045" lon="2.71781">
        <ele>1502.68</ele>
        <time>2015-06-11T12:38:19Z</time>
      </trkpt>
      <trkpt lat="45.09047" lon="2.71775">
        <ele>1502.2</ele>
        <time>2015-06-11T12:38:24Z</time>
      </trkpt>
      <trkpt lat="45.09052" lon="2.71769">
        <ele>1501.24</ele>
        <time>2015-06-11T12:38:31Z</time>
      </trkpt>
      <trkpt lat="45.09062" lon="2.7176">
        <ele>1503.16</ele>
        <time>2015-06-11T12:38:46Z</time>
      </trkpt>
      <trkpt lat="45.09065" lon="2.71755">
        <ele>1505.08</ele>
        <time>2015-06-11T12:38:53Z</time>
      </trkpt>
      <trkpt lat="45.09071" lon="2.71744">
        <ele>1506.52</ele>
        <time>2015-06-11T12:39:07Z</time>
      </trkpt>
      <trkpt lat="45.09072" lon="2.71738">
        <ele>1507.48</ele>
        <time>2015-06-11T12:39:15Z</time>
      </trkpt>
      <trkpt lat="45.09075" lon="2.71728">
        <ele>1507.48</ele>
        <time>2015-06-11T12:39:27Z</time>
      </trkpt>
      <trkpt lat="45.09084" lon="2.71718">
        <ele>1507.48</ele>
        <time>2015-06-11T12:39:41Z</time>
      </trkpt>
      <trkpt lat="45.09084" lon="2.71719">
        <ele>1508.93</ele>
        <time>2015-06-11T12:39:54Z</time>
      </trkpt>
      <trkpt lat="45.09084" lon="2.71715">
        <ele>1510.37</ele>
        <time>2015-06-11T12:40:05Z</time>
      </trkpt>
      <trkpt lat="45.09086" lon="2.71713">
        <ele>1511.33</ele>
        <time>2015-06-11T12:40:09Z</time>
      </trkpt>
      <trkpt lat="45.09096" lon="2.71711">
        <ele>1515.18</ele>
        <time>2015-06-11T12:40:21Z</time>
      </trkpt>
      <trkpt lat="45.09104" lon="2.71708">
        <ele>1517.1</ele>
        <time>2015-06-11T12:40:32Z</time>
      </trkpt>
      <trkpt lat="45.09113" lon="2.71709">
        <ele>1519.98</ele>
        <time>2015-06-11T12:40:44Z</time>
      </trkpt>
      <trkpt lat="45.09124" lon="2.71708">
        <ele>1519.5</ele>
        <time>2015-06-11T12:40:56Z</time>
      </trkpt>
      <trkpt lat="45.0913" lon="2.71702">
        <ele>1521.42</ele>
        <time>2015-06-11T12:41:07Z</time>
      </trkpt>
      <trkpt lat="45.09141" lon="2.71706">
        <ele>1524.31</ele>
        <time>2015-06-11T12:41:20Z</time>
      </trkpt>
      <trkpt lat="45.09154" lon="2.71702">
        <ele>1524.31</ele>
        <time>2015-06-11T12:41:33Z</time>
      </trkpt>
      <trkpt lat="45.09164" lon="2.717">
        <ele>1525.75</ele>
        <time>2015-06-11T12:41:45Z</time>
      </trkpt>
      <trkpt lat="45.09178" lon="2.71697">
        <ele>1529.11</ele>
        <time>2015-06-11T12:42:00Z</time>
      </trkpt>
      <trkpt lat="45.09184" lon="2.71695">
        <ele>1530.56</ele>
        <time>2015-06-11T12:42:13Z</time>
      </trkpt>
      <trkpt lat="45.09189" lon="2.71692">
        <ele>1528.63</ele>
        <time>2015-06-11T12:42:26Z</time>
      </trkpt>
      <trkpt lat="45.09204" lon="2.71683">
        <ele>1527.19</ele>
        <time>2015-06-11T12:42:39Z</time>
      </trkpt>
      <trkpt lat="45.09211" lon="2.7168">
        <ele>1526.71</ele>
        <time>2015-06-11T12:42:47Z</time>
      </trkpt>
      <trkpt lat="45.09223" lon="2.71677">
        <ele>1526.23</ele>
        <time>2015-06-11T12:42:58Z</time>
      </trkpt>
      <trkpt lat="45.09226" lon="2.71677">
        <ele>1526.23</ele>
        <time>2015-06-11T12:43:01Z</time>
      </trkpt>
      <trkpt lat="45.09228" lon="2.71676">
        <ele>1526.71</ele>
        <time>2015-06-11T12:43:03Z</time>
      </trkpt>
      <trkpt lat="45.09237" lon="2.71668">
        <ele>1528.63</ele>
        <time>2015-06-11T12:43:14Z</time>
      </trkpt>
      <trkpt lat="45.09251" lon="2.71669">
        <ele>1528.15</ele>
        <time>2015-06-11T12:43:29Z</time>
      </trkpt>
      <trkpt lat="45.09263" lon="2.71668">
        <ele>1530.56</ele>
        <time>2015-06-11T12:43:43Z</time>
      </trkpt>
      <trkpt lat="45.09264" lon="2.71668">
        <ele>1530.56</ele>
        <time>2015-06-11T12:43:44Z</time>
      </trkpt>
      <trkpt lat="45.09273" lon="2.7167">
        <ele>1532.96</ele>
        <time>2015-06-11T12:43:57Z</time>
      </trkpt>
      <trkpt lat="45.09276" lon="2.71672">
        <ele>1533.44</ele>
        <time>2015-06-11T12:44:02Z</time>
      </trkpt>
      <trkpt lat="45.09278" lon="2.71674">
        <ele>1533.44</ele>
        <time>2015-06-11T12:44:04Z</time>
      </trkpt>
      <trkpt lat="45.09285" lon="2.71678">
        <ele>1535.36</ele>
        <time>2015-06-11T12:44:17Z</time>
      </trkpt>
      <trkpt lat="45.09292" lon="2.71679">
        <ele>1537.29</ele>
        <time>2015-06-11T12:44:34Z</time>
      </trkpt>
      <trkpt lat="45.09297" lon="2.71681">
        <ele>1537.29</ele>
        <time>2015-06-11T12:44:46Z</time>
      </trkpt>
      <trkpt lat="45.09296" lon="2.71681">
        <ele>1537.77</ele>
        <time>2015-06-11T12:45:01Z</time>
      </trkpt>
      <trkpt lat="45.093" lon="2.71681">
        <ele>1535.84</ele>
        <time>2015-06-11T12:45:13Z</time>
      </trkpt>
      <trkpt lat="45.09303" lon="2.71682">
        <ele>1538.25</ele>
        <time>2015-06-11T12:45:17Z</time>
      </trkpt>
      <trkpt lat="45.09309" lon="2.71687">
        <ele>1540.17</ele>
        <time>2015-06-11T12:45:25Z</time>
      </trkpt>
      <trkpt lat="45.0931" lon="2.71688">
        <ele>1540.17</ele>
        <time>2015-06-11T12:45:27Z</time>
      </trkpt>
      <trkpt lat="45.09314" lon="2.71692">
        <ele>1540.17</ele>
        <time>2015-06-11T12:45:32Z</time>
      </trkpt>
      <trkpt lat="45.09316" lon="2.71695">
        <ele>1541.61</ele>
        <time>2015-06-11T12:45:35Z</time>
      </trkpt>
      <trkpt lat="45.09329" lon="2.71702">
        <ele>1542.57</ele>
        <time>2015-06-11T12:45:48Z</time>
      </trkpt>
      <trkpt lat="45.09341" lon="2.71708">
        <ele>1544.01</ele>
        <time>2015-06-11T12:46:01Z</time>
      </trkpt>
      <trkpt lat="45.09355" lon="2.71714">
        <ele>1542.09</ele>
        <time>2015-06-11T12:46:14Z</time>
      </trkpt>
      <trkpt lat="45.09366" lon="2.71717">
        <ele>1541.61</ele>
        <time>2015-06-11T12:46:27Z</time>
      </trkpt>
      <trkpt lat="45.09379" lon="2.7172">
        <ele>1541.61</ele>
        <time>2015-06-11T12:46:40Z</time>
      </trkpt>
      <trkpt lat="45.09389" lon="2.71727">
        <ele>1541.13</ele>
        <time>2015-06-11T12:46:50Z</time>
      </trkpt>
      <trkpt lat="45.09395" lon="2.71732">
        <ele>1542.57</ele>
        <time>2015-06-11T12:46:58Z</time>
      </trkpt>
      <trkpt lat="45.09404" lon="2.71739">
        <ele>1542.09</ele>
        <time>2015-06-11T12:47:09Z</time>
      </trkpt>
      <trkpt lat="45.09418" lon="2.71744">
        <ele>1540.65</ele>
        <time>2015-06-11T12:47:21Z</time>
      </trkpt>
      <trkpt lat="45.0943" lon="2.71748">
        <ele>1543.53</ele>
        <time>2015-06-11T12:47:33Z</time>
      </trkpt>
      <trkpt lat="45.09431" lon="2.71748">
        <ele>1543.53</ele>
        <time>2015-06-11T12:47:34Z</time>
      </trkpt>
      <trkpt lat="45.09441" lon="2.71751">
        <ele>1542.09</ele>
        <time>2015-06-11T12:47:44Z</time>
      </trkpt>
      <trkpt lat="45.09456" lon="2.71757">
        <ele>1542.57</ele>
        <time>2015-06-11T12:47:57Z</time>
      </trkpt>
      <trkpt lat="45.09465" lon="2.71762">
        <ele>1543.53</ele>
        <time>2015-06-11T12:48:09Z</time>
      </trkpt>
      <trkpt lat="45.09466" lon="2.71762">
        <ele>1543.05</ele>
        <time>2015-06-11T12:48:17Z</time>
      </trkpt>
      <trkpt lat="45.09471" lon="2.71761">
        <ele>1542.09</ele>
        <time>2015-06-11T12:48:22Z</time>
      </trkpt>
      <trkpt lat="45.09476" lon="2.71763">
        <ele>1541.61</ele>
        <time>2015-06-11T12:48:26Z</time>
      </trkpt>
      <trkpt lat="45.09489" lon="2.71765">
        <ele>1542.09</ele>
        <time>2015-06-11T12:48:36Z</time>
      </trkpt>
      <trkpt lat="45.09495" lon="2.71767">
        <ele>1542.57</ele>
        <time>2015-06-11T12:48:43Z</time>
      </trkpt>
      <trkpt lat="45.09501" lon="2.71768">
        <ele>1542.57</ele>
        <time>2015-06-11T12:48:49Z</time>
      </trkpt>
      <trkpt lat="45.09512" lon="2.7177">
        <ele>1543.53</ele>
        <time>2015-06-11T12:49:00Z</time>
      </trkpt>
      <trkpt lat="45.09527" lon="2.71768">
        <ele>1544.98</ele>
        <time>2015-06-11T12:49:11Z</time>
      </trkpt>
      <trkpt lat="45.09541" lon="2.71767">
        <ele>1548.34</ele>
        <time>2015-06-11T12:49:23Z</time>
      </trkpt>
      <trkpt lat="45.09547" lon="2.71769">
        <ele>1547.38</ele>
        <time>2015-06-11T12:49:35Z</time>
      </trkpt>
      <trkpt lat="45.09549" lon="2.71769">
        <ele>1547.38</ele>
        <time>2015-06-11T12:49:52Z</time>
      </trkpt>
      <trkpt lat="45.09554" lon="2.71769">
        <ele>1545.46</ele>
        <time>2015-06-11T12:50:03Z</time>
      </trkpt>
      <trkpt lat="45.09557" lon="2.71772">
        <ele>1546.9</ele>
        <time>2015-06-11T12:50:13Z</time>
      </trkpt>
      <trkpt lat="45.09565" lon="2.71776">
        <ele>1545.94</ele>
        <time>2015-06-11T12:50:24Z</time>
      </trkpt>
      <trkpt lat="45.0957" lon="2.71782">
        <ele>1546.42</ele>
        <time>2015-06-11T12:50:36Z</time>
      </trkpt>
      <trkpt lat="45.09571" lon="2.71782">
        <ele>1546.42</ele>
        <time>2015-06-11T12:50:52Z</time>
      </trkpt>
      <trkpt lat="45.09573" lon="2.71784">
        <ele>1547.38</ele>
        <time>2015-06-11T12:51:15Z</time>
      </trkpt>
      <trkpt lat="45.09576" lon="2.71785">
        <ele>1546.9</ele>
        <time>2015-06-11T12:51:18Z</time>
      </trkpt>
      <trkpt lat="45.09581" lon="2.71788">
        <ele>1547.38</ele>
        <time>2015-06-11T12:51:25Z</time>
      </trkpt>
      <trkpt lat="45.0959" lon="2.71804">
        <ele>1549.3</ele>
        <time>2015-06-11T12:51:39Z</time>
      </trkpt>
      <trkpt lat="45.09593" lon="2.71813">
        <ele>1551.22</ele>
        <time>2015-06-11T12:51:52Z</time>
      </trkpt>
      <trkpt lat="45.09594" lon="2.71813">
        <ele>1551.22</ele>
        <time>2015-06-11T12:52:02Z</time>
      </trkpt>
      <trkpt lat="45.09596" lon="2.71818">
        <ele>1551.22</ele>
        <time>2015-06-11T12:52:06Z</time>
      </trkpt>
      <trkpt lat="45.09599" lon="2.71829">
        <ele>1549.78</ele>
        <time>2015-06-11T12:52:18Z</time>
      </trkpt>
      <trkpt lat="45.09608" lon="2.7184">
        <ele>1547.86</ele>
        <time>2015-06-11T12:52:31Z</time>
      </trkpt>
      <trkpt lat="45.09617" lon="2.71846">
        <ele>1546.42</ele>
        <time>2015-06-11T12:52:39Z</time>
      </trkpt>
      <trkpt lat="45.09624" lon="2.71859">
        <ele>1547.38</ele>
        <time>2015-06-11T12:52:51Z</time>
      </trkpt>
      <trkpt lat="45.09631" lon="2.71863">
        <ele>1545.94</ele>
        <time>2015-06-11T12:53:01Z</time>
      </trkpt>
      <trkpt lat="45.09634" lon="2.71864">
        <ele>1545.94</ele>
        <time>2015-06-11T12:53:04Z</time>
      </trkpt>
      <trkpt lat="45.09646" lon="2.71875">
        <ele>1544.98</ele>
        <time>2015-06-11T12:53:16Z</time>
      </trkpt>
      <trkpt lat="45.09655" lon="2.71879">
        <ele>1544.5</ele>
        <time>2015-06-11T12:53:26Z</time>
      </trkpt>
      <trkpt lat="45.09658" lon="2.71882">
        <ele>1543.05</ele>
        <time>2015-06-11T12:53:30Z</time>
      </trkpt>
      <trkpt lat="45.09669" lon="2.71882">
        <ele>1540.17</ele>
        <time>2015-06-11T12:53:43Z</time>
      </trkpt>
      <trkpt lat="45.09673" lon="2.7189">
        <ele>1539.21</ele>
        <time>2015-06-11T12:53:54Z</time>
      </trkpt>
      <trkpt lat="45.09675" lon="2.7189">
        <ele>1539.21</ele>
        <time>2015-06-11T12:53:57Z</time>
      </trkpt>
      <trkpt lat="45.09687" lon="2.71896">
        <ele>1537.77</ele>
        <time>2015-06-11T12:54:10Z</time>
      </trkpt>
      <trkpt lat="45.09693" lon="2.71903">
        <ele>1539.21</ele>
        <time>2015-06-11T12:54:17Z</time>
      </trkpt>
      <trkpt lat="45.09697" lon="2.71909">
        <ele>1539.69</ele>
        <time>2015-06-11T12:54:22Z</time>
      </trkpt>
      <trkpt lat="45.09703" lon="2.71918">
        <ele>1539.21</ele>
        <time>2015-06-11T12:54:34Z</time>
      </trkpt>
      <trkpt lat="45.09703" lon="2.7192">
        <ele>1539.21</ele>
        <time>2015-06-11T12:54:55Z</time>
      </trkpt>
      <trkpt lat="45.09702" lon="2.71919">
        <ele>1538.73</ele>
        <time>2015-06-11T12:55:21Z</time>
      </trkpt>
      <trkpt lat="45.09703" lon="2.7192">
        <ele>1538.25</ele>
        <time>2015-06-11T12:55:32Z</time>
      </trkpt>
      <trkpt lat="45.0971" lon="2.71927">
        <ele>1536.32</ele>
        <time>2015-06-11T12:55:43Z</time>
      </trkpt>
      <trkpt lat="45.09712" lon="2.71929">
        <ele>1536.32</ele>
        <time>2015-06-11T12:55:46Z</time>
      </trkpt>
      <trkpt lat="45.09714" lon="2.71932">
        <ele>1536.32</ele>
        <time>2015-06-11T12:55:49Z</time>
      </trkpt>
      <trkpt lat="45.09716" lon="2.71934">
        <ele>1536.32</ele>
        <time>2015-06-11T12:55:52Z</time>
      </trkpt>
      <trkpt lat="45.09724" lon="2.71946">
        <ele>1535.84</ele>
        <time>2015-06-11T12:56:03Z</time>
      </trkpt>
      <trkpt lat="45.09733" lon="2.71954">
        <ele>1535.84</ele>
        <time>2015-06-11T12:56:14Z</time>
      </trkpt>
      <trkpt lat="45.09744" lon="2.7196">
        <ele>1534.4</ele>
        <time>2015-06-11T12:56:27Z</time>
      </trkpt>
      <trkpt lat="45.09749" lon="2.71967">
        <ele>1533.44</ele>
        <time>2015-06-11T12:56:39Z</time>
      </trkpt>
      <trkpt lat="45.0975" lon="2.71969">
        <ele>1533.92</ele>
        <time>2015-06-11T12:56:51Z</time>
      </trkpt>
      <trkpt lat="45.0975" lon="2.71972">
        <ele>1534.4</ele>
        <time>2015-06-11T12:57:00Z</time>
      </trkpt>
      <trkpt lat="45.09752" lon="2.71976">
        <ele>1534.4</ele>
        <time>2015-06-11T12:57:05Z</time>
      </trkpt>
      <trkpt lat="45.09757" lon="2.71983">
        <ele>1531.52</ele>
        <time>2015-06-11T12:57:16Z</time>
      </trkpt>
      <trkpt lat="45.09758" lon="2.71984">
        <ele>1531.52</ele>
        <time>2015-06-11T12:57:17Z</time>
      </trkpt>
      <trkpt lat="45.09761" lon="2.7199">
        <ele>1532.48</ele>
        <time>2015-06-11T12:57:28Z</time>
      </trkpt>
      <trkpt lat="45.09766" lon="2.71998">
        <ele>1533.44</ele>
        <time>2015-06-11T12:57:41Z</time>
      </trkpt>
      <trkpt lat="45.09771" lon="2.72004">
        <ele>1529.11</ele>
        <time>2015-06-11T12:57:53Z</time>
      </trkpt>
      <trkpt lat="45.09771" lon="2.72004">
        <ele>1529.11</ele>
        <time>2015-06-11T12:57:54Z</time>
      </trkpt>
      <trkpt lat="45.09774" lon="2.72012">
        <ele>1532</ele>
        <time>2015-06-11T12:58:05Z</time>
      </trkpt>
      <trkpt lat="45.09774" lon="2.72013">
        <ele>1532.48</ele>
        <time>2015-06-11T12:58:06Z</time>
      </trkpt>
      <trkpt lat="45.0978" lon="2.72021">
        <ele>1526.23</ele>
        <time>2015-06-11T12:58:16Z</time>
      </trkpt>
      <trkpt lat="45.09782" lon="2.72022">
        <ele>1526.23</ele>
        <time>2015-06-11T12:58:18Z</time>
      </trkpt>
      <trkpt lat="45.09782" lon="2.72025">
        <ele>1526.23</ele>
        <time>2015-06-11T12:58:20Z</time>
      </trkpt>
      <trkpt lat="45.09782" lon="2.72029">
        <ele>1526.23</ele>
        <time>2015-06-11T12:58:24Z</time>
      </trkpt>
      <trkpt lat="45.09779" lon="2.72041">
        <ele>1525.75</ele>
        <time>2015-06-11T12:58:36Z</time>
      </trkpt>
      <trkpt lat="45.09773" lon="2.72051">
        <ele>1524.79</ele>
        <time>2015-06-11T12:58:50Z</time>
      </trkpt>
      <trkpt lat="45.09768" lon="2.72063">
        <ele>1518.54</ele>
        <time>2015-06-11T12:59:05Z</time>
      </trkpt>
      <trkpt lat="45.09767" lon="2.72067">
        <ele>1517.58</ele>
        <time>2015-06-11T12:59:09Z</time>
      </trkpt>
      <trkpt lat="45.09765" lon="2.72082">
        <ele>1513.73</ele>
        <time>2015-06-11T12:59:23Z</time>
      </trkpt>
      <trkpt lat="45.09763" lon="2.72091">
        <ele>1509.41</ele>
        <time>2015-06-11T12:59:36Z</time>
      </trkpt>
      <trkpt lat="45.09763" lon="2.72096">
        <ele>1509.89</ele>
        <time>2015-06-11T12:59:43Z</time>
      </trkpt>
      <trkpt lat="45.09761" lon="2.72105">
        <ele>1511.81</ele>
        <time>2015-06-11T12:59:51Z</time>
      </trkpt>
      <trkpt lat="45.09758" lon="2.72116">
        <ele>1509.89</ele>
        <time>2015-06-11T13:00:02Z</time>
      </trkpt>
      <trkpt lat="45.09759" lon="2.72117">
        <ele>1509.89</ele>
        <time>2015-06-11T13:00:04Z</time>
      </trkpt>
      <trkpt lat="45.09758" lon="2.72132">
        <ele>1510.37</ele>
        <time>2015-06-11T13:00:16Z</time>
      </trkpt>
      <trkpt lat="45.09758" lon="2.72143">
        <ele>1507.97</ele>
        <time>2015-06-11T13:00:28Z</time>
      </trkpt>
      <trkpt lat="45.09758" lon="2.72151">
        <ele>1506.52</ele>
        <time>2015-06-11T13:00:35Z</time>
      </trkpt>
      <trkpt lat="45.09759" lon="2.72155">
        <ele>1506.52</ele>
        <time>2015-06-11T13:00:39Z</time>
      </trkpt>
      <trkpt lat="45.0976" lon="2.72157">
        <ele>1506.52</ele>
        <time>2015-06-11T13:00:41Z</time>
      </trkpt>
      <trkpt lat="45.09759" lon="2.72163">
        <ele>1506.52</ele>
        <time>2015-06-11T13:00:47Z</time>
      </trkpt>
      <trkpt lat="45.0976" lon="2.72166">
        <ele>1506.04</ele>
        <time>2015-06-11T13:00:50Z</time>
      </trkpt>
      <trkpt lat="45.09761" lon="2.72179">
        <ele>1500.76</ele>
        <time>2015-06-11T13:01:03Z</time>
      </trkpt>
      <trkpt lat="45.09761" lon="2.7218">
        <ele>1500.76</ele>
        <time>2015-06-11T13:01:04Z</time>
      </trkpt>
      <trkpt lat="45.0976" lon="2.72186">
        <ele>1500.27</ele>
        <time>2015-06-11T13:01:08Z</time>
      </trkpt>
      <trkpt lat="45.09751" lon="2.72193">
        <ele>1495.95</ele>
        <time>2015-06-11T13:01:22Z</time>
      </trkpt>
      <trkpt lat="45.09744" lon="2.72205">
        <ele>1494.99</ele>
        <time>2015-06-11T13:01:32Z</time>
      </trkpt>
      <trkpt lat="45.09742" lon="2.72207">
        <ele>1494.03</ele>
        <time>2015-06-11T13:01:34Z</time>
      </trkpt>
      <trkpt lat="45.09737" lon="2.72223">
        <ele>1492.58</ele>
        <time>2015-06-11T13:01:47Z</time>
      </trkpt>
      <trkpt lat="45.09732" lon="2.72235">
        <ele>1492.1</ele>
        <time>2015-06-11T13:01:56Z</time>
      </trkpt>
      <trkpt lat="45.0973" lon="2.72245">
        <ele>1491.14</ele>
        <time>2015-06-11T13:02:03Z</time>
      </trkpt>
      <trkpt lat="45.0973" lon="2.7225">
        <ele>1489.22</ele>
        <time>2015-06-11T13:02:07Z</time>
      </trkpt>
      <trkpt lat="45.09728" lon="2.72262">
        <ele>1486.82</ele>
        <time>2015-06-11T13:02:17Z</time>
      </trkpt>
      <trkpt lat="45.09725" lon="2.72273">
        <ele>1486.82</ele>
        <time>2015-06-11T13:02:26Z</time>
      </trkpt>
      <trkpt lat="45.09721" lon="2.72288">
        <ele>1486.82</ele>
        <time>2015-06-11T13:02:36Z</time>
      </trkpt>
      <trkpt lat="45.09721" lon="2.72301">
        <ele>1485.37</ele>
        <time>2015-06-11T13:02:45Z</time>
      </trkpt>
      <trkpt lat="45.0972" lon="2.72316">
        <ele>1486.34</ele>
        <time>2015-06-11T13:02:54Z</time>
      </trkpt>
      <trkpt lat="45.0972" lon="2.72319">
        <ele>1486.34</ele>
        <time>2015-06-11T13:02:56Z</time>
      </trkpt>
      <trkpt lat="45.09722" lon="2.7233">
        <ele>1484.89</ele>
        <time>2015-06-11T13:03:06Z</time>
      </trkpt>
      <trkpt lat="45.09722" lon="2.72335">
        <ele>1483.45</ele>
        <time>2015-06-11T13:03:09Z</time>
      </trkpt>
      <trkpt lat="45.09725" lon="2.72339">
        <ele>1482.01</ele>
        <time>2015-06-11T13:03:13Z</time>
      </trkpt>
      <trkpt lat="45.09734" lon="2.72345">
        <ele>1480.09</ele>
        <time>2015-06-11T13:03:26Z</time>
      </trkpt>
      <trkpt lat="45.09732" lon="2.7235">
        <ele>1478.65</ele>
        <time>2015-06-11T13:03:36Z</time>
      </trkpt>
      <trkpt lat="45.09728" lon="2.72356">
        <ele>1476.24</ele>
        <time>2015-06-11T13:03:50Z</time>
      </trkpt>
      <trkpt lat="45.09725" lon="2.72365">
        <ele>1475.28</ele>
        <time>2015-06-11T13:04:01Z</time>
      </trkpt>
      <trkpt lat="45.09724" lon="2.72367">
        <ele>1475.28</ele>
        <time>2015-06-11T13:04:06Z</time>
      </trkpt>
      <trkpt lat="45.09724" lon="2.72369">
        <ele>1474.8</ele>
        <time>2015-06-11T13:04:08Z</time>
      </trkpt>
      <trkpt lat="45.09721" lon="2.72373">
        <ele>1472.88</ele>
        <time>2015-06-11T13:04:17Z</time>
      </trkpt>
      <trkpt lat="45.09709" lon="2.72377">
        <ele>1467.11</ele>
        <time>2015-06-11T13:04:32Z</time>
      </trkpt>
      <trkpt lat="45.097" lon="2.72379">
        <ele>1462.3</ele>
        <time>2015-06-11T13:04:45Z</time>
      </trkpt>
      <trkpt lat="45.09695" lon="2.72378">
        <ele>1460.86</ele>
        <time>2015-06-11T13:04:52Z</time>
      </trkpt>
      <trkpt lat="45.09685" lon="2.72368">
        <ele>1459.42</ele>
        <time>2015-06-11T13:05:05Z</time>
      </trkpt>
      <trkpt lat="45.09678" lon="2.72364">
        <ele>1457.02</ele>
        <time>2015-06-11T13:05:18Z</time>
      </trkpt>
      <trkpt lat="45.0967" lon="2.72371">
        <ele>1454.61</ele>
        <time>2015-06-11T13:05:32Z</time>
      </trkpt>
      <trkpt lat="45.09665" lon="2.72373">
        <ele>1453.65</ele>
        <time>2015-06-11T13:05:37Z</time>
      </trkpt>
      <trkpt lat="45.0966" lon="2.72374">
        <ele>1453.17</ele>
        <time>2015-06-11T13:05:42Z</time>
      </trkpt>
      <trkpt lat="45.09657" lon="2.72385">
        <ele>1452.21</ele>
        <time>2015-06-11T13:05:54Z</time>
      </trkpt>
      <trkpt lat="45.09657" lon="2.72386">
        <ele>1452.69</ele>
        <time>2015-06-11T13:06:07Z</time>
      </trkpt>
      <trkpt lat="45.09653" lon="2.72387">
        <ele>1451.25</ele>
        <time>2015-06-11T13:06:20Z</time>
      </trkpt>
      <trkpt lat="45.09658" lon="2.7238">
        <ele>1451.73</ele>
        <time>2015-06-11T13:06:32Z</time>
      </trkpt>
      <trkpt lat="45.09656" lon="2.72373">
        <ele>1450.77</ele>
        <time>2015-06-11T13:06:37Z</time>
      </trkpt>
      <trkpt lat="45.09654" lon="2.72364">
        <ele>1448.36</ele>
        <time>2015-06-11T13:06:45Z</time>
      </trkpt>
      <trkpt lat="45.09649" lon="2.72349">
        <ele>1444.04</ele>
        <time>2015-06-11T13:06:59Z</time>
      </trkpt>
      <trkpt lat="45.09646" lon="2.72345">
        <ele>1443.56</ele>
        <time>2015-06-11T13:07:05Z</time>
      </trkpt>
      <trkpt lat="45.0964" lon="2.72337">
        <ele>1442.11</ele>
        <time>2015-06-11T13:07:15Z</time>
      </trkpt>
      <trkpt lat="45.09639" lon="2.72326">
        <ele>1440.19</ele>
        <time>2015-06-11T13:07:22Z</time>
      </trkpt>
      <trkpt lat="45.09635" lon="2.72325">
        <ele>1439.71</ele>
        <time>2015-06-11T13:07:27Z</time>
      </trkpt>
      <trkpt lat="45.09632" lon="2.72332">
        <ele>1441.15</ele>
        <time>2015-06-11T13:07:35Z</time>
      </trkpt>
      <trkpt lat="45.09628" lon="2.72345">
        <ele>1441.15</ele>
        <time>2015-06-11T13:07:45Z</time>
      </trkpt>
      <trkpt lat="45.09621" lon="2.72357">
        <ele>1441.15</ele>
        <time>2015-06-11T13:07:57Z</time>
      </trkpt>
      <trkpt lat="45.09618" lon="2.72367">
        <ele>1441.15</ele>
        <time>2015-06-11T13:08:06Z</time>
      </trkpt>
      <trkpt lat="45.09615" lon="2.72376">
        <ele>1441.15</ele>
        <time>2015-06-11T13:08:12Z</time>
      </trkpt>
      <trkpt lat="45.09613" lon="2.72384">
        <ele>1438.75</ele>
        <time>2015-06-11T13:08:21Z</time>
      </trkpt>
      <trkpt lat="45.09611" lon="2.72393">
        <ele>1434.91</ele>
        <time>2015-06-11T13:08:32Z</time>
      </trkpt>
      <trkpt lat="45.09607" lon="2.72408">
        <ele>1434.42</ele>
        <time>2015-06-11T13:08:44Z</time>
      </trkpt>
      <trkpt lat="45.09604" lon="2.72421">
        <ele>1431.54</ele>
        <time>2015-06-11T13:08:55Z</time>
      </trkpt>
      <trkpt lat="45.09604" lon="2.72422">
        <ele>1431.54</ele>
        <time>2015-06-11T13:08:56Z</time>
      </trkpt>
      <trkpt lat="45.09601" lon="2.7243">
        <ele>1428.66</ele>
        <time>2015-06-11T13:09:06Z</time>
      </trkpt>
      <trkpt lat="45.096" lon="2.72432">
        <ele>1427.7</ele>
        <time>2015-06-11T13:09:09Z</time>
      </trkpt>
      <trkpt lat="45.09599" lon="2.7244">
        <ele>1425.77</ele>
        <time>2015-06-11T13:09:18Z</time>
      </trkpt>
      <trkpt lat="45.09598" lon="2.72443">
        <ele>1424.33</ele>
        <time>2015-06-11T13:09:21Z</time>
      </trkpt>
      <trkpt lat="45.09597" lon="2.72451">
        <ele>1419.04</ele>
        <time>2015-06-11T13:09:31Z</time>
      </trkpt>
      <trkpt lat="45.09598" lon="2.72459">
        <ele>1416.64</ele>
        <time>2015-06-11T13:09:39Z</time>
      </trkpt>
      <trkpt lat="45.09599" lon="2.72474">
        <ele>1413.76</ele>
        <time>2015-06-11T13:09:51Z</time>
      </trkpt>
      <trkpt lat="45.09601" lon="2.72486">
        <ele>1413.28</ele>
        <time>2015-06-11T13:09:58Z</time>
      </trkpt>
      <trkpt lat="45.09607" lon="2.72494">
        <ele>1408.95</ele>
        <time>2015-06-11T13:10:09Z</time>
      </trkpt>
      <trkpt lat="45.09614" lon="2.72494">
        <ele>1407.51</ele>
        <time>2015-06-11T13:10:23Z</time>
      </trkpt>
      <trkpt lat="45.0962" lon="2.72498">
        <ele>1406.55</ele>
        <time>2015-06-11T13:10:37Z</time>
      </trkpt>
      <trkpt lat="45.09632" lon="2.72502">
        <ele>1406.55</ele>
        <time>2015-06-11T13:10:48Z</time>
      </trkpt>
      <trkpt lat="45.09635" lon="2.7251">
        <ele>1405.58</ele>
        <time>2015-06-11T13:10:57Z</time>
      </trkpt>
      <trkpt lat="45.09631" lon="2.72533">
        <ele>1404.62</ele>
        <time>2015-06-11T13:11:09Z</time>
      </trkpt>
      <trkpt lat="45.09634" lon="2.72538">
        <ele>1404.14</ele>
        <time>2015-06-11T13:11:15Z</time>
      </trkpt>
      <trkpt lat="45.09636" lon="2.72541">
        <ele>1404.62</ele>
        <time>2015-06-11T13:11:17Z</time>
      </trkpt>
      <trkpt lat="45.09635" lon="2.72546">
        <ele>1403.66</ele>
        <time>2015-06-11T13:11:20Z</time>
      </trkpt>
      <trkpt lat="45.09632" lon="2.72554">
        <ele>1398.86</ele>
        <time>2015-06-11T13:11:32Z</time>
      </trkpt>
      <trkpt lat="45.09634" lon="2.72562">
        <ele>1391.17</ele>
        <time>2015-06-11T13:11:46Z</time>
      </trkpt>
      <trkpt lat="45.09639" lon="2.72578">
        <ele>1382.03</ele>
        <time>2015-06-11T13:11:58Z</time>
      </trkpt>
      <trkpt lat="45.09634" lon="2.72593">
        <ele>1385.88</ele>
        <time>2015-06-11T13:12:09Z</time>
      </trkpt>
      <trkpt lat="45.09622" lon="2.72597">
        <ele>1389.72</ele>
        <time>2015-06-11T13:12:22Z</time>
      </trkpt>
      <trkpt lat="45.09619" lon="2.72598">
        <ele>1391.17</ele>
        <time>2015-06-11T13:12:38Z</time>
      </trkpt>
      <trkpt lat="45.0961" lon="2.72599">
        <ele>1392.13</ele>
        <time>2015-06-11T13:12:58Z</time>
      </trkpt>
      <trkpt lat="45.09594" lon="2.72611">
        <ele>1391.17</ele>
        <time>2015-06-11T13:13:12Z</time>
      </trkpt>
      <trkpt lat="45.09582" lon="2.72622">
        <ele>1389.24</ele>
        <time>2015-06-11T13:13:21Z</time>
      </trkpt>
      <trkpt lat="45.09572" lon="2.72635">
        <ele>1388.28</ele>
        <time>2015-06-11T13:13:35Z</time>
      </trkpt>
      <trkpt lat="45.09564" lon="2.7264">
        <ele>1387.32</ele>
        <time>2015-06-11T13:13:46Z</time>
      </trkpt>
      <trkpt lat="45.09555" lon="2.72649">
        <ele>1383.96</ele>
        <time>2015-06-11T13:13:58Z</time>
      </trkpt>
      <trkpt lat="45.0955" lon="2.72659">
        <ele>1380.59</ele>
        <time>2015-06-11T13:14:15Z</time>
      </trkpt>
      <trkpt lat="45.09544" lon="2.72668">
        <ele>1377.23</ele>
        <time>2015-06-11T13:14:32Z</time>
      </trkpt>
      <trkpt lat="45.09538" lon="2.72684">
        <ele>1375.78</ele>
        <time>2015-06-11T13:14:48Z</time>
      </trkpt>
      <trkpt lat="45.09532" lon="2.72696">
        <ele>1374.34</ele>
        <time>2015-06-11T13:15:03Z</time>
      </trkpt>
      <trkpt lat="45.09526" lon="2.72711">
        <ele>1372.42</ele>
        <time>2015-06-11T13:15:18Z</time>
      </trkpt>
      <trkpt lat="45.09527" lon="2.72725">
        <ele>1368.09</ele>
        <time>2015-06-11T13:15:32Z</time>
      </trkpt>
      <trkpt lat="45.09522" lon="2.72735">
        <ele>1365.69</ele>
        <time>2015-06-11T13:15:45Z</time>
      </trkpt>
      <trkpt lat="45.09515" lon="2.72743">
        <ele>1361.84</ele>
        <time>2015-06-11T13:15:55Z</time>
      </trkpt>
      <trkpt lat="45.09514" lon="2.72744">
        <ele>1358.48</ele>
        <time>2015-06-11T13:16:06Z</time>
      </trkpt>
      <trkpt lat="45.09512" lon="2.72725">
        <ele>1352.23</ele>
        <time>2015-06-11T13:16:21Z</time>
      </trkpt>
      <trkpt lat="45.09507" lon="2.72715">
        <ele>1350.31</ele>
        <time>2015-06-11T13:16:32Z</time>
      </trkpt>
      <trkpt lat="45.09506" lon="2.72714">
        <ele>1351.27</ele>
        <time>2015-06-11T13:16:34Z</time>
      </trkpt>
      <trkpt lat="45.09502" lon="2.72706">
        <ele>1347.91</ele>
        <time>2015-06-11T13:16:46Z</time>
      </trkpt>
      <trkpt lat="45.09498" lon="2.72697">
        <ele>1342.62</ele>
        <time>2015-06-11T13:16:57Z</time>
      </trkpt>
      <trkpt lat="45.09495" lon="2.72685">
        <ele>1338.29</ele>
        <time>2015-06-11T13:17:09Z</time>
      </trkpt>
      <trkpt lat="45.0949" lon="2.72678">
        <ele>1334.93</ele>
        <time>2015-06-11T13:17:20Z</time>
      </trkpt>
      <trkpt lat="45.09488" lon="2.72669">
        <ele>1331.56</ele>
        <time>2015-06-11T13:17:32Z</time>
      </trkpt>
      <trkpt lat="45.09481" lon="2.72654">
        <ele>1330.6</ele>
        <time>2015-06-11T13:17:44Z</time>
      </trkpt>
      <trkpt lat="45.09481" lon="2.72653">
        <ele>1329.64</ele>
        <time>2015-06-11T13:17:48Z</time>
      </trkpt>
      <trkpt lat="45.09476" lon="2.72642">
        <ele>1330.12</ele>
        <time>2015-06-11T13:17:57Z</time>
      </trkpt>
      <trkpt lat="45.09475" lon="2.72636">
        <ele>1327.72</ele>
        <time>2015-06-11T13:18:09Z</time>
      </trkpt>
      <trkpt lat="45.09466" lon="2.72629">
        <ele>1327.72</ele>
        <time>2015-06-11T13:18:21Z</time>
      </trkpt>
      <trkpt lat="45.09458" lon="2.72631">
        <ele>1325.8</ele>
        <time>2015-06-11T13:18:33Z</time>
      </trkpt>
      <trkpt lat="45.09453" lon="2.72635">
        <ele>1323.87</ele>
        <time>2015-06-11T13:18:41Z</time>
      </trkpt>
      <trkpt lat="45.09437" lon="2.72645">
        <ele>1323.39</ele>
        <time>2015-06-11T13:18:57Z</time>
      </trkpt>
      <trkpt lat="45.09434" lon="2.72649">
        <ele>1325.31</ele>
        <time>2015-06-11T13:19:03Z</time>
      </trkpt>
      <trkpt lat="45.09428" lon="2.72663">
        <ele>1326.28</ele>
        <time>2015-06-11T13:19:16Z</time>
      </trkpt>
      <trkpt lat="45.0942" lon="2.72673">
        <ele>1324.83</ele>
        <time>2015-06-11T13:19:26Z</time>
      </trkpt>
      <trkpt lat="45.09419" lon="2.7268">
        <ele>1323.87</ele>
        <time>2015-06-11T13:19:40Z</time>
      </trkpt>
      <trkpt lat="45.09415" lon="2.72695">
        <ele>1320.51</ele>
        <time>2015-06-11T13:19:52Z</time>
      </trkpt>
      <trkpt lat="45.09409" lon="2.72707">
        <ele>1320.03</ele>
        <time>2015-06-11T13:20:02Z</time>
      </trkpt>
      <trkpt lat="45.09407" lon="2.72714">
        <ele>1318.1</ele>
        <time>2015-06-11T13:20:14Z</time>
      </trkpt>
      <trkpt lat="45.09403" lon="2.72728">
        <ele>1317.14</ele>
        <time>2015-06-11T13:20:27Z</time>
      </trkpt>
      <trkpt lat="45.09401" lon="2.72731">
        <ele>1316.66</ele>
        <time>2015-06-11T13:20:29Z</time>
      </trkpt>
      <trkpt lat="45.09393" lon="2.72738">
        <ele>1312.82</ele>
        <time>2015-06-11T13:20:42Z</time>
      </trkpt>
      <trkpt lat="45.09388" lon="2.72746">
        <ele>1310.9</ele>
        <time>2015-06-11T13:20:53Z</time>
      </trkpt>
      <trkpt lat="45.09378" lon="2.72752">
        <ele>1312.82</ele>
        <time>2015-06-11T13:21:04Z</time>
      </trkpt>
      <trkpt lat="45.09375" lon="2.72753">
        <ele>1313.3</ele>
        <time>2015-06-11T13:21:06Z</time>
      </trkpt>
      <trkpt lat="45.09373" lon="2.72754">
        <ele>1314.74</ele>
        <time>2015-06-11T13:21:08Z</time>
      </trkpt>
      <trkpt lat="45.09367" lon="2.72756">
        <ele>1315.7</ele>
        <time>2015-06-11T13:21:14Z</time>
      </trkpt>
      <trkpt lat="45.0936" lon="2.72765">
        <ele>1319.55</ele>
        <time>2015-06-11T13:21:29Z</time>
      </trkpt>
      <trkpt lat="45.0936" lon="2.72767">
        <ele>1320.03</ele>
        <time>2015-06-11T13:21:30Z</time>
      </trkpt>
      <trkpt lat="45.09358" lon="2.72775">
        <ele>1321.95</ele>
        <time>2015-06-11T13:21:35Z</time>
      </trkpt>
      <trkpt lat="45.09358" lon="2.72784">
        <ele>1322.43</ele>
        <time>2015-06-11T13:21:44Z</time>
      </trkpt>
      <trkpt lat="45.09357" lon="2.72791">
        <ele>1321.95</ele>
        <time>2015-06-11T13:21:55Z</time>
      </trkpt>
      <trkpt lat="45.09349" lon="2.72795">
        <ele>1316.66</ele>
        <time>2015-06-11T13:22:08Z</time>
      </trkpt>
      <trkpt lat="45.09349" lon="2.7279">
        <ele>1313.78</ele>
        <time>2015-06-11T13:22:26Z</time>
      </trkpt>
      <trkpt lat="45.0935" lon="2.72789">
        <ele>1312.82</ele>
        <time>2015-06-11T13:23:02Z</time>
      </trkpt>
      <trkpt lat="45.0935" lon="2.72785">
        <ele>1311.86</ele>
        <time>2015-06-11T13:23:30Z</time>
      </trkpt>
      <trkpt lat="45.09349" lon="2.7278">
        <ele>1309.45</ele>
        <time>2015-06-11T13:23:50Z</time>
      </trkpt>
      <trkpt lat="45.09341" lon="2.72766">
        <ele>1302.24</ele>
        <time>2015-06-11T13:24:01Z</time>
      </trkpt>
      <trkpt lat="45.09337" lon="2.72754">
        <ele>1295.51</ele>
        <time>2015-06-11T13:24:13Z</time>
      </trkpt>
      <trkpt lat="45.09329" lon="2.72743">
        <ele>1290.23</ele>
        <time>2015-06-11T13:24:23Z</time>
      </trkpt>
      <trkpt lat="45.0932" lon="2.72726">
        <ele>1288.3</ele>
        <time>2015-06-11T13:24:36Z</time>
      </trkpt>
      <trkpt lat="45.09316" lon="2.72706">
        <ele>1285.9</ele>
        <time>2015-06-11T13:24:50Z</time>
      </trkpt>
      <trkpt lat="45.09316" lon="2.72705">
        <ele>1285.42</ele>
        <time>2015-06-11T13:24:51Z</time>
      </trkpt>
      <trkpt lat="45.09319" lon="2.72687">
        <ele>1284.46</ele>
        <time>2015-06-11T13:25:03Z</time>
      </trkpt>
      <trkpt lat="45.09322" lon="2.72675">
        <ele>1285.42</ele>
        <time>2015-06-11T13:25:10Z</time>
      </trkpt>
      <trkpt lat="45.09325" lon="2.72658">
        <ele>1286.38</ele>
        <time>2015-06-11T13:25:22Z</time>
      </trkpt>
      <trkpt lat="45.09323" lon="2.72652">
        <ele>1284.46</ele>
        <time>2015-06-11T13:25:32Z</time>
      </trkpt>
      <trkpt lat="45.0932" lon="2.72654">
        <ele>1281.09</ele>
        <time>2015-06-11T13:25:46Z</time>
      </trkpt>
      <trkpt lat="45.09319" lon="2.72654">
        <ele>1280.61</ele>
        <time>2015-06-11T13:25:47Z</time>
      </trkpt>
      <trkpt lat="45.09308" lon="2.72656">
        <ele>1277.25</ele>
        <time>2015-06-11T13:25:58Z</time>
      </trkpt>
      <trkpt lat="45.09288" lon="2.72669">
        <ele>1283.5</ele>
        <time>2015-06-11T13:26:13Z</time>
      </trkpt>
      <trkpt lat="45.09278" lon="2.72663">
        <ele>1282.54</ele>
        <time>2015-06-11T13:26:25Z</time>
      </trkpt>
      <trkpt lat="45.09266" lon="2.72651">
        <ele>1276.29</ele>
        <time>2015-06-11T13:26:39Z</time>
      </trkpt>
      <trkpt lat="45.09254" lon="2.72646">
        <ele>1274.36</ele>
        <time>2015-06-11T13:26:52Z</time>
      </trkpt>
      <trkpt lat="45.09247" lon="2.72644">
        <ele>1272.44</ele>
        <time>2015-06-11T13:27:03Z</time>
      </trkpt>
      <trkpt lat="45.09242" lon="2.72646">
        <ele>1271</ele>
        <time>2015-06-11T13:27:09Z</time>
      </trkpt>
      <trkpt lat="45.09229" lon="2.72653">
        <ele>1270.52</ele>
        <time>2015-06-11T13:27:21Z</time>
      </trkpt>
      <trkpt lat="45.09222" lon="2.72656">
        <ele>1271</ele>
        <time>2015-06-11T13:27:28Z</time>
      </trkpt>
      <trkpt lat="45.09213" lon="2.72662">
        <ele>1270.52</ele>
        <time>2015-06-11T13:27:36Z</time>
      </trkpt>
      <trkpt lat="45.09201" lon="2.72668">
        <ele>1267.64</ele>
        <time>2015-06-11T13:27:47Z</time>
      </trkpt>
      <trkpt lat="45.09195" lon="2.72672">
        <ele>1268.6</ele>
        <time>2015-06-11T13:27:53Z</time>
      </trkpt>
      <trkpt lat="45.09184" lon="2.72676">
        <ele>1265.23</ele>
        <time>2015-06-11T13:28:05Z</time>
      </trkpt>
      <trkpt lat="45.09182" lon="2.72676">
        <ele>1264.75</ele>
        <time>2015-06-11T13:28:07Z</time>
      </trkpt>
      <trkpt lat="45.09179" lon="2.72675">
        <ele>1264.75</ele>
        <time>2015-06-11T13:28:09Z</time>
      </trkpt>
      <trkpt lat="45.09171" lon="2.72674">
        <ele>1264.75</ele>
        <time>2015-06-11T13:28:21Z</time>
      </trkpt>
      <trkpt lat="45.09154" lon="2.72678">
        <ele>1265.71</ele>
        <time>2015-06-11T13:28:34Z</time>
      </trkpt>
      <trkpt lat="45.09144" lon="2.72676">
        <ele>1265.23</ele>
        <time>2015-06-11T13:28:43Z</time>
      </trkpt>
      <trkpt lat="45.09133" lon="2.72682">
        <ele>1267.64</ele>
        <time>2015-06-11T13:28:55Z</time>
      </trkpt>
      <trkpt lat="45.09119" lon="2.72687">
        <ele>1269.56</ele>
        <time>2015-06-11T13:29:06Z</time>
      </trkpt>
      <trkpt lat="45.09112" lon="2.72695">
        <ele>1267.64</ele>
        <time>2015-06-11T13:29:24Z</time>
      </trkpt>
      <trkpt lat="45.09108" lon="2.72696">
        <ele>1267.64</ele>
        <time>2015-06-11T13:29:44Z</time>
      </trkpt>
      <trkpt lat="45.091" lon="2.72699">
        <ele>1268.6</ele>
        <time>2015-06-11T13:29:56Z</time>
      </trkpt>
      <trkpt lat="45.09088" lon="2.72703">
        <ele>1269.56</ele>
        <time>2015-06-11T13:30:08Z</time>
      </trkpt>
      <trkpt lat="45.09081" lon="2.72712">
        <ele>1270.04</ele>
        <time>2015-06-11T13:30:20Z</time>
      </trkpt>
      <trkpt lat="45.0908" lon="2.72712">
        <ele>1270.04</ele>
        <time>2015-06-11T13:30:21Z</time>
      </trkpt>
      <trkpt lat="45.09074" lon="2.72718">
        <ele>1270.52</ele>
        <time>2015-06-11T13:30:31Z</time>
      </trkpt>
      <trkpt lat="45.09055" lon="2.72732">
        <ele>1272.44</ele>
        <time>2015-06-11T13:30:47Z</time>
      </trkpt>
      <trkpt lat="45.09053" lon="2.72733">
        <ele>1271.96</ele>
        <time>2015-06-11T13:30:50Z</time>
      </trkpt>
      <trkpt lat="45.09042" lon="2.72737">
        <ele>1270.52</ele>
        <time>2015-06-11T13:31:05Z</time>
      </trkpt>
      <trkpt lat="45.09041" lon="2.72741">
        <ele>1271.96</ele>
        <time>2015-06-11T13:31:19Z</time>
      </trkpt>
      <trkpt lat="45.09034" lon="2.72749">
        <ele>1272.44</ele>
        <time>2015-06-11T13:31:29Z</time>
      </trkpt>
      <trkpt lat="45.09025" lon="2.72757">
        <ele>1273.88</ele>
        <time>2015-06-11T13:31:39Z</time>
      </trkpt>
      <trkpt lat="45.09015" lon="2.72765">
        <ele>1275.33</ele>
        <time>2015-06-11T13:31:47Z</time>
      </trkpt>
      <trkpt lat="45.09004" lon="2.72773">
        <ele>1277.25</ele>
        <time>2015-06-11T13:32:00Z</time>
      </trkpt>
      <trkpt lat="45.09003" lon="2.72773">
        <ele>1277.73</ele>
        <time>2015-06-11T13:32:05Z</time>
      </trkpt>
      <trkpt lat="45.08995" lon="2.72786">
        <ele>1281.57</ele>
        <time>2015-06-11T13:32:15Z</time>
      </trkpt>
      <trkpt lat="45.08985" lon="2.72803">
        <ele>1285.42</ele>
        <time>2015-06-11T13:32:27Z</time>
      </trkpt>
      <trkpt lat="45.08984" lon="2.72804">
        <ele>1285.9</ele>
        <time>2015-06-11T13:32:28Z</time>
      </trkpt>
      <trkpt lat="45.08982" lon="2.72811">
        <ele>1287.34</ele>
        <time>2015-06-11T13:32:33Z</time>
      </trkpt>
      <trkpt lat="45.08976" lon="2.72821">
        <ele>1288.78</ele>
        <time>2015-06-11T13:32:39Z</time>
      </trkpt>
      <trkpt lat="45.08974" lon="2.72832">
        <ele>1291.67</ele>
        <time>2015-06-11T13:32:50Z</time>
      </trkpt>
      <trkpt lat="45.08971" lon="2.72836">
        <ele>1291.67</ele>
        <time>2015-06-11T13:32:53Z</time>
      </trkpt>
      <trkpt lat="45.08968" lon="2.72844">
        <ele>1289.27</ele>
        <time>2015-06-11T13:33:04Z</time>
      </trkpt>
      <trkpt lat="45.08964" lon="2.7285">
        <ele>1287.82</ele>
        <time>2015-06-11T13:33:14Z</time>
      </trkpt>
      <trkpt lat="45.08958" lon="2.72862">
        <ele>1287.34</ele>
        <time>2015-06-11T13:33:24Z</time>
      </trkpt>
      <trkpt lat="45.08957" lon="2.72865">
        <ele>1287.34</ele>
        <time>2015-06-11T13:33:26Z</time>
      </trkpt>
      <trkpt lat="45.08951" lon="2.72877">
        <ele>1287.82</ele>
        <time>2015-06-11T13:33:33Z</time>
      </trkpt>
      <trkpt lat="45.08946" lon="2.72889">
        <ele>1289.27</ele>
        <time>2015-06-11T13:33:39Z</time>
      </trkpt>
      <trkpt lat="45.08945" lon="2.72894">
        <ele>1289.75</ele>
        <time>2015-06-11T13:33:42Z</time>
      </trkpt>
      <trkpt lat="45.08939" lon="2.72914">
        <ele>1290.23</ele>
        <time>2015-06-11T13:33:54Z</time>
      </trkpt>
      <trkpt lat="45.08939" lon="2.72916">
        <ele>1290.23</ele>
        <time>2015-06-11T13:33:55Z</time>
      </trkpt>
      <trkpt lat="45.08929" lon="2.72934">
        <ele>1288.3</ele>
        <time>2015-06-11T13:34:07Z</time>
      </trkpt>
      <trkpt lat="45.08926" lon="2.72948">
        <ele>1285.9</ele>
        <time>2015-06-11T13:34:17Z</time>
      </trkpt>
      <trkpt lat="45.08926" lon="2.72952">
        <ele>1286.38</ele>
        <time>2015-06-11T13:34:19Z</time>
      </trkpt>
      <trkpt lat="45.08845" lon="2.73489">
        <ele>1268.6</ele>
        <time>2015-06-11T13:42:06Z</time>
      </trkpt>
      <trkpt lat="45.08839" lon="2.73496">
        <ele>1266.19</ele>
        <time>2015-06-11T13:42:17Z</time>
      </trkpt>
      <trkpt lat="45.08837" lon="2.73503">
        <ele>1268.12</ele>
        <time>2015-06-11T13:42:23Z</time>
      </trkpt>
      <trkpt lat="45.0882" lon="2.73534">
        <ele>1277.25</ele>
        <time>2015-06-11T13:42:40Z</time>
      </trkpt>
      <trkpt lat="45.0882" lon="2.73537">
        <ele>1277.73</ele>
        <time>2015-06-11T13:42:45Z</time>
      </trkpt>
      <trkpt lat="45.08818" lon="2.73544">
        <ele>1275.33</ele>
        <time>2015-06-11T13:42:51Z</time>
      </trkpt>
      <trkpt lat="45.08812" lon="2.7356">
        <ele>1274.85</ele>
        <time>2015-06-11T13:43:05Z</time>
      </trkpt>
      <trkpt lat="45.08812" lon="2.73563">
        <ele>1275.81</ele>
        <time>2015-06-11T13:43:07Z</time>
      </trkpt>
      <trkpt lat="45.08806" lon="2.73582">
        <ele>1277.25</ele>
        <time>2015-06-11T13:43:19Z</time>
      </trkpt>
      <trkpt lat="45.08804" lon="2.73587">
        <ele>1277.73</ele>
        <time>2015-06-11T13:43:21Z</time>
      </trkpt>
      <trkpt lat="45.08802" lon="2.73598">
        <ele>1271.48</ele>
        <time>2015-06-11T13:43:31Z</time>
      </trkpt>
      <trkpt lat="45.08798" lon="2.73609">
        <ele>1266.67</ele>
        <time>2015-06-11T13:43:41Z</time>
      </trkpt>
      <trkpt lat="45.08796" lon="2.73615">
        <ele>1264.27</ele>
        <time>2015-06-11T13:43:51Z</time>
      </trkpt>
      <trkpt lat="45.0879" lon="2.73628">
        <ele>1262.35</ele>
        <time>2015-06-11T13:44:03Z</time>
      </trkpt>
      <trkpt lat="45.08786" lon="2.7364">
        <ele>1258.98</ele>
        <time>2015-06-11T13:44:13Z</time>
      </trkpt>
      <trkpt lat="45.08777" lon="2.73655">
        <ele>1258.02</ele>
        <time>2015-06-11T13:44:25Z</time>
      </trkpt>
      <trkpt lat="45.08778" lon="2.73662">
        <ele>1254.66</ele>
        <time>2015-06-11T13:44:35Z</time>
      </trkpt>
      <trkpt lat="45.08777" lon="2.73666">
        <ele>1254.18</ele>
        <time>2015-06-11T13:44:38Z</time>
      </trkpt>
      <trkpt lat="45.08766" lon="2.73687">
        <ele>1254.66</ele>
        <time>2015-06-11T13:44:46Z</time>
      </trkpt>
      <trkpt lat="45.08762" lon="2.73698">
        <ele>1253.22</ele>
        <time>2015-06-11T13:44:52Z</time>
      </trkpt>
      <trkpt lat="45.08762" lon="2.73703">
        <ele>1253.22</ele>
        <time>2015-06-11T13:44:55Z</time>
      </trkpt>
      <trkpt lat="45.08765" lon="2.73711">
        <ele>1252.25</ele>
        <time>2015-06-11T13:45:05Z</time>
      </trkpt>
      <trkpt lat="45.08762" lon="2.7373">
        <ele>1250.81</ele>
        <time>2015-06-11T13:45:16Z</time>
      </trkpt>
      <trkpt lat="45.08763" lon="2.73742">
        <ele>1250.33</ele>
        <time>2015-06-11T13:45:27Z</time>
      </trkpt>
      <trkpt lat="45.08758" lon="2.73758">
        <ele>1249.37</ele>
        <time>2015-06-11T13:45:39Z</time>
      </trkpt>
      <trkpt lat="45.08754" lon="2.73771">
        <ele>1248.41</ele>
        <time>2015-06-11T13:45:50Z</time>
      </trkpt>
      <trkpt lat="45.0875" lon="2.73797">
        <ele>1249.37</ele>
        <time>2015-06-11T13:46:06Z</time>
      </trkpt>
      <trkpt lat="45.08747" lon="2.7382">
        <ele>1248.41</ele>
        <time>2015-06-11T13:46:21Z</time>
      </trkpt>
      <trkpt lat="45.08744" lon="2.7383">
        <ele>1246.49</ele>
        <time>2015-06-11T13:46:31Z</time>
      </trkpt>
      <trkpt lat="45.08738" lon="2.73845">
        <ele>1247.45</ele>
        <time>2015-06-11T13:46:40Z</time>
      </trkpt>
      <trkpt lat="45.08729" lon="2.73849">
        <ele>1246.97</ele>
        <time>2015-06-11T13:46:53Z</time>
      </trkpt>
      <trkpt lat="45.08722" lon="2.7386">
        <ele>1242.64</ele>
        <time>2015-06-11T13:47:20Z</time>
      </trkpt>
      <trkpt lat="45.08725" lon="2.73863">
        <ele>1238.32</ele>
        <time>2015-06-11T13:47:34Z</time>
      </trkpt>
      <trkpt lat="45.08723" lon="2.73883">
        <ele>1238.32</ele>
        <time>2015-06-11T13:47:45Z</time>
      </trkpt>
      <trkpt lat="45.08725" lon="2.7389">
        <ele>1238.8</ele>
        <time>2015-06-11T13:47:50Z</time>
      </trkpt>
      <trkpt lat="45.08728" lon="2.73899">
        <ele>1235.43</ele>
        <time>2015-06-11T13:47:56Z</time>
      </trkpt>
      <trkpt lat="45.08733" lon="2.73906">
        <ele>1232.07</ele>
        <time>2015-06-11T13:48:07Z</time>
      </trkpt>
      <trkpt lat="45.08738" lon="2.73914">
        <ele>1227.74</ele>
        <time>2015-06-11T13:48:18Z</time>
      </trkpt>
      <trkpt lat="45.08744" lon="2.7392">
        <ele>1223.9</ele>
        <time>2015-06-11T13:48:25Z</time>
      </trkpt>
      <trkpt lat="45.08744" lon="2.73921">
        <ele>1222.93</ele>
        <time>2015-06-11T13:48:27Z</time>
      </trkpt>
      <trkpt lat="45.08744" lon="2.73933">
        <ele>1221.49</ele>
        <time>2015-06-11T13:48:35Z</time>
      </trkpt>
      <trkpt lat="45.08745" lon="2.73937">
        <ele>1221.01</ele>
        <time>2015-06-11T13:48:38Z</time>
      </trkpt>
      <trkpt lat="45.08745" lon="2.73943">
        <ele>1220.53</ele>
        <time>2015-06-11T13:48:42Z</time>
      </trkpt>
      <trkpt lat="45.08745" lon="2.73948">
        <ele>1220.05</ele>
        <time>2015-06-11T13:48:45Z</time>
      </trkpt>
      <trkpt lat="45.08746" lon="2.73956">
        <ele>1219.57</ele>
        <time>2015-06-11T13:48:50Z</time>
      </trkpt>
      <trkpt lat="45.08746" lon="2.7397">
        <ele>1216.21</ele>
        <time>2015-06-11T13:49:02Z</time>
      </trkpt>
      <trkpt lat="45.08743" lon="2.73978">
        <ele>1218.13</ele>
        <time>2015-06-11T13:49:16Z</time>
      </trkpt>
      <trkpt lat="45.08745" lon="2.73978">
        <ele>1216.21</ele>
        <time>2015-06-11T13:49:42Z</time>
      </trkpt>
      <trkpt lat="45.08745" lon="2.73974">
        <ele>1216.21</ele>
        <time>2015-06-11T13:50:09Z</time>
      </trkpt>
      <trkpt lat="45.08743" lon="2.7396">
        <ele>1216.69</ele>
        <time>2015-06-11T13:50:21Z</time>
      </trkpt>
      <trkpt lat="45.08741" lon="2.73959">
        <ele>1218.13</ele>
        <time>2015-06-11T13:50:43Z</time>
      </trkpt>
      <trkpt lat="45.08742" lon="2.73955">
        <ele>1218.13</ele>
        <time>2015-06-11T13:51:08Z</time>
      </trkpt>
      <trkpt lat="45.08737" lon="2.73942">
        <ele>1218.61</ele>
        <time>2015-06-11T13:51:23Z</time>
      </trkpt>
      <trkpt lat="45.08732" lon="2.73931">
        <ele>1218.61</ele>
        <time>2015-06-11T13:51:37Z</time>
      </trkpt>
      <trkpt lat="45.08734" lon="2.73912">
        <ele>1219.09</ele>
        <time>2015-06-11T13:51:49Z</time>
      </trkpt>
      <trkpt lat="45.08728" lon="2.73906">
        <ele>1217.65</ele>
        <time>2015-06-11T13:52:02Z</time>
      </trkpt>
      <trkpt lat="45.08724" lon="2.73905">
        <ele>1217.17</ele>
        <time>2015-06-11T13:52:16Z</time>
      </trkpt>
      <trkpt lat="45.08718" lon="2.73901">
        <ele>1215.24</ele>
        <time>2015-06-11T13:52:29Z</time>
      </trkpt>
      <trkpt lat="45.08714" lon="2.739">
        <ele>1213.8</ele>
        <time>2015-06-11T13:52:42Z</time>
      </trkpt>
      <trkpt lat="45.0871" lon="2.739">
        <ele>1213.8</ele>
        <time>2015-06-11T13:52:59Z</time>
      </trkpt>
      <trkpt lat="45.08706" lon="2.73897">
        <ele>1213.8</ele>
        <time>2015-06-11T13:53:18Z</time>
      </trkpt>
      <trkpt lat="45.08703" lon="2.73895">
        <ele>1213.8</ele>
        <time>2015-06-11T13:53:45Z</time>
      </trkpt>
      <trkpt lat="45.08702" lon="2.73887">
        <ele>1215.24</ele>
        <time>2015-06-11T13:54:06Z</time>
      </trkpt>
      <trkpt lat="45.08704" lon="2.73879">
        <ele>1216.21</ele>
        <time>2015-06-11T13:54:12Z</time>
      </trkpt>
      <trkpt lat="45.08702" lon="2.73866">
        <ele>1217.65</ele>
        <time>2015-06-11T13:54:29Z</time>
      </trkpt>
      <trkpt lat="45.08703" lon="2.73862">
        <ele>1217.17</ele>
        <time>2015-06-11T13:54:46Z</time>
      </trkpt>
      <trkpt lat="45.08705" lon="2.73853">
        <ele>1216.21</ele>
        <time>2015-06-11T13:55:00Z</time>
      </trkpt>
      <trkpt lat="45.08707" lon="2.73835">
        <ele>1214.76</ele>
        <time>2015-06-11T13:55:16Z</time>
      </trkpt>
      <trkpt lat="45.08709" lon="2.73818">
        <ele>1214.28</ele>
        <time>2015-06-11T13:55:30Z</time>
      </trkpt>
      <trkpt lat="45.08711" lon="2.73813">
        <ele>1214.76</ele>
        <time>2015-06-11T13:55:43Z</time>
      </trkpt>
      <trkpt lat="45.0871" lon="2.73811">
        <ele>1213.8</ele>
        <time>2015-06-11T13:56:04Z</time>
      </trkpt>
      <trkpt lat="45.08704" lon="2.73816">
        <ele>1211.88</ele>
        <time>2015-06-11T13:56:13Z</time>
      </trkpt>
      <trkpt lat="45.08698" lon="2.73828">
        <ele>1212.84</ele>
        <time>2015-06-11T13:56:27Z</time>
      </trkpt>
      <trkpt lat="45.08691" lon="2.73835">
        <ele>1212.36</ele>
        <time>2015-06-11T13:56:41Z</time>
      </trkpt>
      <trkpt lat="45.08684" lon="2.73837">
        <ele>1214.76</ele>
        <time>2015-06-11T13:56:56Z</time>
      </trkpt>
      <trkpt lat="45.0868" lon="2.73847">
        <ele>1217.65</ele>
        <time>2015-06-11T13:57:12Z</time>
      </trkpt>
      <trkpt lat="45.08675" lon="2.73857">
        <ele>1218.13</ele>
        <time>2015-06-11T13:57:25Z</time>
      </trkpt>
      <trkpt lat="45.08674" lon="2.73867">
        <ele>1217.17</ele>
        <time>2015-06-11T13:57:38Z</time>
      </trkpt>
      <trkpt lat="45.08673" lon="2.73886">
        <ele>1219.09</ele>
        <time>2015-06-11T13:57:52Z</time>
      </trkpt>
      <trkpt lat="45.0868" lon="2.7389">
        <ele>1218.13</ele>
        <time>2015-06-11T13:58:07Z</time>
      </trkpt>
      <trkpt lat="45.08684" lon="2.73895">
        <ele>1215.24</ele>
        <time>2015-06-11T13:58:23Z</time>
      </trkpt>
      <trkpt lat="45.08684" lon="2.73895">
        <ele>1217.17</ele>
        <time>2015-06-11T13:58:46Z</time>
      </trkpt>
      <trkpt lat="45.08679" lon="2.73893">
        <ele>1219.57</ele>
        <time>2015-06-11T13:59:00Z</time>
      </trkpt>
      <trkpt lat="45.08675" lon="2.73881">
        <ele>1223.9</ele>
        <time>2015-06-11T13:59:16Z</time>
      </trkpt>
      <trkpt lat="45.08667" lon="2.73872">
        <ele>1226.78</ele>
        <time>2015-06-11T13:59:31Z</time>
      </trkpt>
      <trkpt lat="45.08663" lon="2.73882">
        <ele>1233.51</ele>
        <time>2015-06-11T13:59:43Z</time>
      </trkpt>
      <trkpt lat="45.08658" lon="2.73888">
        <ele>1238.8</ele>
        <time>2015-06-11T13:59:55Z</time>
      </trkpt>
      <trkpt lat="45.08662" lon="2.73886">
        <ele>1237.35</ele>
        <time>2015-06-11T14:00:08Z</time>
      </trkpt>
      <trkpt lat="45.08663" lon="2.73884">
        <ele>1236.39</ele>
        <time>2015-06-11T14:00:38Z</time>
      </trkpt>
      <trkpt lat="45.08662" lon="2.73884">
        <ele>1236.39</ele>
        <time>2015-06-11T14:00:49Z</time>
      </trkpt>
      <trkpt lat="45.08655" lon="2.73877">
        <ele>1238.32</ele>
        <time>2015-06-11T14:01:02Z</time>
      </trkpt>
      <trkpt lat="45.08655" lon="2.73875">
        <ele>1238.32</ele>
        <time>2015-06-11T14:01:03Z</time>
      </trkpt>
      <trkpt lat="45.08654" lon="2.73869">
        <ele>1237.83</ele>
        <time>2015-06-11T14:01:08Z</time>
      </trkpt>
      <trkpt lat="45.08652" lon="2.73862">
        <ele>1238.32</ele>
        <time>2015-06-11T14:01:20Z</time>
      </trkpt>
      <trkpt lat="45.08651" lon="2.7385">
        <ele>1236.39</ele>
        <time>2015-06-11T14:01:31Z</time>
      </trkpt>
      <trkpt lat="45.08647" lon="2.73839">
        <ele>1238.32</ele>
        <time>2015-06-11T14:01:46Z</time>
      </trkpt>
      <trkpt lat="45.08644" lon="2.73831">
        <ele>1240.24</ele>
        <time>2015-06-11T14:01:55Z</time>
      </trkpt>
      <trkpt lat="45.08644" lon="2.73831">
        <ele>1240.72</ele>
        <time>2015-06-11T14:01:57Z</time>
      </trkpt>
      <trkpt lat="45.08641" lon="2.73821">
        <ele>1242.64</ele>
        <time>2015-06-11T14:02:07Z</time>
      </trkpt>
      <trkpt lat="45.08637" lon="2.73809">
        <ele>1245.53</ele>
        <time>2015-06-11T14:02:17Z</time>
      </trkpt>
      <trkpt lat="45.08636" lon="2.73807">
        <ele>1246.01</ele>
        <time>2015-06-11T14:02:19Z</time>
      </trkpt>
      <trkpt lat="45.08634" lon="2.738">
        <ele>1248.41</ele>
        <time>2015-06-11T14:02:25Z</time>
      </trkpt>
      <trkpt lat="45.0863" lon="2.73787">
        <ele>1249.85</ele>
        <time>2015-06-11T14:02:36Z</time>
      </trkpt>
      <trkpt lat="45.08629" lon="2.73783">
        <ele>1249.85</ele>
        <time>2015-06-11T14:02:39Z</time>
      </trkpt>
      <trkpt lat="45.08631" lon="2.73777">
        <ele>1252.74</ele>
        <time>2015-06-11T14:02:45Z</time>
      </trkpt>
      <trkpt lat="45.08632" lon="2.7377">
        <ele>1256.58</ele>
        <time>2015-06-11T14:02:53Z</time>
      </trkpt>
      <trkpt lat="45.08629" lon="2.73757">
        <ele>1256.1</ele>
        <time>2015-06-11T14:03:08Z</time>
      </trkpt>
      <trkpt lat="45.08628" lon="2.73752">
        <ele>1256.1</ele>
        <time>2015-06-11T14:03:15Z</time>
      </trkpt>
      <trkpt lat="45.08623" lon="2.73751">
        <ele>1258.5</ele>
        <time>2015-06-11T14:03:27Z</time>
      </trkpt>
      <trkpt lat="45.08622" lon="2.73755">
        <ele>1258.98</ele>
        <time>2015-06-11T14:03:42Z</time>
      </trkpt>
      <trkpt lat="45.08621" lon="2.73757">
        <ele>1258.5</ele>
        <time>2015-06-11T14:03:45Z</time>
      </trkpt>
      <trkpt lat="45.08616" lon="2.7377">
        <ele>1258.98</ele>
        <time>2015-06-11T14:03:57Z</time>
      </trkpt>
      <trkpt lat="45.0861" lon="2.73783">
        <ele>1259.94</ele>
        <time>2015-06-11T14:04:10Z</time>
      </trkpt>
      <trkpt lat="45.0861" lon="2.73786">
        <ele>1260.91</ele>
        <time>2015-06-11T14:04:12Z</time>
      </trkpt>
      <trkpt lat="45.08613" lon="2.73795">
        <ele>1261.39</ele>
        <time>2015-06-11T14:04:23Z</time>
      </trkpt>
      <trkpt lat="45.08615" lon="2.73799">
        <ele>1261.87</ele>
        <time>2015-06-11T14:04:27Z</time>
      </trkpt>
      <trkpt lat="45.08604" lon="2.73822">
        <ele>1263.79</ele>
        <time>2015-06-11T14:04:37Z</time>
      </trkpt>
      <trkpt lat="45.08601" lon="2.73843">
        <ele>1262.35</ele>
        <time>2015-06-11T14:04:50Z</time>
      </trkpt>
      <trkpt lat="45.08596" lon="2.73863">
        <ele>1262.83</ele>
        <time>2015-06-11T14:05:02Z</time>
      </trkpt>
      <trkpt lat="45.08595" lon="2.7388">
        <ele>1263.31</ele>
        <time>2015-06-11T14:05:16Z</time>
      </trkpt>
      <trkpt lat="45.08593" lon="2.73886">
        <ele>1264.27</ele>
        <time>2015-06-11T14:05:24Z</time>
      </trkpt>
      <trkpt lat="45.08583" lon="2.73909">
        <ele>1265.71</ele>
        <time>2015-06-11T14:05:40Z</time>
      </trkpt>
      <trkpt lat="45.08583" lon="2.73909">
        <ele>1265.71</ele>
        <time>2015-06-11T14:05:42Z</time>
      </trkpt>
      <trkpt lat="45.08579" lon="2.73923">
        <ele>1266.67</ele>
        <time>2015-06-11T14:05:54Z</time>
      </trkpt>
      <trkpt lat="45.08573" lon="2.73946">
        <ele>1267.16</ele>
        <time>2015-06-11T14:06:05Z</time>
      </trkpt>
      <trkpt lat="45.0857" lon="2.73966">
        <ele>1266.19</ele>
        <time>2015-06-11T14:06:18Z</time>
      </trkpt>
      <trkpt lat="45.08563" lon="2.73981">
        <ele>1265.71</ele>
        <time>2015-06-11T14:06:33Z</time>
      </trkpt>
      <trkpt lat="45.08569" lon="2.73985">
        <ele>1264.75</ele>
        <time>2015-06-11T14:06:49Z</time>
      </trkpt>
      <trkpt lat="45.08567" lon="2.73994">
        <ele>1265.23</ele>
        <time>2015-06-11T14:07:06Z</time>
      </trkpt>
      <trkpt lat="45.08565" lon="2.73999">
        <ele>1266.67</ele>
        <time>2015-06-11T14:07:17Z</time>
      </trkpt>
      <trkpt lat="45.08559" lon="2.74011">
        <ele>1265.23</ele>
        <time>2015-06-11T14:07:32Z</time>
      </trkpt>
      <trkpt lat="45.08554" lon="2.74021">
        <ele>1265.23</ele>
        <time>2015-06-11T14:07:46Z</time>
      </trkpt>
      <trkpt lat="45.08558" lon="2.74037">
        <ele>1266.19</ele>
        <time>2015-06-11T14:07:57Z</time>
      </trkpt>
      <trkpt lat="45.08562" lon="2.74049">
        <ele>1266.19</ele>
        <time>2015-06-11T14:08:07Z</time>
      </trkpt>
      <trkpt lat="45.08555" lon="2.7407">
        <ele>1266.19</ele>
        <time>2015-06-11T14:08:22Z</time>
      </trkpt>
      <trkpt lat="45.08553" lon="2.74086">
        <ele>1264.75</ele>
        <time>2015-06-11T14:08:36Z</time>
      </trkpt>
      <trkpt lat="45.0855" lon="2.74106">
        <ele>1263.31</ele>
        <time>2015-06-11T14:08:48Z</time>
      </trkpt>
      <trkpt lat="45.08549" lon="2.7411">
        <ele>1263.79</ele>
        <time>2015-06-11T14:08:52Z</time>
      </trkpt>
      <trkpt lat="45.0854" lon="2.74125">
        <ele>1261.39</ele>
        <time>2015-06-11T14:09:02Z</time>
      </trkpt>
      <trkpt lat="45.08536" lon="2.74137">
        <ele>1260.91</ele>
        <time>2015-06-11T14:09:11Z</time>
      </trkpt>
      <trkpt lat="45.08539" lon="2.74156">
        <ele>1262.83</ele>
        <time>2015-06-11T14:09:22Z</time>
      </trkpt>
      <trkpt lat="45.08536" lon="2.74172">
        <ele>1262.83</ele>
        <time>2015-06-11T14:09:33Z</time>
      </trkpt>
      <trkpt lat="45.08535" lon="2.74189">
        <ele>1259.94</ele>
        <time>2015-06-11T14:09:45Z</time>
      </trkpt>
      <trkpt lat="45.08537" lon="2.74197">
        <ele>1260.91</ele>
        <time>2015-06-11T14:09:50Z</time>
      </trkpt>
      <trkpt lat="45.08538" lon="2.7421">
        <ele>1262.83</ele>
        <time>2015-06-11T14:09:58Z</time>
      </trkpt>
      <trkpt lat="45.08544" lon="2.74223">
        <ele>1264.75</ele>
        <time>2015-06-11T14:10:08Z</time>
      </trkpt>
      <trkpt lat="45.08545" lon="2.74232">
        <ele>1266.19</ele>
        <time>2015-06-11T14:10:19Z</time>
      </trkpt>
      <trkpt lat="45.08543" lon="2.74248">
        <ele>1267.64</ele>
        <time>2015-06-11T14:10:34Z</time>
      </trkpt>
      <trkpt lat="45.08534" lon="2.7427">
        <ele>1267.16</ele>
        <time>2015-06-11T14:10:47Z</time>
      </trkpt>
      <trkpt lat="45.08529" lon="2.74279">
        <ele>1266.67</ele>
        <time>2015-06-11T14:10:54Z</time>
      </trkpt>
      <trkpt lat="45.08526" lon="2.74285">
        <ele>1266.67</ele>
        <time>2015-06-11T14:10:58Z</time>
      </trkpt>
      <trkpt lat="45.08524" lon="2.74289">
        <ele>1266.19</ele>
        <time>2015-06-11T14:11:00Z</time>
      </trkpt>
      <trkpt lat="45.08519" lon="2.74302">
        <ele>1265.71</ele>
        <time>2015-06-11T14:11:10Z</time>
      </trkpt>
      <trkpt lat="45.0852" lon="2.74315">
        <ele>1265.23</ele>
        <time>2015-06-11T14:11:20Z</time>
      </trkpt>
      <trkpt lat="45.08519" lon="2.7433">
        <ele>1266.67</ele>
        <time>2015-06-11T14:11:32Z</time>
      </trkpt>
      <trkpt lat="45.0852" lon="2.7434">
        <ele>1267.64</ele>
        <time>2015-06-11T14:11:44Z</time>
      </trkpt>
      <trkpt lat="45.0852" lon="2.74342">
        <ele>1268.12</ele>
        <time>2015-06-11T14:11:46Z</time>
      </trkpt>
      <trkpt lat="45.08516" lon="2.74353">
        <ele>1267.64</ele>
        <time>2015-06-11T14:11:59Z</time>
      </trkpt>
      <trkpt lat="45.08516" lon="2.74356">
        <ele>1267.16</ele>
        <time>2015-06-11T14:12:22Z</time>
      </trkpt>
      <trkpt lat="45.0851" lon="2.7437">
        <ele>1267.16</ele>
        <time>2015-06-11T14:12:43Z</time>
      </trkpt>
      <trkpt lat="45.08508" lon="2.74378">
        <ele>1265.23</ele>
        <time>2015-06-11T14:12:51Z</time>
      </trkpt>
      <trkpt lat="45.0851" lon="2.74395">
        <ele>1265.23</ele>
        <time>2015-06-11T14:13:02Z</time>
      </trkpt>
      <trkpt lat="45.08507" lon="2.74412">
        <ele>1265.71</ele>
        <time>2015-06-11T14:13:14Z</time>
      </trkpt>
      <trkpt lat="45.08507" lon="2.7442">
        <ele>1265.23</ele>
        <time>2015-06-11T14:13:19Z</time>
      </trkpt>
      <trkpt lat="45.08506" lon="2.74439">
        <ele>1264.27</ele>
        <time>2015-06-11T14:13:31Z</time>
      </trkpt>
      <trkpt lat="45.08503" lon="2.74444">
        <ele>1263.79</ele>
        <time>2015-06-11T14:13:36Z</time>
      </trkpt>
      <trkpt lat="45.08503" lon="2.74456">
        <ele>1262.83</ele>
        <time>2015-06-11T14:13:45Z</time>
      </trkpt>
      <trkpt lat="45.085" lon="2.74481">
        <ele>1261.87</ele>
        <time>2015-06-11T14:13:57Z</time>
      </trkpt>
      <trkpt lat="45.085" lon="2.74483">
        <ele>1262.35</ele>
        <time>2015-06-11T14:13:59Z</time>
      </trkpt>
      <trkpt lat="45.08504" lon="2.74496">
        <ele>1263.31</ele>
        <time>2015-06-11T14:14:10Z</time>
      </trkpt>
      <trkpt lat="45.08501" lon="2.74509">
        <ele>1266.19</ele>
        <time>2015-06-11T14:14:18Z</time>
      </trkpt>
      <trkpt lat="45.08503" lon="2.74518">
        <ele>1268.6</ele>
        <time>2015-06-11T14:14:27Z</time>
      </trkpt>
      <trkpt lat="45.08501" lon="2.74547">
        <ele>1265.23</ele>
        <time>2015-06-11T14:14:43Z</time>
      </trkpt>
      <trkpt lat="45.08503" lon="2.74566">
        <ele>1264.75</ele>
        <time>2015-06-11T14:14:57Z</time>
      </trkpt>
      <trkpt lat="45.085" lon="2.74582">
        <ele>1264.75</ele>
        <time>2015-06-11T14:15:11Z</time>
      </trkpt>
      <trkpt lat="45.08499" lon="2.74601">
        <ele>1266.19</ele>
        <time>2015-06-11T14:15:25Z</time>
      </trkpt>
      <trkpt lat="45.08494" lon="2.7461">
        <ele>1268.12</ele>
        <time>2015-06-11T14:15:37Z</time>
      </trkpt>
      <trkpt lat="45.08492" lon="2.74613">
        <ele>1268.12</ele>
        <time>2015-06-11T14:15:44Z</time>
      </trkpt>
      <trkpt lat="45.08481" lon="2.74632">
        <ele>1266.19</ele>
        <time>2015-06-11T14:15:57Z</time>
      </trkpt>
      <trkpt lat="45.08473" lon="2.74637">
        <ele>1267.64</ele>
        <time>2015-06-11T14:16:07Z</time>
      </trkpt>
      <trkpt lat="45.08465" lon="2.74636">
        <ele>1268.6</ele>
        <time>2015-06-11T14:16:19Z</time>
      </trkpt>
      <trkpt lat="45.08453" lon="2.74634">
        <ele>1271.48</ele>
        <time>2015-06-11T14:16:34Z</time>
      </trkpt>
      <trkpt lat="45.08444" lon="2.7463">
        <ele>1272.92</ele>
        <time>2015-06-11T14:16:46Z</time>
      </trkpt>
      <trkpt lat="45.08429" lon="2.74625">
        <ele>1273.4</ele>
        <time>2015-06-11T14:17:00Z</time>
      </trkpt>
      <trkpt lat="45.08425" lon="2.74623">
        <ele>1272.92</ele>
        <time>2015-06-11T14:17:03Z</time>
      </trkpt>
      <trkpt lat="45.08411" lon="2.74616">
        <ele>1271.96</ele>
        <time>2015-06-11T14:17:17Z</time>
      </trkpt>
      <trkpt lat="45.08398" lon="2.74609">
        <ele>1270.04</ele>
        <time>2015-06-11T14:17:29Z</time>
      </trkpt>
      <trkpt lat="45.08393" lon="2.74597">
        <ele>1267.64</ele>
        <time>2015-06-11T14:17:40Z</time>
      </trkpt>
      <trkpt lat="45.08391" lon="2.74598">
        <ele>1269.56</ele>
        <time>2015-06-11T14:17:46Z</time>
      </trkpt>
      <trkpt lat="45.08374" lon="2.74608">
        <ele>1268.6</ele>
        <time>2015-06-11T14:18:00Z</time>
      </trkpt>
      <trkpt lat="45.08374" lon="2.74609">
        <ele>1268.12</ele>
        <time>2015-06-11T14:18:01Z</time>
      </trkpt>
      <trkpt lat="45.08365" lon="2.74614">
        <ele>1264.75</ele>
        <time>2015-06-11T14:18:13Z</time>
      </trkpt>
      <trkpt lat="45.08358" lon="2.74619">
        <ele>1264.75</ele>
        <time>2015-06-11T14:18:19Z</time>
      </trkpt>
      <trkpt lat="45.08348" lon="2.74629">
        <ele>1265.23</ele>
        <time>2015-06-11T14:18:31Z</time>
      </trkpt>
      <trkpt lat="45.08342" lon="2.74632">
        <ele>1264.27</ele>
        <time>2015-06-11T14:18:37Z</time>
      </trkpt>
      <trkpt lat="45.08335" lon="2.7464">
        <ele>1262.83</ele>
        <time>2015-06-11T14:18:49Z</time>
      </trkpt>
      <trkpt lat="45.08332" lon="2.74642">
        <ele>1262.83</ele>
        <time>2015-06-11T14:18:53Z</time>
      </trkpt>
      <trkpt lat="45.08318" lon="2.74653">
        <ele>1262.35</ele>
        <time>2015-06-11T14:19:06Z</time>
      </trkpt>
      <trkpt lat="45.08307" lon="2.74662">
        <ele>1260.91</ele>
        <time>2015-06-11T14:19:19Z</time>
      </trkpt>
      <trkpt lat="45.08297" lon="2.74665">
        <ele>1258.02</ele>
        <time>2015-06-11T14:19:30Z</time>
      </trkpt>
      <trkpt lat="45.08293" lon="2.74667">
        <ele>1257.54</ele>
        <time>2015-06-11T14:19:33Z</time>
      </trkpt>
      <trkpt lat="45.08284" lon="2.74671">
        <ele>1254.18</ele>
        <time>2015-06-11T14:19:41Z</time>
      </trkpt>
      <trkpt lat="45.08279" lon="2.74673">
        <ele>1251.77</ele>
        <time>2015-06-11T14:19:46Z</time>
      </trkpt>
      <trkpt lat="45.08265" lon="2.74676">
        <ele>1254.18</ele>
        <time>2015-06-11T14:19:59Z</time>
      </trkpt>
      <trkpt lat="45.0826" lon="2.74681">
        <ele>1256.58</ele>
        <time>2015-06-11T14:20:03Z</time>
      </trkpt>
      <trkpt lat="45.08253" lon="2.74687">
        <ele>1255.62</ele>
        <time>2015-06-11T14:20:15Z</time>
      </trkpt>
      <trkpt lat="45.08249" lon="2.7469">
        <ele>1256.1</ele>
        <time>2015-06-11T14:20:18Z</time>
      </trkpt>
      <trkpt lat="45.08241" lon="2.74696">
        <ele>1257.06</ele>
        <time>2015-06-11T14:20:26Z</time>
      </trkpt>
      <trkpt lat="45.08236" lon="2.74703">
        <ele>1258.02</ele>
        <time>2015-06-11T14:20:32Z</time>
      </trkpt>
      <trkpt lat="45.08232" lon="2.74717">
        <ele>1257.54</ele>
        <time>2015-06-11T14:20:42Z</time>
      </trkpt>
      <trkpt lat="45.08228" lon="2.7473">
        <ele>1256.1</ele>
        <time>2015-06-11T14:20:54Z</time>
      </trkpt>
      <trkpt lat="45.08225" lon="2.74739">
        <ele>1254.66</ele>
        <time>2015-06-11T14:21:05Z</time>
      </trkpt>
      <trkpt lat="45.08223" lon="2.74742">
        <ele>1251.77</ele>
        <time>2015-06-11T14:21:09Z</time>
      </trkpt>
      <trkpt lat="45.08221" lon="2.74752">
        <ele>1248.41</ele>
        <time>2015-06-11T14:21:20Z</time>
      </trkpt>
      <trkpt lat="45.08218" lon="2.7477">
        <ele>1248.89</ele>
        <time>2015-06-11T14:21:33Z</time>
      </trkpt>
      <trkpt lat="45.08216" lon="2.74787">
        <ele>1244.08</ele>
        <time>2015-06-11T14:21:45Z</time>
      </trkpt>
      <trkpt lat="45.08217" lon="2.74792">
        <ele>1242.16</ele>
        <time>2015-06-11T14:21:50Z</time>
      </trkpt>
      <trkpt lat="45.08219" lon="2.74803">
        <ele>1239.76</ele>
        <time>2015-06-11T14:22:01Z</time>
      </trkpt>
      <trkpt lat="45.0822" lon="2.74816">
        <ele>1239.76</ele>
        <time>2015-06-11T14:22:13Z</time>
      </trkpt>
      <trkpt lat="45.08219" lon="2.74812">
        <ele>1237.35</ele>
        <time>2015-06-11T14:22:25Z</time>
      </trkpt>
      <trkpt lat="45.08218" lon="2.74802">
        <ele>1235.43</ele>
        <time>2015-06-11T14:22:36Z</time>
      </trkpt>
      <trkpt lat="45.08217" lon="2.74808">
        <ele>1236.39</ele>
        <time>2015-06-11T14:22:47Z</time>
      </trkpt>
      <trkpt lat="45.08224" lon="2.74817">
        <ele>1235.91</ele>
        <time>2015-06-11T14:23:01Z</time>
      </trkpt>
      <trkpt lat="45.08221" lon="2.74822">
        <ele>1234.95</ele>
        <time>2015-06-11T14:23:07Z</time>
      </trkpt>
      <trkpt lat="45.08221" lon="2.74828">
        <ele>1234.47</ele>
        <time>2015-06-11T14:23:10Z</time>
      </trkpt>
      <trkpt lat="45.08222" lon="2.74832">
        <ele>1234.47</ele>
        <time>2015-06-11T14:23:13Z</time>
      </trkpt>
      <trkpt lat="45.08229" lon="2.74856">
        <ele>1233.03</ele>
        <time>2015-06-11T14:23:27Z</time>
      </trkpt>
      <trkpt lat="45.0823" lon="2.74859">
        <ele>1233.51</ele>
        <time>2015-06-11T14:23:29Z</time>
      </trkpt>
      <trkpt lat="45.08229" lon="2.74864">
        <ele>1233.51</ele>
        <time>2015-06-11T14:23:33Z</time>
      </trkpt>
      <trkpt lat="45.08228" lon="2.74876">
        <ele>1236.87</ele>
        <time>2015-06-11T14:23:40Z</time>
      </trkpt>
      <trkpt lat="45.08221" lon="2.74899">
        <ele>1240.72</ele>
        <time>2015-06-11T14:23:53Z</time>
      </trkpt>
      <trkpt lat="45.08221" lon="2.74913">
        <ele>1241.68</ele>
        <time>2015-06-11T14:24:03Z</time>
      </trkpt>
      <trkpt lat="45.0822" lon="2.74915">
        <ele>1241.68</ele>
        <time>2015-06-11T14:24:05Z</time>
      </trkpt>
      <trkpt lat="45.08219" lon="2.74924">
        <ele>1242.64</ele>
        <time>2015-06-11T14:24:11Z</time>
      </trkpt>
      <trkpt lat="45.08218" lon="2.74946">
        <ele>1244.08</ele>
        <time>2015-06-11T14:24:25Z</time>
      </trkpt>
      <trkpt lat="45.08212" lon="2.74962">
        <ele>1245.53</ele>
        <time>2015-06-11T14:24:38Z</time>
      </trkpt>
      <trkpt lat="45.08207" lon="2.74976">
        <ele>1246.49</ele>
        <time>2015-06-11T14:24:49Z</time>
      </trkpt>
      <trkpt lat="45.08205" lon="2.74992">
        <ele>1246.97</ele>
        <time>2015-06-11T14:25:02Z</time>
      </trkpt>
      <trkpt lat="45.08205" lon="2.74999">
        <ele>1246.49</ele>
        <time>2015-06-11T14:25:07Z</time>
      </trkpt>
      <trkpt lat="45.08205" lon="2.75001">
        <ele>1246.97</ele>
        <time>2015-06-11T14:25:09Z</time>
      </trkpt>
      <trkpt lat="45.08203" lon="2.75014">
        <ele>1247.45</ele>
        <time>2015-06-11T14:25:18Z</time>
      </trkpt>
      <trkpt lat="45.082" lon="2.75026">
        <ele>1248.89</ele>
        <time>2015-06-11T14:25:27Z</time>
      </trkpt>
      <trkpt lat="45.08201" lon="2.75042">
        <ele>1248.41</ele>
        <time>2015-06-11T14:25:38Z</time>
      </trkpt>
      <trkpt lat="45.082" lon="2.7505">
        <ele>1248.89</ele>
        <time>2015-06-11T14:25:44Z</time>
      </trkpt>
      <trkpt lat="45.08201" lon="2.75054">
        <ele>1249.37</ele>
        <time>2015-06-11T14:25:46Z</time>
      </trkpt>
      <trkpt lat="45.082" lon="2.75062">
        <ele>1249.85</ele>
        <time>2015-06-11T14:25:51Z</time>
      </trkpt>
      <trkpt lat="45.08201" lon="2.7508">
        <ele>1249.85</ele>
        <time>2015-06-11T14:26:05Z</time>
      </trkpt>
      <trkpt lat="45.08203" lon="2.751">
        <ele>1248.89</ele>
        <time>2015-06-11T14:26:21Z</time>
      </trkpt>
      <trkpt lat="45.08204" lon="2.75114">
        <ele>1246.97</ele>
        <time>2015-06-11T14:26:33Z</time>
      </trkpt>
      <trkpt lat="45.08205" lon="2.75131">
        <ele>1245.53</ele>
        <time>2015-06-11T14:26:47Z</time>
      </trkpt>
      <trkpt lat="45.08204" lon="2.75149">
        <ele>1247.45</ele>
        <time>2015-06-11T14:27:00Z</time>
      </trkpt>
      <trkpt lat="45.08203" lon="2.75164">
        <ele>1248.41</ele>
        <time>2015-06-11T14:27:13Z</time>
      </trkpt>
      <trkpt lat="45.08203" lon="2.75168">
        <ele>1249.37</ele>
        <time>2015-06-11T14:27:18Z</time>
      </trkpt>
      <trkpt lat="45.08204" lon="2.75173">
        <ele>1250.81</ele>
        <time>2015-06-11T14:27:21Z</time>
      </trkpt>
      <trkpt lat="45.08205" lon="2.75187">
        <ele>1255.14</ele>
        <time>2015-06-11T14:27:31Z</time>
      </trkpt>
      <trkpt lat="45.08206" lon="2.75194">
        <ele>1257.06</ele>
        <time>2015-06-11T14:27:38Z</time>
      </trkpt>
      <trkpt lat="45.08204" lon="2.75208">
        <ele>1257.06</ele>
        <time>2015-06-11T14:27:49Z</time>
      </trkpt>
      <trkpt lat="45.08203" lon="2.75212">
        <ele>1257.06</ele>
        <time>2015-06-11T14:27:55Z</time>
      </trkpt>
      <trkpt lat="45.08208" lon="2.75227">
        <ele>1258.02</ele>
        <time>2015-06-11T14:28:10Z</time>
      </trkpt>
      <trkpt lat="45.08221" lon="2.75228">
        <ele>1258.5</ele>
        <time>2015-06-11T14:28:22Z</time>
      </trkpt>
      <trkpt lat="45.08228" lon="2.75227">
        <ele>1258.5</ele>
        <time>2015-06-11T14:28:37Z</time>
      </trkpt>
      <trkpt lat="45.08228" lon="2.75227">
        <ele>1258.5</ele>
        <time>2015-06-11T14:28:58Z</time>
      </trkpt>
      <trkpt lat="45.08224" lon="2.7523">
        <ele>1258.5</ele>
        <time>2015-06-11T14:29:14Z</time>
      </trkpt>
      <trkpt lat="45.08227" lon="2.75231">
        <ele>1258.5</ele>
        <time>2015-06-11T14:29:27Z</time>
      </trkpt>
      <trkpt lat="45.08226" lon="2.75229">
        <ele>1258.5</ele>
        <time>2015-06-11T14:29:42Z</time>
      </trkpt>
      <trkpt lat="45.08227" lon="2.75227">
        <ele>1258.98</ele>
        <time>2015-06-11T14:30:09Z</time>
      </trkpt>
    </trkseg>
  </trk>
</gpx>